[[{"header":{"parameterUnit":"m.s-1","parameterCategory":1,"la1":30.6,"la2":29.2853,"lo1":-89.7004,"lo2":-87.6739,"dy":0.0162,"dx":0.0183,"nx":112,"ny":82,"refTime":"2023-05-23T00:00:00:Z","depth":0,"parameterNumber":2,"parameterNumberName":"U-component_of_WINDS"},"data":[0.0,0.0,0.0,0.0,0.0,0.0,0.0,0.0,0.0,0.0,0.0,0.0,0.0,0.0,0.0,0.0,0.0,0.0,0.0,0.0,0.0,0.0,0.0,0.0,0.0,0.0,0.0,0.0,0.0,0.0,0.0,0.0,0.0,0.0,0.0,0.0,0.0,0.0,0.0,0.0,0.0,0.0,0.0,0.0,0.0,0.0,0.0,0.0,0.0,0.0,0.0,0.0,0.0,0.0,0.0,0.0,0.0,0.0,0.0,0.0,0.0,0.0,0.0,0.0,0.0,0.0,0.0,0.0,0.0,0.0,0.0,0.0,0.0,0.0,0.0,0.0,0.0,0.0,0.0,0.0,0.0,0.0,0.0,0.0,0.0,0.0,0.0,0.0,0.0,0.0,2.1703,2.2353,2.3794,2.4619,2.4378,2.3813,2.3071,2.205,0.0,0.0,0.0,0.0,0.0,0.0,0.0,0.0,0.0,0.0,0.0,0.0,0.0,0.0,0.0,0.0,0.0,0.0,0.0,0.0,0.0,0.0,0.0,0.0,0.0,0.0,0.0,0.0,0.0,0.0,0.0,0.0,0.0,0.0,0.0,0.0,0.0,0.0,0.0,0.0,0.0,0.0,0.0,0.0,0.0,0.0,0.0,0.0,0.0,0.0,0.0,0.0,0.0,0.0,0.0,0.0,0.0,0.0,0.0,0.0,0.0,0.0,0.0,0.0,0.0,0.0,0.0,0.0,0.0,0.0,0.0,0.0,0.0,0.0,0.0,0.0,0.0,0.0,0.0,0.0,0.0,0.0,0.0,0.0,0.0,0.0,0.0,0.0,0.0,0.0,0.0,0.0,0.0,0.0,0.0,0.0,0.0,0.0,0.0,0.0,0.0,0.0,0.0,0.0,2.2921,2.488,2.5166,2.4948,2.4386,2.43,2.3234,2.0662,0.0,0.0,0.0,0.0,0.0,0.0,0.0,0.0,0.0,0.0,0.0,0.0,0.0,0.0,0.0,0.0,0.0,0.0,0.0,0.0,0.0,0.0,0.0,0.0,0.0,0.0,0.0,0.0,0.0,0.0,0.0,0.0,0.0,0.0,0.0,0.0,0.0,0.0,0.0,0.0,0.0,0.0,0.0,0.0,0.0,0.0,0.0,0.0,0.0,0.0,0.0,0.0,0.0,0.0,0.0,0.0,0.0,0.0,0.0,0.0,0.0,0.0,0.0,0.0,0.0,0.0,0.0,0.0,0.0,0.0,0.0,0.0,0.0,0.0,0.0,0.0,0.0,0.0,0.0,0.0,0.0,0.0,0.0,0.0,0.0,0.0,0.0,0.0,0.0,0.0,0.0,0.0,0.0,0.0,0.0,0.0,0.0,0.0,0.0,0.0,0.0,0.0,0.0,2.2031,2.3617,2.5142,2.53,2.5012,2.4323,2.4413,2.3439,2.116,2.0632,0.0,0.0,0.0,0.0,0.0,0.0,0.0,0.0,0.0,0.0,0.0,0.0,0.0,0.0,0.0,0.0,0.0,0.0,0.0,0.0,0.0,0.0,0.0,0.0,0.0,0.0,0.0,0.0,0.0,0.0,0.0,0.0,0.0,0.0,0.0,0.0,0.0,0.0,0.0,0.0,0.0,0.0,0.0,0.0,0.0,0.0,0.0,0.0,0.0,0.0,0.0,0.0,0.0,0.0,0.0,0.0,0.0,0.0,0.0,0.0,0.0,0.0,0.0,0.0,0.0,0.0,0.0,0.0,0.0,0.0,0.0,0.0,0.0,0.0,0.0,0.0,0.0,0.0,0.0,0.0,0.0,0.0,0.0,0.0,0.0,0.0,0.0,0.0,0.0,0.0,0.0,0.0,0.0,0.0,0.0,0.0,0.0,0.0,0.0,0.0,0.0,0.0,2.2699,2.3972,2.4946,2.5191,2.4976,2.4183,2.406,2.3215,2.1199,2.0493,0.0,0.0,0.0,0.0,0.0,0.0,0.0,0.0,0.0,0.0,0.0,0.0,0.0,0.0,0.0,0.0,0.0,0.0,0.0,0.0,0.0,0.0,0.0,0.0,0.0,0.0,0.0,0.0,0.0,0.0,0.0,0.0,0.0,0.0,0.0,0.0,0.0,0.0,0.0,0.0,0.0,0.0,0.0,0.0,0.0,0.0,0.0,0.0,0.0,0.0,0.0,0.0,0.0,0.0,0.0,0.0,0.0,0.0,0.0,0.0,0.0,0.0,0.0,0.0,0.0,0.0,0.0,0.0,0.0,0.0,0.0,0.0,0.0,0.0,0.0,0.0,0.0,0.0,0.0,0.0,0.0,0.0,0.0,0.0,0.0,0.0,0.0,0.0,0.0,0.0,0.0,0.0,0.0,0.0,0.0,0.0,0.0,0.0,0.0,0.0,0.0,0.0,2.2852,2.4052,2.5106,2.5334,2.4893,2.3747,2.3337,2.1976,1.936,1.8764,0.0,0.0,0.0,0.0,0.0,0.0,0.0,0.0,0.0,0.0,0.0,0.0,0.0,0.0,0.0,0.0,0.0,0.0,0.0,0.0,0.0,0.0,0.0,0.0,0.0,0.0,0.0,0.0,0.0,0.0,0.0,0.0,0.0,0.0,0.0,0.0,0.0,0.0,0.0,0.0,0.0,0.0,0.0,0.0,0.0,0.0,0.0,0.0,0.0,0.0,0.0,0.0,0.0,0.0,0.0,0.0,0.0,0.0,0.0,0.0,0.0,0.0,0.0,0.0,0.0,0.0,0.0,0.0,0.0,0.0,0.0,0.0,0.0,0.0,0.0,0.0,0.0,0.0,0.0,0.0,0.0,0.0,0.0,0.0,0.0,0.0,0.0,0.0,0.0,0.0,0.0,0.0,0.0,0.0,0.0,0.0,0.0,0.0,0.0,0.0,0.0,0.0,2.2893,2.4216,0.0,2.4613,2.4267,2.3553,2.3641,2.2453,1.9476,0.0,0.0,0.0,0.0,0.0,0.0,0.0,0.0,0.0,0.0,0.0,0.0,0.0,0.0,0.0,0.0,0.0,0.0,0.0,0.0,0.0,0.0,0.0,0.0,0.0,0.0,0.0,0.0,0.0,0.0,0.0,0.0,0.0,0.0,0.0,0.0,0.0,0.0,0.0,0.0,0.0,0.0,0.0,0.0,0.0,0.0,0.0,0.0,0.0,0.0,0.0,0.0,0.0,0.0,0.0,0.0,0.0,0.0,0.0,0.0,0.0,0.0,0.0,0.0,0.0,0.0,0.0,0.0,0.0,0.0,0.0,0.0,0.0,0.0,0.0,0.0,0.0,0.0,0.0,0.0,0.0,0.0,0.0,0.0,0.0,0.0,0.0,0.0,0.0,0.0,0.0,0.0,0.0,0.0,0.0,0.0,0.0,0.0,0.0,0.0,0.0,0.0,2.0966,2.2797,2.4216,0.0,2.4053,2.3707,2.3119,2.3283,2.222,1.933,0.0,0.0,0.0,0.0,0.0,0.0,0.0,0.0,0.0,0.0,0.0,0.0,0.0,0.0,0.0,0.0,0.0,0.0,0.0,0.0,0.0,0.0,0.0,0.0,0.0,0.0,0.0,0.0,0.0,0.0,0.0,0.0,0.0,0.0,0.0,0.0,0.0,0.0,0.0,0.0,0.0,0.0,0.0,0.0,0.0,0.0,0.0,0.0,0.0,0.0,0.0,0.0,0.0,0.0,0.0,0.0,0.0,0.0,0.0,0.0,0.0,0.0,0.0,0.0,0.0,0.0,0.0,0.0,0.0,0.0,0.0,0.0,0.0,0.0,0.0,0.0,0.0,0.0,0.0,0.0,0.0,0.0,0.0,0.0,0.0,0.0,0.0,0.0,0.0,0.0,0.0,0.0,0.0,0.0,0.0,0.0,0.0,0.0,0.0,0.0,0.0,0.0,2.0944,2.2655,2.393,2.4066,2.3866,2.3312,2.2475,2.2067,2.0852,0.0,0.0,0.0,0.0,0.0,0.0,0.0,0.0,0.0,0.0,0.0,0.0,0.0,0.0,0.0,0.0,0.0,0.0,0.0,0.0,0.0,0.0,0.0,0.0,0.0,0.0,0.0,0.0,0.0,0.0,0.0,0.0,0.0,0.0,0.0,0.0,0.0,0.0,0.0,0.0,0.0,0.0,0.0,0.0,0.0,0.0,0.0,0.0,0.0,0.0,0.0,0.0,0.0,0.0,0.0,0.0,0.0,0.0,0.0,0.0,0.0,0.0,0.0,0.0,0.0,0.0,0.0,0.0,0.0,0.0,0.0,0.0,0.0,0.0,0.0,0.0,0.0,0.0,0.0,0.0,0.0,0.0,0.0,0.0,0.0,0.0,0.0,0.0,0.0,0.0,0.0,0.0,0.0,0.0,0.0,0.0,0.0,0.0,0.0,0.0,0.0,0.0,0.0,2.059,2.2153,2.3418,2.3891,2.327,2.2774,2.2754,2.2536,2.1852,2.0518,0.0,0.0,0.0,0.0,0.0,0.0,0.0,0.0,0.0,0.0,0.0,0.0,0.0,0.0,0.0,0.0,0.0,0.0,0.0,0.0,0.0,0.0,0.0,0.0,0.0,0.0,0.0,0.0,0.0,0.0,0.0,0.0,0.0,0.0,0.0,0.0,0.0,0.0,0.0,0.0,0.0,0.0,0.0,0.0,0.0,0.0,0.0,0.0,0.0,0.0,0.0,0.0,0.0,0.0,0.0,0.0,0.0,0.0,0.0,0.0,0.0,0.0,0.0,0.0,0.0,0.0,0.0,0.0,0.0,0.0,0.0,0.0,0.0,0.0,0.0,0.0,0.0,0.0,0.0,0.0,0.0,0.0,0.0,0.0,0.0,0.0,0.0,0.0,0.0,0.0,0.0,0.0,0.0,0.0,0.0,0.0,0.0,0.0,0.0,0.0,0.0,0.0,2.0547,2.2328,2.3668,2.3727,2.2896,2.2406,2.2428,2.24,2.1973,2.1041,0.0,0.0,0.0,0.0,0.0,0.0,0.0,0.0,0.0,0.0,0.0,0.0,0.0,0.0,0.0,0.0,0.0,0.0,0.0,0.0,0.0,0.0,0.0,0.0,0.0,0.0,0.0,0.0,0.0,0.0,0.0,0.0,0.0,0.0,0.0,0.0,0.0,0.0,0.0,0.0,0.0,0.0,0.0,0.0,0.0,0.0,0.0,0.0,0.0,0.0,0.0,0.0,0.0,0.0,0.0,0.0,0.0,0.0,0.0,0.0,0.0,0.0,0.0,0.0,0.0,0.0,0.0,0.0,0.0,0.0,0.0,0.0,0.0,0.0,0.0,0.0,0.0,0.0,0.0,0.0,0.0,0.0,0.0,0.0,0.0,0.0,0.0,0.0,0.0,0.0,0.0,0.0,0.0,0.0,0.0,0.0,0.0,0.0,0.0,0.0,0.0,0.0,2.069,2.2843,2.4295,2.356,2.2867,2.2247,2.1763,2.1835,2.1587,2.0897,0.0,0.0,0.0,0.0,0.0,0.0,0.0,0.0,0.0,0.0,0.0,0.0,0.0,0.0,0.0,0.0,0.0,0.0,0.0,0.0,0.0,0.0,0.0,0.0,0.0,0.0,0.0,0.0,0.0,0.0,0.0,0.0,0.0,0.0,0.0,0.0,0.0,0.0,0.0,0.0,0.0,0.0,0.0,0.0,0.0,0.0,0.0,0.0,0.0,0.0,0.0,0.0,0.0,0.0,0.0,0.0,0.0,0.0,0.0,0.0,2.0559,2.0528,0.0,0.0,0.0,0.0,0.0,0.0,0.0,0.0,0.0,0.0,0.0,0.0,0.0,0.0,0.0,0.0,0.0,0.0,0.0,0.0,0.0,0.0,0.0,0.0,0.0,0.0,0.0,0.0,0.0,0.0,0.0,0.0,0.0,0.0,0.0,0.0,0.0,0.0,0.0,0.0,2.0617,2.2651,2.4116,2.4115,2.3482,2.2733,2.1921,2.1777,2.1785,2.1828,2.1302,0.0,0.0,0.0,0.0,0.0,0.0,0.0,0.0,0.0,0.0,0.0,0.0,0.0,0.0,0.0,0.0,0.0,0.0,0.0,0.0,0.0,0.0,0.0,0.0,0.0,0.0,0.0,0.0,0.0,0.0,0.0,0.0,0.0,0.0,0.0,0.0,0.0,0.0,0.0,0.0,0.0,0.0,0.0,0.0,0.0,0.0,0.0,0.0,0.0,0.0,0.0,0.0,0.0,0.0,0.0,0.0,0.0,0.0,0.0,2.2732,2.1858,0.0,0.0,0.0,0.0,0.0,0.0,0.0,0.0,0.0,0.0,0.0,0.0,0.0,0.0,0.0,0.0,0.0,0.0,0.0,0.0,0.0,0.0,0.0,0.0,0.0,0.0,0.0,0.0,0.0,0.0,0.0,0.0,0.0,0.0,0.0,0.0,0.0,0.0,0.0,0.0,2.0809,2.3018,2.4462,2.4122,2.3485,2.283,2.2172,2.1948,2.1907,2.2205,2.166,0.0,0.0,0.0,0.0,0.0,0.0,0.0,0.0,0.0,0.0,0.0,0.0,0.0,0.0,0.0,0.0,0.0,0.0,0.0,0.0,0.0,0.0,0.0,0.0,0.0,0.0,0.0,0.0,0.0,0.0,0.0,0.0,0.0,0.0,0.0,0.0,0.0,0.0,0.0,0.0,0.0,0.0,0.0,0.0,0.0,0.0,0.0,0.0,0.0,0.0,0.0,0.0,0.0,2.5018,2.5699,2.6498,2.6402,2.6224,2.5937,2.4537,2.3144,2.1925,2.258,0.0,0.0,0.0,0.0,0.0,0.0,0.0,0.0,0.0,0.0,0.0,0.0,0.0,0.0,0.0,0.0,0.0,0.0,0.0,0.0,0.0,0.0,2.303,2.2944,2.3231,2.3274,2.2365,0.0,0.0,0.0,0.0,0.0,0.0,0.0,0.0,0.0,0.0,0.0,2.1257,2.3581,2.4964,2.3962,2.3356,2.2806,2.23,2.1972,2.1981,2.2285,2.1979,2.1725,0.0,0.0,0.0,0.0,0.0,0.0,0.0,0.0,0.0,0.0,0.0,0.0,0.0,0.0,0.0,0.0,0.0,0.0,0.0,0.0,0.0,0.0,0.0,0.0,0.0,0.0,0.0,0.0,0.0,0.0,0.0,0.0,1.9903,1.9903,0.0,0.0,0.0,0.0,0.0,0.0,0.0,0.0,0.0,0.0,0.0,0.0,0.0,2.5096,2.4843,2.5619,2.6291,2.6843,2.6772,2.7103,2.777,2.7742,2.7276,2.6409,2.6179,0.0,2.5249,2.3934,0.0,0.0,0.0,0.0,0.0,0.0,0.0,0.0,0.0,0.0,0.0,0.0,0.0,0.0,0.0,0.0,0.0,0.0,0.0,0.0,0.0,0.0,2.4473,2.429,2.4166,2.3981,2.3621,2.2989,2.2373,2.1858,2.2435,2.2304,0.0,0.0,0.0,0.0,0.0,0.0,2.2126,2.4099,2.5,2.407,2.3735,2.3044,2.1658,2.1475,2.1583,2.1945,2.2116,2.2559,2.3259,2.308,0.0,0.0,0.0,0.0,0.0,0.0,0.0,0.0,0.0,0.0,0.0,0.0,0.0,0.0,0.0,0.0,0.0,0.0,0.0,0.0,0.0,0.0,0.0,0.0,0.0,0.0,0.0,0.0,0.0,1.9912,1.9999,2.0038,2.0262,2.0386,0.0,0.0,0.0,0.0,0.0,0.0,0.0,0.0,0.0,2.3649,2.5086,2.5792,2.5638,2.633,2.6749,2.6917,2.7289,2.7549,2.7707,2.7707,2.7463,2.7068,2.714,2.7102,2.6845,2.5353,2.4995,2.5253,0.0,0.0,0.0,0.0,2.3933,2.4025,2.4496,2.4663,2.4589,2.4169,0.0,0.0,0.0,0.0,0.0,0.0,0.0,2.344,2.3978,2.4738,2.538,2.5476,2.5249,2.4945,2.4848,2.4316,2.3682,2.3093,2.3166,2.2899,2.1515,2.1637,0.0,0.0,0.0,2.2629,2.3365,2.447,2.4932,2.4308,2.3882,2.3201,2.2189,2.2121,2.2159,2.2365,2.2321,2.2649,2.3421,2.2929,2.2267,0.0,0.0,0.0,0.0,0.0,0.0,0.0,0.0,0.0,0.0,0.0,0.0,0.0,0.0,0.0,0.0,0.0,0.0,0.0,0.0,0.0,0.0,0.0,0.0,0.0,0.0,0.0,0.0,2.0291,2.0294,2.0592,2.0742,2.0879,0.0,0.0,0.0,0.0,0.0,0.0,2.2441,2.386,2.4622,2.4469,2.584,2.65,2.6391,2.6908,2.7054,2.6845,2.7467,2.7659,2.7474,2.7434,2.7434,2.7443,2.7531,2.7603,2.7625,2.6481,2.6206,2.6425,2.5674,2.547,2.5649,2.5728,2.5777,2.5889,2.6616,2.6829,2.6668,2.6126,2.5829,2.5419,2.4027,0.0,0.0,0.0,0.0,2.4547,2.5148,2.5818,2.6336,2.6452,2.6135,2.5791,2.5782,2.5181,2.4509,2.4099,2.3871,2.3527,2.285,2.2947,0.0,0.0,0.0,2.3893,2.4451,2.4915,2.5027,2.4607,2.391,2.3238,2.2598,2.239,2.2399,2.2629,2.2571,2.2783,2.3428,2.2928,2.2408,2.1994,0.0,0.0,0.0,0.0,0.0,0.0,0.0,0.0,0.0,0.0,0.0,0.0,0.0,0.0,0.0,0.0,0.0,0.0,0.0,0.0,0.0,0.0,0.0,0.0,0.0,0.0,0.0,0.0,0.0,2.1892,2.202,0.0,0.0,0.0,0.0,2.282,2.274,2.2974,2.3662,2.4981,2.5734,2.5709,2.7254,2.7966,2.7703,2.7983,2.7917,2.7556,2.7663,2.76,2.7407,2.727,2.7239,2.7282,2.7175,2.7338,2.7669,2.7074,2.6917,2.6992,2.6369,2.6195,2.6275,2.6606,2.6656,2.6576,2.6743,2.6722,2.6602,2.6641,2.6188,2.5467,2.4673,2.4672,0.0,0.0,2.5748,2.6132,2.6362,2.7065,2.7575,2.7076,2.665,2.6335,2.6266,2.5283,2.4472,2.462,2.4849,2.4525,2.3056,0.0,2.3682,2.2943,2.3581,2.4368,2.4996,2.5547,2.5584,2.4966,2.3962,2.3034,2.2396,2.1663,2.1618,2.2378,2.2822,2.3224,2.3559,2.3552,2.3305,2.2769,2.2586,0.0,0.0,0.0,0.0,0.0,0.0,0.0,0.0,0.0,0.0,0.0,0.0,0.0,0.0,0.0,0.0,0.0,0.0,0.0,0.0,0.0,0.0,0.0,0.0,0.0,0.0,0.0,0.0,2.1989,2.2539,0.0,2.2382,2.2649,2.3017,2.3446,2.3633,2.3888,2.4243,2.5591,2.6349,2.625,2.7319,2.7827,2.7659,2.7786,2.7727,2.7526,2.7548,2.7496,2.7322,2.7282,2.7282,2.7322,2.7417,2.7552,2.7642,2.7667,2.7754,2.7852,2.7634,2.761,2.7758,2.7999,2.8036,2.7972,2.8095,2.8095,2.7922,2.7451,2.6741,2.6059,2.5786,2.5762,2.5819,2.587,2.6377,2.6935,2.704,2.761,2.8068,2.7894,2.7165,2.6665,2.7172,2.6324,2.5647,2.6153,2.5662,2.4935,2.4205,2.4331,2.4315,2.3709,2.4035,2.4669,2.5539,2.5254,2.499,2.4925,2.4347,2.3675,2.2917,2.2802,2.2381,2.1493,2.2771,2.3252,2.2652,2.3449,2.3283,2.1986,2.0948,1.9436,0.0,0.0,0.0,0.0,0.0,0.0,0.0,0.0,0.0,0.0,0.0,0.0,0.0,0.0,0.0,0.0,0.0,0.0,0.0,0.0,0.0,0.0,0.0,0.0,0.0,0.0,2.1971,2.2575,2.2882,2.3177,2.3517,2.3468,2.3655,2.4297,2.4268,2.4356,2.4689,2.585,2.6468,2.6371,2.7112,2.7522,2.7487,2.7518,2.7487,2.7395,2.7434,2.7399,2.729,2.7241,2.7282,2.7353,2.7518,2.7621,2.7659,2.7902,2.8081,2.8219,2.8219,2.8237,2.8335,2.8245,2.8171,2.8137,2.83,2.8539,2.8658,2.7847,2.7182,2.6677,2.6395,2.6222,2.6144,2.6378,2.6871,2.7398,2.7685,2.8026,2.8335,2.8343,2.7619,2.7019,2.7397,2.6979,2.6584,2.6696,2.595,2.5263,2.5116,2.498,2.4709,2.4228,2.4455,2.5008,2.5797,2.5171,2.4814,2.5124,2.4471,2.3694,2.2972,2.228,2.1574,2.0674,2.1713,2.1941,2.111,2.2108,2.1927,2.0234,1.9687,1.817,1.5602,0.0,0.0,0.0,0.0,0.0,0.0,0.0,0.0,0.0,0.0,0.0,0.0,0.0,0.0,0.0,0.0,0.0,0.0,0.0,0.0,0.0,0.0,0.0,2.235,2.1716,2.1856,2.3665,2.3126,2.3272,2.5003,2.4142,2.4023,2.5277,2.4628,2.4442,2.5112,2.5768,2.6152,2.6152,2.6842,2.7221,2.7221,2.7333,2.7333,2.7221,2.7327,2.7353,2.729,2.7143,2.7215,2.7416,2.7412,2.7539,2.7722,2.7789,2.7931,2.8099,2.8034,2.8005,2.7936,2.7352,2.7058,2.6987,2.7252,2.7982,2.8658,2.7813,2.7486,2.7299,2.6521,2.6117,2.609,2.6859,2.7225,2.7468,2.8127,2.8333,2.8341,2.8335,2.7918,2.7423,2.6887,2.7113,2.7113,2.6186,2.5765,2.5554,2.5618,2.5284,2.4887,2.4582,2.496,0.0,2.5636,2.5285,2.5165,2.5613,2.4389,2.323,2.2444,2.0183,1.9174,2.0037,1.977,1.9446,1.9073,1.9713,1.9364,1.7784,1.9031,1.8222,1.515,0.0,0.0,0.0,0.0,0.0,0.0,0.0,0.0,0.0,0.0,0.0,0.0,0.0,0.0,0.0,0.0,0.0,0.0,0.0,0.0,0.0,0.0,2.1479,2.1625,2.2375,2.3042,2.3341,2.4181,2.4747,2.4747,2.5028,2.5167,2.504,2.5281,2.5515,2.582,2.654,2.6971,2.6971,2.7269,2.7404,2.7367,2.7443,2.7443,2.7327,2.7178,2.7218,2.7385,2.7175,2.7261,2.7565,2.7659,2.7777,2.794,2.8025,2.8118,2.8163,2.8154,2.8173,2.8219,2.818,2.8227,2.8268,2.8309,2.8546,2.8734,2.835,2.8202,2.8157,2.7873,2.7199,2.6597,2.6872,2.6428,2.5906,2.6056,2.6487,2.6856,2.6757,2.6676,2.6641,2.6578,2.6681,2.6662,2.6347,2.6138,2.5998,2.5913,2.5445,2.513,2.5195,2.4914,2.4777,2.5074,2.4814,2.4687,2.5069,2.482,2.4431,2.4069,2.3362,2.2134,2.021,2.1336,2.1341,1.9786,2.1163,2.0823,1.8409,1.7956,1.6519,0.0,0.0,0.0,0.0,0.0,0.0,0.0,0.0,0.0,0.0,0.0,0.0,0.0,0.0,0.0,0.0,0.0,0.0,0.0,0.0,0.0,0.0,2.1493,2.1456,2.1551,2.2552,2.3303,2.3439,2.431,2.4993,2.5291,2.5363,2.5531,2.5786,2.591,2.6164,2.6583,2.7049,2.7282,2.7233,2.7301,2.731,2.7241,2.731,2.7301,2.7256,2.7178,2.7241,2.743,2.731,2.7417,2.7689,2.7844,2.7931,2.8042,2.8163,2.8191,2.8182,0.0,0.0,0.0,0.0,2.7996,2.8145,2.8087,2.8347,2.8662,2.8637,2.8361,2.8039,2.7945,2.7234,2.6472,2.6702,2.6364,2.5974,2.6168,2.6533,2.6895,2.6883,2.6918,2.679,2.6247,2.6616,2.6861,2.6098,2.6126,0.0,2.6556,2.5754,2.5018,2.4925,2.4781,2.4775,2.5135,2.4893,2.4891,2.5446,2.4988,2.4566,2.4324,2.3268,0.0,0.0,0.0,2.0896,1.9789,2.0079,0.0,0.0,0.0,1.6565,1.5624,1.7498,0.0,0.0,1.6958,1.71,0.0,0.0,0.0,0.0,0.0,0.0,0.0,0.0,0.0,0.0,0.0,0.0,0.0,0.0,0.0,0.0,2.158,2.151,2.1828,2.2427,2.3061,2.3712,2.4001,2.4671,2.6092,2.5419,2.5516,2.6935,2.6516,2.6518,2.7224,0.0,0.0,0.0,0.0,2.7079,2.7048,2.7111,2.7135,2.7135,2.7233,2.7367,2.7496,2.7487,2.763,2.7847,2.7968,2.8042,2.8126,2.8182,2.8209,2.8237,2.809,2.809,2.8056,2.7362,2.7251,2.7461,2.7369,0.0,0.0,2.8603,2.8055,2.7359,2.7184,2.646,2.5812,2.623,2.6388,2.6556,2.7011,2.7299,2.7522,2.7606,2.7633,2.7225,2.5773,2.6641,2.7188,2.5542,2.5838,2.649,2.7011,2.5924,2.4877,2.4531,2.4798,2.5167,2.5676,2.5411,2.5464,2.6201,2.5255,0.0,2.4155,2.1935,2.057,2.0712,1.9934,1.9545,1.9702,1.8448,1.7598,1.7231,1.7697,1.8276,1.9024,2.0886,2.2263,2.2991,1.8867,1.881,0.0,0.0,0.0,0.0,0.0,0.0,0.0,0.0,0.0,0.0,0.0,0.0,0.0,0.0,0.0,2.14,2.1794,2.1955,2.1759,2.2427,2.3164,2.3737,2.482,2.5598,2.5787,2.608,2.6354,2.6683,2.6797,2.6886,2.704,2.6883,2.6883,2.7007,2.707,2.7152,2.7227,2.7313,2.7305,2.725,2.7184,0.0,2.7587,2.7518,2.7707,2.8025,2.8071,2.8126,2.8191,2.8255,2.838,2.8519,2.8389,2.8353,2.8405,2.8304,2.8343,2.8418,2.8352,2.8591,2.8744,2.7741,2.741,2.7224,2.6281,2.5347,0.0,2.4708,2.4494,2.4242,2.4284,2.5214,2.6007,2.5416,2.5973,2.6312,2.4927,2.5505,2.6006,2.5018,2.5419,2.58,2.5368,2.5077,2.5379,2.6716,2.5794,2.5333,2.6509,2.6044,2.5754,2.6176,2.655,2.6623,2.6242,2.5449,2.4521,2.3499,2.2346,2.162,2.151,2.2438,2.2576,2.1771,2.2547,2.256,2.1689,2.3067,2.3753,2.3728,2.399,2.3965,0.0,0.0,0.0,0.0,0.0,0.0,0.0,0.0,0.0,0.0,0.0,2.0276,0.0,0.0,2.1508,2.2095,2.2153,2.2106,2.2049,2.2557,2.3164,2.3703,2.4747,2.5543,2.5913,2.6233,2.6443,2.6496,2.6767,2.6942,2.6916,2.6899,2.694,2.7055,2.716,2.7192,2.7192,2.7336,2.7376,2.7353,2.7319,2.7408,2.7659,2.7736,2.7891,2.8154,2.8173,2.8031,2.7717,2.7399,2.7319,2.7441,2.7368,2.7847,2.8594,2.8628,2.8653,2.8653,2.8653,2.8728,2.864,2.7668,2.7133,2.6656,2.561,2.4922,2.4454,2.426,2.4356,2.4458,2.4345,2.4962,2.5545,2.5138,2.5638,2.593,2.4908,2.5481,2.5959,2.5166,2.5315,2.5636,2.5722,2.5157,2.5039,2.6061,2.5856,2.592,2.6841,2.6329,2.6321,2.739,2.7258,2.7065,2.7021,2.5923,2.4885,2.3997,2.3324,2.2927,2.2905,2.3539,2.381,2.3648,2.3358,2.3322,2.3545,2.3576,2.385,2.4363,2.5279,2.4931,0.0,0.0,0.0,0.0,0.0,0.0,0.0,0.0,1.9954,2.0683,2.0588,2.0838,2.2334,2.2218,2.2092,2.2793,2.2466,2.215,2.2304,2.2589,2.2988,2.3506,2.4396,2.5263,2.6129,2.6347,2.6418,2.6521,2.6817,2.6949,2.6906,2.7053,2.7126,2.7149,2.7118,2.7118,2.719,2.7203,2.7282,2.7407,2.7496,2.7521,2.754,2.771,2.7779,2.7772,2.7817,2.7528,2.7,2.6423,2.6245,2.6354,2.6531,2.7354,2.8449,2.8303,2.8215,2.8175,2.824,2.8249,2.8079,2.7323,2.6609,2.5869,2.4901,2.4512,2.4361,2.404,2.4541,2.5181,2.5018,2.5251,2.55,2.5358,2.5566,2.5614,2.4954,2.5488,2.5919,2.5287,2.5374,2.5773,2.6505,2.5792,2.514,2.5178,2.5816,2.6444,2.693,2.6593,2.6847,2.8239,2.7504,2.6919,2.6962,2.5695,2.4566,2.3747,2.3929,2.404,2.3943,2.3832,2.3997,2.4473,2.3234,2.3286,2.4719,2.3749,2.383,2.4871,2.5152,2.4442,1.8702,1.9225,1.9714,1.9903,2.0633,2.1266,0.0,0.0,2.0493,2.118,2.0597,2.0444,2.1973,2.2014,2.1962,2.2468,2.2543,2.2426,2.2084,2.2231,2.2576,2.3084,2.4306,2.5418,2.6193,2.6556,2.6791,2.6932,2.7132,2.7241,2.7232,2.7204,2.7204,2.7272,2.671,2.674,2.7457,2.6821,2.685,2.7496,2.763,2.7388,2.6913,2.7059,2.6799,2.6236,2.6186,2.6157,2.615,2.6175,2.6277,2.6457,2.7308,2.7638,2.7564,2.6895,2.6609,2.6586,2.6695,2.6743,2.6565,2.5538,2.519,2.4941,2.3823,2.3469,2.3436,2.3389,2.3936,2.4528,2.4562,2.5092,2.5427,2.4831,2.4868,2.4873,2.4242,2.4423,2.4718,2.4678,2.5451,2.6165,2.632,2.6901,2.7162,2.6654,2.6358,2.6394,2.6921,2.7056,2.7023,2.6857,2.7142,2.7008,2.6197,2.6701,2.6089,2.3848,2.4981,2.5347,2.4451,2.4855,2.509,2.5099,2.4813,2.4707,2.4788,2.4651,2.4778,2.5159,2.5185,2.4439,1.8645,1.9237,0.0,0.0,2.0684,2.1327,2.1229,2.1036,2.1066,2.1738,2.1494,2.1481,2.2432,2.248,2.2426,0.0,2.2587,2.2525,2.2315,2.236,2.2649,2.3253,2.3865,2.4677,2.5856,2.6153,2.6484,2.6952,2.7178,2.7295,2.7295,2.7391,2.7461,2.7526,2.7297,2.7318,2.768,2.7481,2.7547,2.7853,2.7499,2.7201,2.6934,2.711,2.7266,2.7423,2.7013,2.6814,2.6802,2.6449,2.6358,2.6439,2.683,2.6675,2.6293,2.6918,2.7036,2.6838,2.6545,2.6416,2.6239,2.5311,2.5045,2.4869,2.3845,2.3571,2.3589,2.3637,2.3958,2.4287,2.4317,2.4609,2.4836,2.455,2.5058,2.5541,2.5329,2.5488,2.5812,2.6352,2.6381,2.65,2.7072,2.7467,2.7628,2.7418,2.7239,2.7209,2.7444,2.7065,2.6753,2.6668,2.6823,2.6787,2.644,2.6191,2.5646,2.4687,2.4938,2.4993,2.469,2.47,2.4762,2.4845,2.4402,2.4199,2.422,2.4258,2.3925,2.3285,2.3243,2.1826,1.9119,0.0,0.0,2.0524,2.1138,2.1722,2.1747,2.1619,2.1661,2.2317,2.2277,2.232,2.2838,2.291,2.2859,2.2685,2.2659,2.2659,2.2632,2.2587,2.273,2.3316,2.3431,2.393,2.5248,2.5816,2.6312,2.6909,2.7335,2.7586,2.7556,2.771,2.7836,2.7876,2.772,2.7703,2.7904,2.7859,2.7932,2.8145,2.7683,2.7351,2.7118,2.7069,2.735,2.7881,2.7374,2.7153,2.7051,2.6572,2.6253,2.6124,2.6352,2.5993,2.5459,2.6683,2.6817,2.6363,2.5938,2.5728,2.5554,2.5008,2.4835,2.4687,2.409,2.4087,2.4304,2.4373,2.4681,2.4939,2.4704,2.4926,2.5149,2.4938,2.554,2.6245,2.6576,2.6573,2.6776,2.7699,2.7475,2.7355,2.8024,2.8261,2.8291,2.8083,2.8034,2.7878,2.749,2.6659,2.6152,2.6247,2.6217,2.6201,2.6227,2.5667,2.5139,2.4716,2.4619,2.4446,2.4143,2.4005,2.3884,2.3776,2.3307,2.2923,2.2609,2.3021,2.2489,2.1113,2.093,1.9231,0.0,0.0,2.2221,2.223,2.2736,2.3218,2.3162,2.2631,2.234,2.2966,2.2658,2.2447,2.2912,2.3086,2.3086,2.2842,2.2859,2.291,2.2995,2.2764,2.272,2.3071,2.3054,2.341,0.0,2.5781,2.6641,2.6779,2.7718,2.8246,2.8191,2.8309,2.8362,2.8291,2.7582,2.752,2.8174,2.7468,2.753,2.8291,2.8335,2.8026,2.7366,2.6718,2.6408,2.6372,2.6354,2.6345,2.6336,2.6309,2.592,2.5422,2.6261,2.6089,2.5424,2.5605,2.5049,2.4203,2.4253,2.4147,2.4001,2.4181,2.4134,2.4078,2.4317,2.4933,2.5554,2.5634,2.6305,2.682,2.5968,2.6481,2.7029,2.6314,2.6228,2.656,2.7547,2.7084,2.6824,2.7876,2.8593,2.9013,2.8968,2.9557,2.972,2.8811,2.8616,2.8083,2.672,2.5721,2.5137,2.5148,2.5151,2.5124,2.506,2.5563,2.5096,2.328,2.4183,2.4088,2.2546,2.2834,2.2615,2.17,2.1731,2.1063,1.9635,2.0879,2.0695,1.9175,1.8644,1.7433,2.0582,0.0,2.2458,2.2216,2.2816,2.3376,2.3175,2.2996,2.2929,2.3179,2.3115,2.2886,2.2479,2.2909,2.3079,2.2277,2.2678,2.3095,2.3011,2.3067,2.3162,2.3233,2.3373,0.0,0.0,0.0,0.0,2.6341,2.6579,2.6781,2.7001,2.7013,2.6974,2.6916,2.7233,2.7495,2.7657,2.8044,2.839,2.8694,2.8206,2.7903,2.772,2.7459,2.761,2.8054,2.7532,2.7306,2.727,2.6768,2.6425,2.6256,2.6552,2.6234,2.5662,2.6247,2.5623,2.4487,2.4418,2.4355,2.4318,2.4386,2.44,2.4508,2.5188,2.5622,2.6001,2.669,2.7144,2.7397,2.7227,2.7478,2.771,2.7517,2.7952,2.8517,2.8846,2.8702,2.8559,2.8789,2.8902,2.8877,2.8591,2.8998,2.8834,2.7224,2.7028,2.6811,2.6129,2.5332,2.4778,2.4599,2.4369,2.4257,2.4261,2.4173,2.3896,2.3403,2.3394,2.3014,2.216,2.1359,2.0701,2.0146,1.8587,1.7577,1.7171,1.6978,1.5658,1.3323,1.3403,1.1677,2.1456,2.2217,2.2935,2.2669,2.2989,2.3368,2.3268,2.3026,2.2864,2.2953,2.3075,2.2936,2.23,2.2718,2.2999,2.253,2.2721,2.2927,2.2936,2.3245,2.34,2.3208,2.356,2.3906,0.0,0.0,0.0,2.5847,2.6082,2.6254,2.6397,2.6371,2.6367,2.6349,2.6895,2.7169,2.7137,2.7757,2.8082,2.8149,2.7702,2.7495,2.7546,2.7516,2.7791,2.8261,2.774,2.752,2.7483,2.6994,2.6655,2.6414,2.6414,2.5993,2.5485,2.6017,2.5643,2.4842,2.4935,2.48,2.4576,2.4619,2.4661,2.4837,2.5494,2.6146,2.6819,2.7491,2.8134,2.8594,2.8383,2.8614,2.8817,2.8532,2.8947,2.942,2.9365,2.9382,2.9308,2.9039,2.9058,2.8902,2.8205,2.7901,2.7196,2.5533,2.5289,2.5239,2.5041,2.4612,2.4295,2.4176,2.3933,2.3731,2.3585,2.3104,2.262,2.213,2.1825,2.1261,2.039,1.9597,1.8585,1.737,1.5869,1.4497,1.3286,1.4008,1.2263,0.8306,0.8266,0.64,2.338,2.3753,2.3692,2.3544,2.3341,2.3257,2.3477,2.2839,2.2269,2.2443,2.2625,2.2683,0.0,0.0,2.2951,2.3503,2.3027,2.2649,2.284,2.3297,2.3442,0.0,0.0,0.0,0.0,0.0,0.0,2.5328,0.0,2.651,2.6315,2.6374,2.642,2.6503,2.6539,2.6587,2.6656,2.6693,2.676,2.6819,2.6878,2.6926,2.6926,2.6972,2.7,2.7,2.6981,2.6953,2.6953,2.6906,2.65,2.5843,2.5863,2.5474,2.4915,2.504,2.5088,2.5175,2.5661,2.5355,2.4752,2.4883,2.4957,2.5047,2.5346,2.6629,2.7999,2.8104,2.9284,3.0296,2.9387,2.9824,3.0263,2.9351,2.924,2.9304,2.9146,2.9182,2.9089,2.8579,2.8874,2.8874,2.7779,2.6356,2.5024,2.3944,2.3538,2.3388,2.3517,2.3595,2.3663,2.3794,2.3744,2.3482,2.2968,2.2356,2.1301,1.9646,1.9556,1.8883,1.7437,1.7551,1.6431,1.3898,1.384,1.2082,0.8571,1.1859,1.038,0.4367,0.3505,0.1864,2.1968,2.3028,2.399,2.3714,2.3386,2.3222,2.362,2.3088,2.2711,2.344,2.3628,2.3534,0.0,0.0,0.0,2.3354,2.3473,0.0,2.3897,2.3617,0.0,2.3294,0.0,2.3106,2.3853,2.3922,0.0,0.0,2.4987,2.4975,2.5128,2.5093,2.5085,2.5103,2.5643,2.595,2.595,2.6656,2.7009,2.7027,2.7091,2.7118,2.7118,2.7151,2.7159,2.7122,2.6559,2.6334,2.6287,2.5745,2.5399,2.5228,2.5288,2.5203,2.5144,2.5851,2.5748,2.536,2.6135,2.5849,2.5157,2.5241,2.5717,2.6388,2.709,2.811,2.9146,2.9755,3.0235,3.0468,3.0026,3.0096,3.0155,2.9658,2.9765,2.9846,2.9419,2.9528,2.9173,2.732,2.6123,2.5591,2.6185,2.4769,2.3595,2.3719,2.2422,2.1724,2.2591,2.2591,2.2539,2.2609,2.2468,2.2281,2.1975,2.1077,2.004,1.8924,1.7984,1.7319,1.7027,1.5988,1.5501,1.5645,1.3697,1.2036,1.0718,0.8834,0.6223,0.2861,0.0825,-0.1051,2.1686,2.2648,2.3548,2.3041,2.2658,2.2536,2.2923,2.2639,2.2474,2.3077,2.3508,0.0,0.0,0.0,0.0,0.0,0.0,0.0,2.2911,2.3253,2.3365,0.0,2.3386,0.0,2.4397,2.4108,2.4231,0.0,2.4816,2.4644,2.4736,2.4749,2.4734,2.4734,2.5155,2.539,2.539,2.5926,2.6167,2.6142,2.6198,2.6217,2.6196,2.6254,2.6244,2.618,2.583,2.5636,2.5584,2.5199,2.5272,2.5614,2.5728,2.576,2.5829,2.642,2.6091,2.5423,2.5938,2.5795,2.5385,2.5429,2.5776,2.6326,2.7174,2.8117,2.9041,2.9848,2.9969,2.9831,2.974,2.9317,2.8878,2.8682,2.8686,2.8507,2.7718,2.7869,2.766,2.6013,2.4401,2.3494,2.4029,2.3039,2.2099,2.1848,2.1031,2.0646,2.1163,2.1417,2.1678,2.1952,2.1728,2.1411,2.1069,2.0141,1.9241,1.8356,1.7296,1.6504,1.6119,1.516,1.4502,1.4239,1.2541,1.0956,0.9595,0.7723,0.5393,0.2706,-0.0055,-0.1998,2.1788,2.233,2.2713,2.2071,2.1712,2.1596,2.1817,2.1823,2.1829,2.2028,0.0,2.3262,2.2477,2.2537,2.2716,2.2675,0.0,2.1667,2.1567,2.2734,2.3295,2.2556,2.3813,2.4803,2.4982,2.4424,2.4396,2.5263,2.5152,2.5,2.4854,2.491,2.4932,2.4906,2.4983,2.5015,2.5015,2.5015,2.4983,2.4938,2.4981,2.4977,2.4935,2.5054,2.5098,2.5106,2.5218,2.5228,2.5185,2.5389,2.5834,2.6427,2.6574,2.6698,2.6803,2.68,2.6352,2.5754,2.5699,2.5689,2.5676,2.5535,2.558,2.5826,2.651,2.742,2.8342,2.9031,2.9016,2.8776,2.8841,2.8057,2.7217,2.7135,2.6892,2.6386,2.5342,2.5279,2.5249,2.4566,2.3182,2.2086,2.1905,2.1319,2.0565,1.9619,1.9629,1.9693,1.958,2.0229,2.0887,2.1447,2.1186,2.0742,2.0159,1.9337,1.8429,1.7565,1.6634,1.5752,1.4863,1.4538,1.3617,1.205,1.1314,0.9957,0.7792,0.7756,0.624,0.3436,-0.0054,-0.2006,2.0793,2.1492,2.221,2.2021,2.1577,2.1171,2.1183,2.1164,0.0,0.0,0.0,2.3497,2.3503,2.3994,0.0,2.4584,0.0,0.0,0.0,0.0,2.2667,0.0,0.0,0.0,0.0,0.0,0.0,0.0,2.5423,2.5331,2.5139,2.5149,2.5103,2.4994,2.5057,2.5076,2.5079,2.5076,2.5079,2.5066,2.5077,2.5077,2.5076,2.5091,2.5482,2.6136,2.6158,2.6146,2.6139,2.7039,2.7054,2.6504,2.6685,2.7203,2.7755,2.7065,2.7151,2.7536,2.6883,2.6661,2.6534,2.5744,2.6013,2.6683,2.6815,2.7485,2.8222,2.8302,2.8194,2.8006,2.7693,2.7251,2.6767,2.6315,2.6132,2.5813,2.4898,2.3866,2.3004,2.2653,2.1543,2.078,2.1205,2.0153,1.9432,1.9749,1.8639,1.8043,1.8767,1.928,1.9818,2.0485,2.0442,2.0028,1.9214,1.8114,1.6836,1.5449,1.3941,1.3275,1.3501,1.3022,1.314,1.4052,1.272,1.1626,1.0735,0.8034,0.5975,0.4407,-0.0389,-0.2784,2.0233,2.0793,2.1414,2.0928,2.0613,2.0534,2.0963,0.0,0.0,0.0,0.0,2.3781,2.389,0.0,0.0,0.0,0.0,0.0,0.0,0.0,0.0,0.0,0.0,0.0,0.0,0.0,0.0,2.5536,2.5153,2.5022,2.534,2.532,2.5284,2.5254,2.5263,2.5262,2.5261,2.5262,2.5241,2.52,2.5232,2.5221,2.5145,2.522,2.5449,2.5803,2.6291,2.6475,2.6485,2.7489,2.7661,2.7302,2.7457,2.778,2.81,2.7679,2.7787,2.8037,2.7235,2.6947,2.6797,2.5895,2.5909,2.6356,2.6731,2.7136,2.7544,2.7846,2.7447,2.685,2.6539,2.5799,2.5043,2.4644,2.4175,2.3611,2.284,2.1989,2.1297,2.1051,2.021,1.9596,1.9767,1.9018,1.8356,1.8317,1.7745,1.7414,1.7585,1.7906,1.85,1.9456,1.9273,1.888,1.8436,1.7322,1.6218,1.5151,1.3284,1.2349,1.2788,1.1809,1.1786,1.2926,1.1751,1.086,1.0402,0.825,0.6879,0.6121,0.1759,-0.0385,1.9988,2.0236,2.0603,1.9901,1.9794,1.9979,2.049,2.0897,0.0,0.0,2.3332,2.3755,2.3756,0.0,0.0,0.0,0.0,0.0,0.0,0.0,0.0,0.0,0.0,0.0,0.0,0.0,0.0,2.5624,2.5008,2.4866,2.5489,2.5464,2.5444,2.55,2.5455,2.5412,2.5405,2.5414,2.5396,2.5313,2.5369,2.5341,2.5253,2.5524,2.5677,2.5803,2.6693,2.7073,2.7103,2.8077,2.8397,2.8286,2.8433,2.8592,2.8734,2.8544,2.8598,2.8608,2.7612,2.7251,2.7059,2.6,2.5658,2.5771,2.6346,2.648,2.6549,2.7065,2.6484,2.562,2.534,2.4354,2.3334,2.2909,2.2192,2.1458,2.091,2.0398,1.9977,1.9711,1.9035,1.8468,1.8351,1.7969,1.7454,1.6928,1.6996,1.6947,1.6606,1.6544,1.6934,1.7997,1.794,1.7747,1.7531,1.6384,1.5354,1.453,1.2506,1.1336,1.1392,1.0489,1.0295,1.0877,1.0187,0.9629,0.9162,0.8122,0.7371,0.6811,0.3544,0.1633,2.012,1.9932,1.9983,1.9896,1.9934,1.9808,1.9164,0.0,0.0,1.9571,2.1299,2.2933,2.2996,0.0,0.0,0.0,0.0,2.4724,0.0,0.0,0.0,0.0,0.0,0.0,0.0,0.0,0.0,2.5597,2.5593,2.5582,2.5586,2.5526,2.5485,2.5506,2.5492,2.5456,2.5404,2.5455,2.5464,2.5396,2.5401,2.5392,2.5407,2.609,2.6814,2.7593,2.8355,2.872,2.8846,2.991,2.9893,2.9186,2.9332,2.9858,3.047,2.9674,2.9878,3.0322,2.8662,2.8047,2.7723,2.6059,2.5525,2.5528,2.5598,2.5449,2.5273,2.533,2.5006,2.4512,2.4016,2.3378,2.2643,2.1757,2.1118,2.0689,2.0504,1.9851,1.9155,1.865,1.8047,1.7598,1.7516,1.7137,1.685,1.6954,1.6472,1.6207,1.6472,1.5614,1.5161,1.56,1.6553,1.6941,1.6318,1.4727,1.3196,1.1949,1.0159,0.8837,0.8089,0.8654,0.914,0.9328,0.9263,0.8971,0.8406,0.7253,0.6126,0.4924,0.242,0.0659,2.0011,1.99,1.9894,1.9851,1.9561,1.9459,2.0155,0.0,1.987,2.1053,2.2134,2.3023,2.3579,2.4258,0.0,0.0,0.0,0.0,0.0,0.0,0.0,0.0,0.0,0.0,0.0,0.0,2.5444,2.5479,2.5543,2.5548,2.5482,2.5527,2.5561,2.5564,2.5563,2.5551,2.5517,2.5547,2.5523,2.5454,2.5461,2.5456,2.5474,2.5753,2.6371,2.7209,2.747,2.7904,2.8528,2.9491,2.9392,2.87,2.9271,2.9708,2.9976,2.9635,2.9718,2.984,2.8583,2.7784,2.7101,2.5796,2.5298,2.5207,2.5289,2.5129,2.489,2.4722,2.4482,2.4081,2.3352,2.2548,2.1807,2.1237,2.0697,2.0189,1.9808,1.9155,1.857,1.8312,1.7875,1.7434,1.7214,1.6866,1.6392,1.5732,1.5561,1.5377,1.492,1.4584,1.4389,1.4418,1.4841,1.4964,1.4466,1.3512,1.2416,1.116,0.9431,0.8296,0.7796,0.7052,0.711,0.8137,0.7466,0.7093,0.6916,0.607,0.4988,0.3562,0.2216,0.0829,2.0407,2.0494,2.0657,2.0611,2.0267,2.0202,0.0,0.0,2.0273,2.1777,2.2332,2.2737,2.3374,2.3955,2.4294,2.4207,0.0,2.3522,0.0,0.0,0.0,0.0,0.0,0.0,0.0,0.0,2.5325,2.531,2.537,2.5395,2.5369,2.5464,2.554,2.5603,2.5603,2.5604,2.56,2.562,2.573,2.591,2.5651,2.5799,2.6291,2.6008,2.6343,2.7154,2.7102,2.7466,2.8136,2.9046,2.9099,2.8671,2.9545,2.9898,2.9911,2.989,2.9723,2.9403,2.8678,2.7847,2.6964,2.5929,2.545,2.5235,2.507,2.4853,2.4629,2.4376,2.392,2.3321,2.2505,2.1648,2.0934,2.0656,2.0139,1.9645,1.9332,1.8741,1.8226,1.8049,1.7598,1.7131,1.6788,1.6478,1.6033,1.5147,1.5147,1.5011,1.4288,1.3962,1.3768,1.3584,1.3369,1.329,1.3323,1.2561,1.158,1.0527,0.8729,0.7426,0.687,0.5903,0.5799,0.6779,0.6237,0.5858,0.5797,0.5103,0.4121,0.2739,0.2119,0.0501,2.1519,2.1871,2.2469,2.2469,2.2567,2.2441,0.0,0.0,2.1353,2.0582,2.1111,2.174,2.1813,2.3236,2.4359,2.4221,2.4248,0.0,0.0,0.0,0.0,0.0,0.0,0.0,0.0,2.5438,2.5321,2.5117,2.5175,0.0,2.5306,2.5303,2.5393,2.5586,2.5598,2.5602,2.5596,2.5673,2.6103,2.6882,2.6016,2.6498,2.814,2.7208,2.723,2.7991,2.7991,2.7991,2.8085,2.9077,2.9488,2.9575,3.0449,3.0827,3.0879,3.0809,3.0244,2.9469,2.9261,2.8628,2.7705,2.6632,2.6109,2.5731,2.4867,2.4508,2.4353,2.4155,2.3141,2.1978,2.1303,2.0581,1.999,1.9831,1.9339,1.8968,1.9169,1.8724,1.818,1.7713,1.7111,1.6546,1.6076,1.5768,1.5629,1.5794,1.5567,1.5305,1.5102,1.3972,1.3165,1.3016,1.225,1.2197,1.3321,1.1733,1.0412,0.9745,0.765,0.581,0.4496,0.5429,0.5699,0.514,0.5855,0.5912,0.5314,0.4512,0.3523,0.2409,0.1964,-0.0727,2.1272,2.1589,2.1828,2.1865,2.15,2.1061,2.0783,0.0,2.0064,2.04,2.1162,2.1767,2.1801,2.2736,2.3476,2.3388,2.3359,0.0,0.0,0.0,0.0,0.0,0.0,0.0,0.0,0.0,2.5233,2.5804,2.5355,2.5028,2.4957,2.5605,2.5822,2.5466,2.5511,2.5545,2.5595,2.5617,2.6061,2.6899,2.6622,2.7093,2.8193,2.7894,2.8222,2.8997,2.8403,2.8446,2.8996,2.9348,2.9496,2.9586,3.0459,3.0806,3.0831,3.0813,2.9869,2.858,2.8328,2.7246,2.5917,2.5433,2.494,2.4487,2.422,2.3955,2.3611,2.2772,2.195,2.1233,2.0692,2.0193,1.9811,1.958,1.9177,1.8769,1.8454,1.8002,1.7577,1.7269,1.6983,1.6699,1.6231,1.5824,1.5412,1.4915,1.4593,1.4408,1.4247,1.3868,1.3632,1.3616,1.3379,1.3039,1.2599,1.1984,1.1319,1.0747,0.9515,0.8118,0.6599,0.6185,0.5871,0.5599,0.5218,0.4778,0.4275,0.3398,0.2178,0.0616,-0.067,-0.2122,0.0,2.1646,2.1959,2.2002,2.1678,0.0,0.0,0.0,2.0243,2.0455,2.0928,2.1308,2.1306,2.1922,2.2526,0.0,0.0,0.0,0.0,0.0,0.0,0.0,0.0,0.0,0.0,2.5102,2.5059,2.5484,2.5083,2.4931,2.5205,2.5522,2.5847,2.6178,2.6273,2.6362,2.6468,2.6496,2.6958,2.7837,2.7541,2.8015,2.916,2.8495,2.8675,2.9447,2.8584,2.8472,0.0,2.934,2.949,2.9549,3.0415,3.0759,3.0765,3.0791,2.9897,2.8644,2.8383,2.7486,2.6317,2.5471,2.456,2.3819,2.3818,2.344,2.2761,2.1814,2.1155,2.0624,2.0116,1.9702,1.9354,1.9006,1.8647,1.8286,1.7955,1.7652,1.7378,1.715,1.6983,1.6699,1.6225,1.5824,1.5367,1.4737,1.4518,1.4373,1.4299,1.4236,1.422,1.4261,1.4006,1.3572,1.2864,1.2397,1.1944,1.144,1.0375,0.9086,0.7729,0.684,0.6093,0.55,0.4897,0.4291,0.3737,0.189,0.039,-0.0841,-0.307,-0.4072,0.0,0.0,0.0,0.0,0.0,0.0,0.0,0.0,0.0,0.0,2.0545,2.0591,2.0591,2.1068,2.1777,0.0,0.0,0.0,0.0,0.0,0.0,0.0,0.0,0.0,2.4458,2.4774,2.4913,2.467,2.465,2.5038,2.5898,2.5312,2.5756,2.749,2.7742,2.7871,2.7893,2.7962,2.8463,2.9377,2.8642,2.9162,3.0742,2.9117,2.8818,2.9531,2.8726,2.8337,2.8349,2.9226,2.9553,2.9568,3.0383,3.0697,3.0706,3.0757,3.0231,2.943,2.9084,2.8798,2.8284,2.6394,2.4888,2.3795,2.3762,2.2982,2.1975,2.1358,2.0732,2.0143,1.9536,1.9072,1.8662,1.8192,1.7875,1.7672,1.7645,1.7509,1.738,1.7229,1.6944,1.6533,1.6032,1.5641,1.5334,1.5057,1.5062,1.5062,1.5062,1.5028,1.4949,1.5,1.4355,1.3948,1.3948,1.299,1.2256,1.1868,1.0379,0.9054,0.8053,0.7441,0.6423,0.4952,0.4615,0.4067,0.3246,0.0056,-0.1616,-0.1964,-0.4973,-0.6094,2.0318,0.0,2.1881,2.1989,2.2041,0.0,0.0,0.0,0.0,0.0,0.0,2.1477,2.1434,2.2358,2.3302,0.0,0.0,0.0,0.0,0.0,0.0,0.0,0.0,2.5967,2.6378,2.569,2.5755,2.7055,2.6552,2.6236,2.6356,2.6999,2.7577,2.8022,2.8859,2.8853,2.7903,2.7913,2.8389,2.9319,2.9123,2.9632,3.0709,3.0294,3.0199,3.0331,3.0183,3.0099,3.0106,3.0382,3.0447,3.0414,3.0623,3.0701,3.0701,3.0652,3.0062,2.9122,2.8073,2.7609,2.7274,2.6058,2.5321,2.4822,2.4309,2.3257,2.22,2.1892,2.1041,2.0054,1.942,1.8898,1.8457,1.7908,1.7632,1.7406,1.7157,1.6801,1.6533,1.6324,1.6008,1.5605,1.522,1.4909,1.4634,1.4305,1.4507,1.4748,1.4915,1.5215,1.5534,1.5863,1.5572,1.5269,1.5168,1.3663,1.2541,1.2197,1.132,1.0327,0.9374,0.7838,0.6445,0.5208,0.3057,0.1338,0.0167,-0.1002,-0.1951,-0.2685,-0.4346,-0.5242,1.9642,2.0392,2.1072,2.1182,2.1202,2.1081,0.0,0.0,0.0,0.0,0.0,0.0,2.2187,0.0,0.0,0.0,0.0,0.0,0.0,0.0,0.0,0.0,0.0,2.5369,0.0,2.5306,2.5056,2.5923,2.591,2.6038,2.6429,2.7082,2.7843,2.8763,2.9,2.9045,2.8916,2.8938,2.9212,2.9709,2.9777,3.0074,3.0561,3.0553,3.0558,3.0554,3.0629,3.0638,3.0612,3.0683,3.0671,3.0614,3.061,3.0616,3.06,3.0573,3.0228,2.9612,2.8341,2.7375,2.6646,2.6334,2.5755,2.5134,2.5028,2.4118,2.2973,2.2247,2.108,1.9894,1.9376,1.8815,1.8228,1.7598,1.7269,1.6928,1.6411,1.6045,1.5676,1.5347,1.5033,1.4613,1.4021,1.3705,1.3423,1.2821,1.3428,1.3971,1.4084,1.4846,1.5484,1.5674,1.5459,1.5142,1.4741,1.327,1.2346,1.2351,1.1287,1.0144,0.8957,0.7521,0.6108,0.4718,0.2851,0.1264,-0.0056,-0.1206,-0.203,-0.2516,-0.4338,-0.5266,1.9111,1.9773,2.0405,2.0313,2.0394,2.0448,0.0,0.0,0.0,0.0,0.0,0.0,0.0,0.0,0.0,0.0,0.0,0.0,0.0,0.0,0.0,0.0,2.4641,0.0,2.5238,2.4653,2.4248,2.4266,2.4855,2.5628,2.6582,2.6768,2.7623,2.9311,2.8755,2.8918,2.995,3.0075,3.014,3.0155,3.0282,3.0331,3.0353,3.0351,3.0384,3.046,3.0527,3.0519,3.0474,3.0535,3.054,3.0482,3.0461,3.045,3.045,3.0422,3.0324,3.0038,2.8755,2.7261,2.6015,2.671,2.6105,2.5179,2.5746,2.5108,2.3976,2.2831,2.1481,2.0231,1.9707,1.9075,1.8318,1.7461,1.6976,1.649,1.5764,1.532,1.4846,1.419,1.3831,1.3369,1.2426,1.2134,1.1863,1.12,1.2053,1.2849,1.302,1.415,1.4943,1.496,1.461,1.419,1.3651,1.2445,1.1822,1.2041,1.076,0.9305,0.7794,0.6876,0.5596,0.3809,0.3046,0.2026,0.077,-0.1069,-0.2041,-0.222,-0.4491,-0.5449,1.9065,1.9909,2.037,1.9516,1.9871,2.0244,0.0,0.0,0.0,0.0,0.0,0.0,0.0,0.0,0.0,0.0,0.0,0.0,0.0,0.0,0.0,0.0,0.0,2.566,2.5773,2.5482,2.5817,2.7146,2.6846,2.6899,2.7628,2.8112,2.8491,2.8735,2.8883,2.9091,2.9326,2.9687,2.9882,2.995,3.0021,3.0085,3.0144,3.0154,3.018,3.0241,3.0314,3.0349,3.0337,3.04,3.0414,3.0392,3.0292,3.0244,3.0232,3.0046,2.9564,2.8787,2.7444,2.5935,2.4817,2.6206,2.615,2.5597,2.616,2.5596,2.4725,2.4541,2.3659,2.2441,2.1147,2.0438,1.966,1.801,1.7137,1.649,1.5764,1.492,1.3987,1.2849,1.2081,1.1331,1.0343,1.0127,1.0128,1.0202,1.0906,1.1697,1.2556,1.3212,1.3742,1.4193,1.3596,1.3184,1.3114,1.2089,1.1191,1.05,1.0067,0.8982,0.7028,0.6408,0.5044,0.2864,0.2101,0.116,0.0051,-0.1256,-0.2232,-0.2775,-0.3787,-0.4737,1.8495,1.9551,2.0321,1.9388,1.9777,2.0294,0.0,0.0,0.0,0.0,0.0,0.0,0.0,0.0,0.0,0.0,0.0,0.0,0.0,0.0,2.4392,0.0,0.0,2.5561,2.6127,2.5601,2.551,2.6222,2.6422,2.6692,2.7074,2.7788,2.821,2.8156,2.846,2.8576,2.8543,2.8808,2.9157,2.9587,2.9677,2.9755,2.9832,2.9864,2.9924,2.9984,3.0047,3.0083,3.0095,3.0156,3.0095,2.9949,2.9813,2.9661,2.9462,2.9024,2.8475,2.7826,2.6996,2.6022,2.531,2.6213,2.5836,2.5141,2.5573,2.4984,2.4231,2.4712,2.4104,2.3039,2.1932,2.1119,2.0198,1.8641,1.7653,1.6805,1.5922,1.5174,1.4302,1.3132,1.2459,1.1725,1.0687,1.0486,1.0394,0.995,1.0734,1.144,1.1594,1.2385,1.2986,1.3198,1.3087,1.2943,1.2929,1.1882,1.0871,1.0016,0.9095,0.8098,0.6997,0.6474,0.5451,0.3894,0.3192,0.2285,0.1114,-0.0318,-0.1338,-0.1961,-0.3264,-0.4322,1.7937,1.9052,2.0038,1.9594,0.0,0.0,0.0,0.0,0.0,0.0,0.0,0.0,0.0,0.0,0.0,0.0,0.0,0.0,0.0,2.3801,2.4134,2.5953,2.5515,2.5365,2.6134,2.554,2.5172,2.53,2.5807,2.62,2.6437,2.7185,2.7613,2.7555,2.7822,2.7884,2.7771,2.7883,2.8315,2.9095,2.924,2.9339,2.9446,2.9541,2.9622,2.9688,2.9678,2.9671,2.9719,2.9671,2.9551,2.9349,2.9181,2.8924,2.8571,2.7923,2.7381,2.6856,2.6368,2.5742,2.5248,2.582,2.5133,2.4188,2.4745,2.4223,2.3584,2.4286,2.4113,2.3535,2.2867,2.2071,2.1086,1.9975,1.8662,1.7496,1.687,1.5949,1.4926,1.3836,1.3085,1.2363,1.1323,1.1255,1.1132,1.0573,1.1339,1.1863,1.1713,1.2358,1.2783,1.2754,1.2876,1.2871,1.2613,1.1481,1.0553,1.0017,0.8768,0.7838,0.725,0.6879,0.6114,0.488,0.4302,0.3388,0.2125,0.0589,-0.0538,-0.1271,-0.2892,-0.4015,1.7784,1.8542,1.9302,2.0109,2.0314,0.0,0.0,0.0,0.0,0.0,0.0,0.0,0.0,0.0,0.0,0.0,0.0,0.0,2.5922,0.0,2.4011,2.5889,2.5717,2.5526,2.5624,2.5483,2.5696,2.6513,2.6044,2.5993,2.6556,2.6888,2.6985,2.6896,2.7069,2.7129,2.7063,2.7141,2.7595,2.847,2.8599,2.8776,2.8966,2.916,2.9263,2.9317,2.9073,2.9045,2.9139,2.8764,2.8623,2.8651,2.8394,2.8126,2.779,2.705,2.6372,2.5709,2.4998,2.3943,2.3146,2.4399,2.3816,2.2792,2.4058,2.3879,2.3261,2.3535,2.4207,2.4831,2.4568,2.396,2.3201,2.2484,2.0452,1.8811,1.9257,1.7523,1.5614,1.4457,1.3154,1.1958,1.1157,1.1368,1.1861,1.2397,1.2797,1.3302,1.4135,1.375,1.3475,1.3521,1.312,1.2536,1.1769,1.0528,1.0,1.0525,0.985,0.8908,0.772,0.7522,0.6614,0.4825,0.4312,0.3382,0.1926,0.0733,-0.0426,-0.16,-0.2644,-0.363,1.7706,1.8518,1.9331,2.0189,0.0,0.0,0.0,0.0,0.0,0.0,0.0,0.0,0.0,0.0,0.0,0.0,0.0,2.3379,2.4555,2.4359,2.4511,2.5618,2.5999,2.6101,2.5923,2.5819,2.5874,2.606,2.5837,2.5804,2.6049,2.6043,2.6019,2.5928,2.6133,2.6412,2.6809,2.6491,2.6986,2.8348,2.8469,2.8596,2.871,2.8829,2.8658,2.8237,2.8097,2.8069,2.8157,2.7958,2.7796,2.7634,2.7215,2.6927,2.6633,2.6173,2.5832,2.5507,2.5103,2.4443,2.3907,2.4749,2.3727,2.2382,2.3219,2.2591,2.179,2.2443,2.3353,2.4154,2.4247,2.3916,2.3552,2.3282,2.1823,2.0599,2.1102,2.0413,1.9464,1.8726,1.7874,1.7086,1.6336,1.6085,1.5967,1.5822,1.5511,1.5305,1.5395,1.4768,1.415,1.3721,1.2948,1.2134,1.1244,1.0784,1.0358,0.9822,0.922,0.8529,0.7741,0.75,0.6662,0.5125,0.4809,0.4095,0.2969,0.0916,-0.0651,-0.1754,-0.2858,-0.3956,1.7601,1.8255,1.8904,0.0,0.0,0.0,0.0,0.0,0.0,0.0,0.0,0.0,0.0,0.0,0.0,0.0,2.3232,2.318,2.3973,2.4423,2.4839,2.5312,2.6008,2.6304,2.5969,2.5848,2.5717,2.5626,2.5589,2.5543,2.5505,2.5368,2.5283,2.5222,2.5307,2.5579,2.6029,2.5881,2.6497,2.7842,2.8177,2.8297,2.8207,2.858,2.8178,2.7125,2.7296,2.7291,2.7138,2.699,2.6787,2.6531,2.6147,2.5876,2.5664,2.5415,2.5221,2.5038,2.4802,2.4371,2.3998,2.446,2.3312,2.1815,2.2433,2.1599,2.0603,2.1305,2.2441,2.3482,2.3777,2.4,2.4232,2.4564,2.342,2.2431,2.3106,2.2705,2.2076,2.1547,2.0738,1.9845,1.8869,1.8689,1.8444,1.7737,1.7543,1.7355,1.6932,1.6031,1.5071,1.4136,1.3102,1.2197,1.1602,1.115,1.0545,0.9707,0.8842,0.8158,0.7638,0.7256,0.6345,0.4838,0.4527,0.3808,0.2818,0.0591,-0.0968,-0.1806,-0.299,-0.408,1.7411,1.7652,0.0,0.0,0.0,0.0,0.0,0.0,0.0,0.0,0.0,0.0,0.0,0.0,0.0,2.3867,2.3633,2.3766,2.4752,2.4854,2.4883,2.5063,2.562,2.5901,2.5605,2.544,2.5325,2.5386,2.5285,2.5153,2.5099,2.4958,2.4871,2.4775,2.4662,2.4597,2.4605,2.5383,2.618,2.6926,2.7635,2.7742,2.7353,2.8397,2.787,2.6115,2.6788,2.6728,2.616,2.5822,2.5552,2.5377,2.5163,2.5076,2.5044,2.4768,2.4466,2.4156,2.3822,2.3296,2.2881,2.3256,2.227,2.1046,2.1781,2.106,2.0025,2.0154,2.1592,2.3143,2.343,2.4388,2.5564,2.6631,2.5371,2.4207,2.5293,2.4212,2.2791,2.2076,2.067,1.9134,1.751,1.82,1.8599,1.7689,1.8582,1.9199,1.8735,1.7555,1.6262,1.4835,1.3547,1.2847,1.2967,1.1412,1.0415,1.0415,0.9037,0.7993,0.7489,0.6826,0.5661,0.3846,0.3185,0.2283,0.1119,-0.0257,-0.1233,-0.1859,-0.2816,-0.3995,1.719,1.7507,0.0,0.0,0.0,0.0,0.0,0.0,0.0,0.0,0.0,0.0,2.3871,0.0,0.0,2.4094,2.415,2.443,2.4714,2.5074,2.5282,2.5238,2.569,2.5864,2.5492,2.5232,2.5013,2.4766,2.463,2.4533,2.4403,2.4328,2.4204,2.412,2.4044,2.4501,2.5438,2.5171,2.5939,2.7828,2.7387,2.7316,2.7492,2.7416,2.6709,2.5535,2.5266,2.5075,2.4945,2.4836,2.4556,2.4187,2.403,2.3739,2.3325,2.3258,2.3112,2.305,2.3375,2.3198,2.285,2.3319,2.2256,2.0896,2.1223,2.0384,1.9391,1.9588,2.0552,2.1786,2.2762,2.3845,2.5009,2.6353,2.5799,2.5196,2.6159,2.5568,2.4806,2.4473,2.3282,2.2011,2.091,2.0653,2.0343,1.9581,1.9012,1.8235,1.7014,1.6266,1.5437,1.4376,1.317,1.2318,1.1959,1.1057,1.0293,0.9865,0.8892,0.7807,0.6616,0.6385,0.5372,0.3341,0.295,0.2231,0.1119,-0.0377,-0.1563,-0.2448,-0.3267,-0.4303,1.7112,0.0,0.0,0.0,0.0,0.0,0.0,0.0,0.0,0.0,0.0,2.5066,2.4662,2.5198,0.0,2.4572,2.4643,2.4769,2.4684,2.5095,2.5338,2.5112,2.5505,2.5605,2.527,2.4997,2.4726,2.4539,2.4367,2.4185,2.3994,2.3875,2.3746,2.3617,2.374,2.4163,2.4902,2.502,2.5682,2.6759,2.6935,2.6936,2.6738,2.6995,2.6329,2.5002,2.4372,2.4004,2.3912,2.3915,2.3694,2.3294,2.3043,2.2644,2.2185,2.1948,2.1986,2.2221,2.2398,2.2398,2.237,2.2584,2.1702,2.0531,2.0465,1.9696,1.8856,1.8834,1.9531,2.051,2.1506,2.2653,2.4011,2.5984,2.6117,2.5857,2.612,2.5906,2.5365,2.4556,2.3626,2.2622,2.1499,2.1112,2.0673,1.9952,1.8962,1.7812,1.6501,1.5801,1.4959,1.3855,1.2989,1.2209,1.1505,1.0752,1.005,0.9478,0.8583,0.7481,0.6299,0.6246,0.5386,0.3599,0.3354,0.2476,0.0938,-0.0372,-0.1499,-0.2501,-0.3146,-0.4178,0.0,0.0,0.0,0.0,0.0,0.0,0.0,0.0,0.0,0.0,0.0,2.5226,2.5692,2.5746,2.5622,2.5253,2.5167,2.5055,2.4805,2.5108,2.5229,2.4913,2.5175,2.5262,2.5005,2.4759,2.4564,2.4457,2.4291,2.4032,2.3797,2.3602,2.3428,2.3268,2.3531,2.363,2.3538,2.4733,2.5121,2.4575,2.6126,2.6373,2.5396,2.6775,2.6245,2.4205,2.3779,2.3324,2.283,2.2951,2.2772,2.2434,2.2075,2.1719,2.1356,2.0739,2.0893,2.1356,2.0935,2.101,2.1348,2.1178,2.0582,1.988,1.947,1.8842,1.8225,1.7936,1.8492,1.9327,1.9931,2.1015,2.2628,2.5175,2.6015,2.6048,2.5509,2.5418,2.4907,2.3119,2.248,2.1732,2.0287,2.0197,2.001,1.8982,1.8336,1.7558,1.6565,1.5793,1.4743,1.3257,1.2832,1.2296,1.1401,1.0512,0.9741,0.9245,0.8201,0.7229,0.6427,0.6271,0.56,0.4228,0.3997,0.2805,0.0655,-0.0252,-0.118,-0.2073,-0.276,-0.383,0.0,0.0,0.0,0.0,0.0,0.0,0.0,0.0,0.0,0.0,0.0,2.5811,2.5595,2.6596,2.7132,2.6132,2.6187,2.6292,2.6193,2.5936,2.5699,2.553,2.5303,2.5107,2.5005,2.4694,2.4441,2.4211,2.4009,2.3797,2.3596,2.326,2.2972,2.2844,2.2623,2.2646,2.2902,2.3012,2.3495,2.4364,2.4441,2.4641,2.4977,2.4911,2.3588,2.1425,2.1941,2.1695,2.0913,2.1136,2.1059,2.072,2.0623,2.0105,1.9334,1.9096,1.9098,1.9252,1.9008,1.9188,1.9422,1.9092,1.8459,1.7823,1.762,1.7106,1.6653,1.6795,1.7122,1.7709,1.8817,1.961,2.0551,2.2148,2.3681,2.4867,2.5061,2.498,2.4545,2.3477,2.2806,2.1948,2.0375,2.0005,1.9273,1.7283,1.6801,1.6109,1.4558,1.465,1.4177,1.2351,1.2353,1.2035,1.104,1.022,0.961,0.9233,0.8602,0.7926,0.7201,0.6149,0.4939,0.3539,0.315,0.2075,0.0302,-0.0202,-0.0975,-0.1965,-0.2868,-0.3784,0.0,0.0,0.0,0.0,0.0,0.0,0.0,0.0,0.0,0.0,0.0,2.6453,2.6502,2.7223,2.754,2.6757,2.6643,2.6607,2.6425,2.599,2.5605,2.5468,2.5091,2.4831,2.4774,2.4449,2.4193,2.3952,2.3703,2.3436,2.3127,2.2814,2.2533,2.2296,2.2118,2.2072,2.2106,2.2021,2.2168,2.2484,2.2522,2.248,2.2375,2.3314,2.2736,2.1003,2.0933,2.0313,1.941,1.9488,1.93,1.9024,1.8855,1.8507,1.8064,1.7935,1.8084,1.8346,1.8344,1.8344,1.822,1.7959,1.7436,1.6891,1.6516,1.6137,1.5915,1.5901,1.6052,1.6386,1.7361,1.7986,1.8706,1.9905,2.1757,2.3346,2.3668,2.3456,2.3011,2.2382,2.1741,2.1036,2.0095,1.9391,1.8398,1.6723,1.6131,1.5473,1.4468,1.4384,1.3976,1.2658,1.2428,1.2067,1.1289,1.0273,0.9464,0.9103,0.8375,0.7664,0.6989,0.5848,0.4868,0.3967,0.3241,0.2089,0.0638,-0.02,-0.1068,-0.1967,-0.2797,-0.3693,0.0,0.0,0.0,0.0,0.0,0.0,0.0,0.0,0.0,0.0,2.7197,2.6854,2.7421,2.7509,2.7417,2.7135,2.6767,2.6469,2.6154,2.5672,2.5254,2.5083,2.4687,2.4426,2.4317,2.4017,2.3797,2.361,2.3304,2.2934,2.2565,2.2303,2.1983,2.1602,2.1542,2.1432,2.1154,2.1078,2.0747,2.0189,2.0637,2.0296,1.9389,2.134,2.167,2.0594,1.9818,1.8839,1.7847,1.7727,1.7575,1.733,1.7098,1.7014,1.6935,1.6826,1.7186,1.7693,1.7688,1.7483,1.718,1.6954,1.6593,1.6077,1.5529,1.5361,1.533,1.5137,1.5129,1.5361,1.5878,1.6386,1.7009,1.8051,1.967,2.1169,2.1909,2.1762,2.1344,2.0955,2.0275,1.968,1.9473,1.8448,1.7359,1.6484,1.5734,1.5095,1.4733,1.4378,1.3838,1.3036,1.262,1.2173,1.1571,1.0344,0.9406,0.8868,0.8016,0.7245,0.6608,0.5747,0.5135,0.4761,0.3523,0.2324,0.113,-0.0097,-0.109,-0.1894,-0.2495,-0.3404,0.0,0.0,0.0,0.0,0.0,0.0,0.0,0.0,0.0,0.0,2.696,2.6471,2.7054,2.7218,2.7198,2.7031,2.664,2.6216,2.5905,2.5329,2.4887,2.4605,2.4177,2.3817,2.3587,2.3341,2.312,2.2882,2.2459,2.2142,2.1935,2.1341,2.095,2.0759,2.0335,1.9957,1.9685,1.9054,1.8785,1.8946,1.8932,1.8708,1.8316,1.8062,1.7656,1.7178,1.7286,1.6746,1.5803,1.5731,1.5668,1.5673,1.5783,1.5568,1.5211,1.5226,1.5542,1.5876,1.5408,1.5452,1.5574,1.5004,1.45,1.4137,1.3952,1.3958,1.4079,1.4156,1.4373,1.4593,1.4858,1.513,1.5501,1.6081,1.6547,1.7591,2.0098,2.0844,2.0885,2.0528,1.9537,1.8575,1.8144,1.7074,1.6093,1.5573,1.4983,1.4295,1.347,1.3656,1.3346,1.2018,1.2303,1.2054,1.0752,1.019,0.9494,0.8606,0.8269,0.7712,0.6872,0.6383,0.575,0.496,0.3385,0.2128,0.1169,0.0408,-0.0417,-0.1343,-0.2109,-0.2786,0.0,0.0,0.0,0.0,0.0,0.0,0.0,0.0,0.0,2.729,2.6734,2.6399,2.6891,2.7024,2.6886,2.6217,2.5747,2.5201,2.4465,2.4165,2.3878,2.348,2.3335,2.3157,2.2823,2.2512,2.2242,2.1988,2.1609,2.1279,2.1035,2.0547,2.0144,1.9933,1.9371,1.8898,1.8584,1.7633,1.689,1.6348,1.6276,1.5999,1.5592,1.5313,1.5554,1.6162,1.5807,1.5172,1.4319,1.43,1.4146,1.3936,1.4064,1.4058,1.3992,1.4155,1.4531,1.4963,1.4669,1.4556,1.4495,1.3955,1.3581,1.3342,1.3344,1.3372,1.3467,1.3636,1.3821,1.403,1.4256,1.4431,1.458,1.475,1.4897,1.538,1.6832,1.7819,1.8305,1.7893,1.7229,1.656,1.6128,1.5421,1.4709,1.4288,1.3931,1.3501,1.3034,1.3185,1.3097,1.2603,1.2171,1.1712,1.1166,1.0209,0.9363,0.8659,0.841,0.7878,0.6956,0.651,0.5953,0.519,0.3873,0.2764,0.1869,0.1072,0.0271,-0.0552,-0.1425,-0.2158,0.0,0.0,0.0,0.0,0.0,0.0,0.0,0.0,2.6775,0.0,2.6234,2.6033,2.6243,2.632,2.6075,2.5163,2.4627,2.401,2.3104,2.287,2.2579,2.2105,2.2048,2.1884,2.1467,2.1116,2.084,2.0527,2.0195,1.9916,1.9743,1.9368,1.9074,1.8874,1.8352,1.7814,1.7374,1.6353,1.5274,1.4167,1.4076,1.3824,1.336,1.3256,1.3826,1.4882,1.4471,1.3891,1.3333,1.3243,1.2959,1.2684,1.272,1.2842,1.2969,1.3173,1.3566,1.397,1.3964,1.3807,1.3577,1.3304,1.3052,1.2905,1.2958,1.3045,1.3137,1.3258,1.3349,1.3467,1.3695,1.3762,1.3797,1.3704,1.3736,1.3931,1.4439,1.5448,1.604,1.5525,1.52,1.492,1.4468,1.4066,1.3737,1.3362,1.3137,1.2953,1.2876,1.2832,1.2818,1.2939,1.1968,1.1274,1.1235,1.0092,0.916,0.8578,0.8365,0.7874,0.6953,0.6559,0.6044,0.5455,0.4491,0.3517,0.2583,0.1787,0.0984,0.0224,-0.0761,-0.159,0.0,0.0,0.0,0.0,0.0,0.0,0.0,0.0,0.0,2.5521,2.5267,2.4972,2.4599,2.4564,2.4493,2.4059,2.347,2.2919,2.244,2.1731,2.1133,2.0599,2.0041,1.9474,1.9042,1.8772,1.8499,1.8115,1.7937,1.7873,1.7903,1.7653,1.7457,1.7291,1.7045,1.6574,1.5918,1.5031,1.4167,1.339,1.3195,1.2834,1.2363,1.205,1.2062,1.2332,1.2887,1.3001,1.2797,1.2462,1.2328,1.2332,1.2216,1.2126,1.2193,1.2169,1.2386,1.2597,1.2724,1.2802,1.2798,1.2894,1.2828,1.2696,1.2553,1.27,1.2925,1.2925,1.2929,1.2973,1.305,1.3007,1.2953,1.2861,1.2856,1.3175,1.4283,1.5028,1.5241,1.4521,1.4343,1.4168,1.3547,1.3462,1.3314,1.3064,1.3016,1.2934,1.2725,1.2578,1.248,1.2372,1.156,1.0826,1.0331,0.955,0.88,0.8081,0.7949,0.7659,0.7024,0.6689,0.6264,0.579,0.5101,0.4228,0.317,0.2456,0.1698,0.0806,-0.0224,-0.1074,0.0,0.0,0.0,0.0,0.0,0.0,0.0,0.0,2.3938,2.4078,2.3956,2.3528,2.2477,2.3333,2.3902,2.3071,2.2375,2.1647,2.0658,2.0223,1.9766,1.8931,1.8886,1.8669,1.8015,1.7898,1.7563,1.6802,1.6859,1.675,1.6331,1.6389,1.6294,1.6047,1.5963,1.5444,1.4433,1.4039,1.3325,1.2355,1.2286,1.186,1.1185,1.131,1.138,1.1457,1.1937,1.2182,1.2371,1.2282,1.2089,1.1864,1.1824,1.17,1.1619,1.174,1.2011,1.2239,1.2119,1.2249,1.2385,1.2214,1.2264,1.2407,1.2393,1.2505,1.2681,1.2735,1.2779,1.2783,1.2895,1.2754,1.24,1.1936,1.1918,1.2107,1.2622,1.3304,1.37,1.3256,1.3165,1.3079,1.2852,1.2905,1.2856,1.2603,1.2554,1.2461,1.2224,1.2126,1.1926,1.1372,1.0884,1.0305,0.9544,0.8889,0.8332,0.7848,0.7697,0.7398,0.681,0.6605,0.631,0.593,0.5275,0.4615,0.3955,0.2808,0.1966,0.1385,0.0179,-0.0626,0.0,0.0,0.0,0.0,0.0,0.0,0.0,0.0,2.1789,2.1957,2.2021,2.1623,2.0376,2.1456,2.2258,2.1607,2.1038,2.0295,1.925,1.891,1.8487,1.7702,1.7651,1.738,1.6681,1.6462,1.597,1.5065,1.5102,1.4976,1.437,1.4556,1.451,1.4307,1.4158,1.3763,1.2949,1.2894,1.2357,1.1473,1.1585,1.1185,1.0423,1.0603,1.0669,1.0715,1.1114,1.16,1.2112,1.2208,1.2027,1.1685,1.1685,1.1549,1.141,1.1538,1.1755,1.1996,1.1842,1.1883,1.2053,1.1853,1.1923,1.2094,1.2089,1.2197,1.2377,1.2578,1.2627,1.2681,1.2856,1.2548,1.204,1.1528,1.1436,1.1449,1.1591,1.2309,1.2842,1.2622,1.2622,1.2676,1.2627,1.273,1.2681,1.2328,1.2278,1.2175,1.1823,1.1558,1.1181,1.0636,1.0052,0.948,0.9028,0.822,0.7716,0.7581,0.7296,0.694,0.6559,0.6346,0.6227,0.6153,0.5361,0.492,0.4824,0.3292,0.2277,0.1785,0.0625,-0.027,0.0,0.0,0.0,0.0,0.0,0.0,1.994,0.0,1.9541,1.9212,1.9395,1.9349,1.8431,1.889,1.9437,1.9546,1.933,1.8963,1.8379,1.7794,1.7317,1.6918,1.6194,1.5522,1.4903,1.4299,1.3632,1.2812,1.2623,1.2409,1.2079,1.2162,1.2188,1.2086,1.1776,1.1555,1.1487,1.1487,1.1262,1.0815,1.1082,1.0826,1.0083,0.9949,0.988,0.9916,1.0448,1.1217,1.2066,1.2058,1.1954,1.1806,1.1806,1.1681,1.1622,1.1622,1.1685,1.1809,1.189,1.1837,1.1731,1.1941,1.1845,1.169,1.1687,1.1877,1.2175,1.2426,1.248,1.2578,1.2832,1.2407,1.1882,1.1751,1.1528,1.1345,1.1517,1.2144,1.2725,1.272,1.2866,1.3012,1.2925,1.2929,1.2779,1.2377,1.2323,1.2126,1.1573,1.0853,1.033,1.0165,0.9032,0.8401,0.8647,0.7582,0.6989,0.7266,0.6724,0.6322,0.6184,0.5922,0.5967,0.637,0.5325,0.5101,0.5653,0.3864,0.2677,0.2099,0.1163,-0.0,1.8963,0.0,0.0,0.0,0.0,0.0,0.0,0.0,1.7885,1.7653,1.7845,1.7822,1.7112,1.7107,1.6978,1.6407,1.7393,1.8121,1.7767,1.7166,1.6503,1.5844,1.5299,1.4652,1.3779,1.3246,1.2604,1.1711,1.1614,1.1404,1.0897,1.0966,1.1145,1.1415,1.1322,1.1273,1.1378,1.1378,1.1039,1.0469,1.0507,1.0125,0.9462,0.9459,0.9445,0.9394,0.9883,1.0428,1.1132,1.1664,1.1856,1.1802,1.1681,1.1622,1.1622,1.1622,1.1696,1.1794,1.1783,1.1713,1.1666,1.1626,1.1551,1.1545,1.1578,1.1723,1.2022,1.2377,1.248,1.2529,1.2725,1.249,1.2139,1.2008,1.1904,1.1945,1.2085,1.2471,1.2783,1.2773,1.312,1.3329,1.3035,1.3035,1.303,1.273,1.2554,1.2215,1.1638,1.1165,1.0463,0.9219,0.8909,0.8457,0.7828,0.7121,0.6767,0.6718,0.6263,0.5927,0.5847,0.5448,0.5445,0.5895,0.4978,0.467,0.5058,0.3647,0.29,0.2634,0.1382,0.0388,0.0,0.0,0.0,0.0,0.0,0.0,1.6265,1.6196,1.6109,0.0,1.5485,1.5478,1.4594,1.4615,1.4466,1.3514,1.4613,1.5798,1.6505,1.6235,1.5697,1.5072,1.4716,1.4073,1.2956,1.257,1.1918,1.0935,1.0749,1.042,0.9749,0.9696,0.9898,1.0287,1.0294,1.0408,1.0681,1.0681,1.0459,1.0016,1.0027,0.9738,0.9134,0.9094,0.8966,0.8822,0.9335,0.9758,1.0238,1.1016,1.1436,1.1681,1.1681,1.1615,1.1483,1.1556,1.163,1.1736,1.1715,1.1639,1.1537,1.1444,1.1348,1.1272,1.1322,1.1523,1.1823,1.2224,1.2475,1.2671,1.2735,1.2652,1.2417,1.2307,1.2152,1.2085,1.2258,1.2531,1.2754,1.2864,1.3163,1.3367,1.3117,1.3213,1.3213,1.2914,1.2783,1.2452,1.1642,1.1059,1.0209,0.8902,0.8489,0.8034,0.7338,0.6851,0.6529,0.6422,0.5845,0.5491,0.541,0.5101,0.5147,0.5585,0.4932,0.4541,0.4497,0.3653,0.306,0.2705,0.1882,0.1228,0.0,0.0,0.0,0.0,0.0,0.0,1.5206,1.4783,1.4287,0.0,1.2841,1.2773,1.1584,1.1832,1.1943,1.0961,1.1426,1.2653,1.478,1.4928,1.4671,1.4352,1.4088,1.3464,1.2245,1.1844,1.1245,1.024,0.9932,0.944,0.8695,0.8583,0.8629,0.8906,0.911,0.9372,0.9744,0.9736,0.9677,0.9614,0.9699,0.9488,0.8944,0.8844,0.8576,0.8311,0.8792,0.9206,0.9484,1.0227,1.0931,1.1564,1.1685,1.1542,1.1337,1.1487,1.1564,1.1626,1.1729,1.1541,1.1282,1.1428,1.1186,1.0922,1.1023,1.1276,1.1573,1.1977,1.2426,1.2861,1.2831,1.2749,1.2662,1.2508,1.2215,1.2016,1.2139,1.2354,1.2632,1.289,1.3117,1.3213,1.3218,1.3314,1.3294,1.2999,1.2898,1.2561,1.1648,1.0744,0.9823,0.893,0.8088,0.745,0.7125,0.6678,0.6334,0.6237,0.5515,0.5058,0.4966,0.4842,0.4973,0.5448,0.506,0.4629,0.4196,0.3832,0.3324,0.2662,0.2526,0.2383,0.0,0.0,0.0,0.0,0.0,0.0,1.3161,1.2837,1.2675,0.0,1.1388,1.1204,1.0579,1.031,0.9902,0.9077,0.9185,1.0226,1.2586,1.2932,1.2802,1.2525,1.2022,1.1306,1.0473,0.9833,0.9306,0.8739,0.8442,0.813,0.7777,0.7949,0.8112,0.8325,0.8798,0.9162,0.9469,0.9384,0.9422,0.9585,0.9214,0.8907,0.8692,0.8714,0.8444,0.8012,0.8453,0.8783,0.9072,0.962,1.0378,1.1185,1.1251,1.123,1.1274,1.1358,1.1505,1.1732,1.151,1.1363,1.1236,1.1024,1.0837,1.0773,1.0922,1.1124,1.1423,1.1828,1.218,1.2421,1.2559,1.2545,1.253,1.2486,1.2452,1.2412,1.2482,1.2249,1.2162,1.2643,1.319,1.3462,1.3266,1.3213,1.3097,1.2745,1.2402,1.2071,1.1643,1.0667,0.9723,0.8965,0.8328,0.7681,0.7016,0.6587,0.6239,0.5853,0.5397,0.5074,0.4842,0.4535,0.4626,0.507,0.5062,0.493,0.4672,0.4397,0.4042,0.3606,0.3182,0.3004,0.0,0.0,0.0,1.6787,0.0,0.0,0.0,1.2865,1.2584,1.1416,1.0752,1.018,0.9573,0.8906,0.8119,0.7118,0.7386,0.8084,0.9211,1.0337,1.1088,1.1232,1.0765,1.0116,0.9375,0.8967,0.8601,0.8287,0.7922,0.7671,0.7482,0.7623,0.7854,0.8116,0.8511,0.8847,0.911,0.9026,0.9072,0.9194,0.8781,0.8547,0.8502,0.8362,0.8174,0.7907,0.8208,0.8489,0.8761,0.9282,0.9817,1.0419,1.0812,1.0919,1.0836,1.1097,1.124,1.1271,1.1188,1.1122,1.1129,1.0864,1.061,1.0494,1.0726,1.0922,1.1171,1.141,1.1701,1.1959,1.2224,1.2299,1.2318,1.2386,1.2313,1.2226,1.2229,1.1955,1.1711,1.1813,1.1986,1.2292,1.2657,1.2745,1.2647,1.2353,1.2141,1.1829,1.1342,1.0626,0.9796,0.8811,0.8239,0.7605,0.6728,0.6295,0.595,0.5534,0.5108,0.4806,0.4675,0.4637,0.4817,0.5128,0.5325,0.5272,0.4973,0.5505,0.5343,0.4439,0.3941,0.3801,0.0,0.0,0.0,0.0,0.0,1.5556,0.0,0.0,0.0,1.1448,1.0321,0.936,0.8702,0.7652,0.6575,0.5553,0.0,0.0,0.0,0.7678,0.0,0.9668,0.9325,0.8806,0.8165,0.7986,0.7892,0.7849,0.7511,0.7281,0.7182,0.7401,0.7622,0.7779,0.8146,0.8426,0.8649,0.8682,0.8738,0.8755,0.8474,0.837,0.8401,0.81,0.7934,0.7907,0.8029,0.8205,0.8479,0.8836,0.916,0.9519,1.0335,1.0478,1.0342,1.0846,1.0881,1.0729,1.0802,1.0817,1.0793,1.0519,1.0287,1.0144,1.0419,1.0608,1.0706,1.0943,1.1191,1.1493,1.1864,1.1953,1.2001,1.1936,1.1778,1.157,1.1527,1.1243,1.0975,1.0768,1.057,1.0737,1.1773,1.1891,1.1844,1.1591,1.1525,1.1322,1.0809,1.0334,0.9644,0.869,0.8088,0.7443,0.6526,0.6084,0.5693,0.5333,0.4932,0.4668,0.4631,0.4953,0.5222,0.5389,0.5723,0.5712,0.5315,0.6602,0.6478,0.512,0.4821,0.4741,0.0,0.0,0.0,0.0,1.5541,0.0,0.0,0.0,1.1964,1.0972,0.0,0.8601,0.8156,0.0,0.0,0.0,0.0,0.0,0.5444,0.5348,0.5608,0.6826,0.6641,0.6278,0.5911,0.563,0.5818,0.656,0.6381,0.627,0.6355,0.6938,0.7197,0.7055,0.771,0.8078,0.8068,0.8321,0.848,0.8603,0.8366,0.8287,0.838,0.8237,0.8045,0.7875,0.7812,0.7755,0.7839,0.8131,0.8306,0.8567,0.9683,1.0174,1.0301,1.0558,1.0581,1.0447,1.0282,1.0282,1.0295,0.974,0.9584,0.9673,0.9869,0.9921,1.0024,1.0608,1.0867,1.1011,1.1296,1.1473,1.1399,1.0819,1.0632,1.0498,1.02,0.9739,0.9553,1.01,0.9803,0.9705,1.0488,1.0512,1.0331,1.0099,0.9917,0.9818,0.9937,0.9377,0.8973,0.8929,0.8217,0.7443,0.672,0.6227,0.579,0.5348,0.5174,0.512,0.5014,0.5417,0.5677,0.5752,0.5998,0.6131,0.6093,0.6839,0.6645,0.5633,0.5937,0.5834,0.0,0.0,0.0,0.0,0.0,0.0,1.3343,0.0,1.1825,0.0,0.0,0.0,0.0,0.0,0.0,0.0,0.4333,0.4331,0.0,0.0,0.4374,0.5794,0.5454,0.4939,0.46,0.4439,0.4551,0.5078,0.4891,0.497,0.5461,0.6013,0.6527,0.6908,0.7332,0.7659,0.7826,0.7774,0.7905,0.8171,0.7854,0.7854,0.8115,0.783,0.7738,0.7776,0.7645,0.7637,0.7722,0.7998,0.8235,0.8477,0.9023,0.9291,0.9477,1.018,1.0206,0.9876,1.0029,1.0102,0.9948,0.9369,0.9375,0.9562,0.9312,0.9361,0.9614,0.9984,1.0108,1.0222,1.0659,1.0573,1.0343,1.013,0.9888,0.9573,0.9424,0.9228,0.9105,0.922,0.9065,0.8985,0.9363,0.9694,0.9793,0.9464,0.9327,0.9248,0.9218,0.8948,0.8701,0.8572,0.7972,0.7307,0.6649,0.6087,0.5655,0.5417,0.5466,0.559,0.5827,0.5944,0.6076,0.6301,0.6508,0.6511,0.6395,0.7528,0.7571,0.6699,0.6677,0.6316,1.881,0.0,0.0,0.0,0.0,0.0,0.0,0.0,0.0,0.0,0.0,0.0,0.0,0.0,0.5484,0.4631,0.0,0.424,0.0,0.3797,0.0,0.4828,0.4251,0.3729,0.368,0.345,0.3458,0.3862,0.3639,0.3802,0.4501,0.5124,0.5802,0.6512,0.6935,0.7264,0.7478,0.7318,0.7388,0.7688,0.7317,0.7303,0.7648,0.7323,0.7275,0.7549,0.7424,0.7473,0.7657,0.7839,0.8086,0.8356,0.8532,0.8552,0.8704,0.9669,0.9707,0.9345,0.9741,0.9717,0.9484,0.9109,0.9141,0.9235,0.875,0.883,0.9171,0.9278,0.938,0.9518,0.9867,0.9758,0.9506,0.9364,0.9055,0.8756,0.8621,0.8586,0.8543,0.8301,0.8381,0.8452,0.8551,0.9015,0.9301,0.9105,0.8957,0.8841,0.8728,0.8573,0.8394,0.8107,0.7636,0.7127,0.6544,0.6018,0.5682,0.558,0.5758,0.6013,0.6431,0.6367,0.6499,0.6768,0.6911,0.6875,0.6696,0.791,0.8206,0.7704,0.7447,0.6957,0.0,1.7548,0.0,1.6454,0.0,0.0,0.0,0.0,1.2255,0.0,0.0,0.8511,0.7819,0.5873,0.446,0.4744,0.3709,0.0,0.0,0.0,0.0,0.3317,0.2591,0.0,0.3073,0.2424,0.2283,0.3081,0.2899,0.2921,0.3339,0.437,0.5133,0.5518,0.6354,0.6857,0.6905,0.7043,0.7098,0.7115,0.6868,0.6866,0.7139,0.6848,0.6848,0.7139,0.7104,0.7263,0.7521,0.7532,0.7693,0.7955,0.8198,0.8264,0.8312,0.8963,0.9087,0.8877,0.916,0.898,0.8679,0.8911,0.8828,0.857,0.8238,0.827,0.8426,0.8498,0.8774,0.9001,0.8878,0.913,0.9188,0.836,0.815,0.8024,0.7528,0.7465,0.7469,0.7437,0.7752,0.8047,0.8198,0.8415,0.8654,0.8971,0.8659,0.8411,0.84,0.8115,0.7874,0.7712,0.7298,0.6868,0.6547,0.6188,0.5908,0.5806,0.605,0.6267,0.6477,0.6625,0.679,0.6979,0.7123,0.7172,0.7174,0.7684,0.8093,0.8443,0.8267,0.8018,1.7367,1.6271,1.5511,1.5541,1.4413,1.3296,1.3452,0.0,0.0,0.0,0.0,0.0,0.0,0.6463,0.5665,0.4931,0.4331,0.4043,0.0,0.3391,0.2612,0.0,0.0,0.0,0.0,0.1329,0.1208,0.1809,0.1465,0.1335,0.1583,0.3012,0.4257,0.5203,0.5825,0.6352,0.6844,0.6724,0.6731,0.6843,0.6757,0.6701,0.6756,0.6812,0.6871,0.6982,0.7152,0.7311,0.7521,0.758,0.78,0.8039,0.805,0.8066,0.823,0.893,0.8969,0.8689,0.8793,0.8697,0.8606,0.8503,0.8306,0.8012,0.7819,0.7769,0.7788,0.797,0.8039,0.8099,0.823,0.8126,0.7937,0.7571,0.7425,0.73,0.7129,0.7093,0.7227,0.7493,0.7511,0.7724,0.8522,0.8504,0.845,0.8756,0.8497,0.829,0.829,0.7902,0.7655,0.7715,0.7372,0.7031,0.6766,0.6387,0.6222,0.6449,0.6504,0.6614,0.6813,0.7098,0.7224,0.7283,0.7679,0.7626,0.7214,0.8006,0.8311,0.8126,0.8411,0.8287,1.6617,1.574,1.5085,1.5032,1.3839,1.2821,1.3367,1.2454,1.1359,0.0,0.0,0.0,0.0,0.7272,0.6515,0.5666,0.5119,0.456,0.0,0.3227,0.2436,0.0,0.0,0.0,0.0,0.0,0.0,0.0859,0.0646,0.0,0.0842,0.2431,0.3809,0.4766,0.553,0.6174,0.6618,0.6404,0.6399,0.6532,0.6386,0.6324,0.6327,0.65,0.6611,0.6663,0.7041,0.7306,0.7521,0.7684,0.7901,0.8127,0.8115,0.8168,0.8309,0.8712,0.8693,0.8527,0.8583,0.854,0.844,0.8278,0.8044,0.7801,0.7563,0.7383,0.7353,0.7482,0.744,0.7344,0.7552,0.7348,0.7078,0.6956,0.6852,0.6862,0.6963,0.6937,0.7009,0.737,0.7281,0.7442,0.8418,0.8265,0.8252,0.8808,0.8461,0.814,0.8091,0.7622,0.736,0.7416,0.7186,0.6966,0.6711,0.6448,0.6357,0.6573,0.6714,0.6868,0.6946,0.7314,0.7527,0.7614,0.7972,0.8059,0.7917,0.8195,0.8383,0.8388,0.8392,0.833]},{"header":{"parameterUnit":"m.s-1","parameterCategory":1,"la1":30.6,"la2":29.2853,"lo1":-89.7004,"lo2":-87.6739,"dy":0.0162,"dx":0.0183,"nx":112,"ny":82,"refTime":"2023-05-23T00:00:00:Z","depth":0,"parameterNumber":3,"parameterNumberName":"V-component_of_WINDS"},"data":[0.0,0.0,0.0,0.0,0.0,0.0,0.0,0.0,0.0,0.0,0.0,0.0,0.0,0.0,0.0,0.0,0.0,0.0,0.0,0.0,0.0,0.0,0.0,0.0,0.0,0.0,0.0,0.0,0.0,0.0,0.0,0.0,0.0,0.0,0.0,0.0,0.0,0.0,0.0,0.0,0.0,0.0,0.0,0.0,0.0,0.0,0.0,0.0,0.0,0.0,0.0,0.0,0.0,0.0,0.0,0.0,0.0,0.0,0.0,0.0,0.0,0.0,0.0,0.0,0.0,0.0,0.0,0.0,0.0,0.0,0.0,0.0,0.0,0.0,0.0,0.0,0.0,0.0,0.0,0.0,0.0,0.0,0.0,0.0,0.0,0.0,0.0,0.0,0.0,0.0,2.0867,2.2159,2.258,2.2957,2.3439,2.3917,2.4418,2.5033,0.0,0.0,0.0,0.0,0.0,0.0,0.0,0.0,0.0,0.0,0.0,0.0,0.0,0.0,0.0,0.0,0.0,0.0,0.0,0.0,0.0,0.0,0.0,0.0,0.0,0.0,0.0,0.0,0.0,0.0,0.0,0.0,0.0,0.0,0.0,0.0,0.0,0.0,0.0,0.0,0.0,0.0,0.0,0.0,0.0,0.0,0.0,0.0,0.0,0.0,0.0,0.0,0.0,0.0,0.0,0.0,0.0,0.0,0.0,0.0,0.0,0.0,0.0,0.0,0.0,0.0,0.0,0.0,0.0,0.0,0.0,0.0,0.0,0.0,0.0,0.0,0.0,0.0,0.0,0.0,0.0,0.0,0.0,0.0,0.0,0.0,0.0,0.0,0.0,0.0,0.0,0.0,0.0,0.0,0.0,0.0,0.0,0.0,0.0,0.0,0.0,0.0,0.0,0.0,2.2038,2.445,2.3986,2.4198,2.581,2.5944,2.6032,2.6327,0.0,0.0,0.0,0.0,0.0,0.0,0.0,0.0,0.0,0.0,0.0,0.0,0.0,0.0,0.0,0.0,0.0,0.0,0.0,0.0,0.0,0.0,0.0,0.0,0.0,0.0,0.0,0.0,0.0,0.0,0.0,0.0,0.0,0.0,0.0,0.0,0.0,0.0,0.0,0.0,0.0,0.0,0.0,0.0,0.0,0.0,0.0,0.0,0.0,0.0,0.0,0.0,0.0,0.0,0.0,0.0,0.0,0.0,0.0,0.0,0.0,0.0,0.0,0.0,0.0,0.0,0.0,0.0,0.0,0.0,0.0,0.0,0.0,0.0,0.0,0.0,0.0,0.0,0.0,0.0,0.0,0.0,0.0,0.0,0.0,0.0,0.0,0.0,0.0,0.0,0.0,0.0,0.0,0.0,0.0,0.0,0.0,0.0,0.0,0.0,0.0,0.0,0.0,2.165,2.331,2.5363,2.508,2.5231,2.6428,2.6995,2.7203,2.6842,2.6647,0.0,0.0,0.0,0.0,0.0,0.0,0.0,0.0,0.0,0.0,0.0,0.0,0.0,0.0,0.0,0.0,0.0,0.0,0.0,0.0,0.0,0.0,0.0,0.0,0.0,0.0,0.0,0.0,0.0,0.0,0.0,0.0,0.0,0.0,0.0,0.0,0.0,0.0,0.0,0.0,0.0,0.0,0.0,0.0,0.0,0.0,0.0,0.0,0.0,0.0,0.0,0.0,0.0,0.0,0.0,0.0,0.0,0.0,0.0,0.0,0.0,0.0,0.0,0.0,0.0,0.0,0.0,0.0,0.0,0.0,0.0,0.0,0.0,0.0,0.0,0.0,0.0,0.0,0.0,0.0,0.0,0.0,0.0,0.0,0.0,0.0,0.0,0.0,0.0,0.0,0.0,0.0,0.0,0.0,0.0,0.0,0.0,0.0,0.0,0.0,0.0,0.0,2.3301,2.4501,2.572,2.5972,2.6205,2.6623,2.7556,2.779,2.7134,2.7318,0.0,0.0,0.0,0.0,0.0,0.0,0.0,0.0,0.0,0.0,0.0,0.0,0.0,0.0,0.0,0.0,0.0,0.0,0.0,0.0,0.0,0.0,0.0,0.0,0.0,0.0,0.0,0.0,0.0,0.0,0.0,0.0,0.0,0.0,0.0,0.0,0.0,0.0,0.0,0.0,0.0,0.0,0.0,0.0,0.0,0.0,0.0,0.0,0.0,0.0,0.0,0.0,0.0,0.0,0.0,0.0,0.0,0.0,0.0,0.0,0.0,0.0,0.0,0.0,0.0,0.0,0.0,0.0,0.0,0.0,0.0,0.0,0.0,0.0,0.0,0.0,0.0,0.0,0.0,0.0,0.0,0.0,0.0,0.0,0.0,0.0,0.0,0.0,0.0,0.0,0.0,0.0,0.0,0.0,0.0,0.0,0.0,0.0,0.0,0.0,0.0,0.0,2.3872,2.5346,2.5659,2.658,2.7165,2.7078,2.7445,2.7628,2.7394,2.6798,0.0,0.0,0.0,0.0,0.0,0.0,0.0,0.0,0.0,0.0,0.0,0.0,0.0,0.0,0.0,0.0,0.0,0.0,0.0,0.0,0.0,0.0,0.0,0.0,0.0,0.0,0.0,0.0,0.0,0.0,0.0,0.0,0.0,0.0,0.0,0.0,0.0,0.0,0.0,0.0,0.0,0.0,0.0,0.0,0.0,0.0,0.0,0.0,0.0,0.0,0.0,0.0,0.0,0.0,0.0,0.0,0.0,0.0,0.0,0.0,0.0,0.0,0.0,0.0,0.0,0.0,0.0,0.0,0.0,0.0,0.0,0.0,0.0,0.0,0.0,0.0,0.0,0.0,0.0,0.0,0.0,0.0,0.0,0.0,0.0,0.0,0.0,0.0,0.0,0.0,0.0,0.0,0.0,0.0,0.0,0.0,0.0,0.0,0.0,0.0,0.0,0.0,2.3914,2.5297,0.0,2.6626,2.7309,2.8195,2.8807,2.8868,2.8206,0.0,0.0,0.0,0.0,0.0,0.0,0.0,0.0,0.0,0.0,0.0,0.0,0.0,0.0,0.0,0.0,0.0,0.0,0.0,0.0,0.0,0.0,0.0,0.0,0.0,0.0,0.0,0.0,0.0,0.0,0.0,0.0,0.0,0.0,0.0,0.0,0.0,0.0,0.0,0.0,0.0,0.0,0.0,0.0,0.0,0.0,0.0,0.0,0.0,0.0,0.0,0.0,0.0,0.0,0.0,0.0,0.0,0.0,0.0,0.0,0.0,0.0,0.0,0.0,0.0,0.0,0.0,0.0,0.0,0.0,0.0,0.0,0.0,0.0,0.0,0.0,0.0,0.0,0.0,0.0,0.0,0.0,0.0,0.0,0.0,0.0,0.0,0.0,0.0,0.0,0.0,0.0,0.0,0.0,0.0,0.0,0.0,0.0,0.0,0.0,0.0,0.0,2.2483,2.4341,2.5742,0.0,2.7068,2.7758,2.8677,2.9271,2.922,2.839,0.0,0.0,0.0,0.0,0.0,0.0,0.0,0.0,0.0,0.0,0.0,0.0,0.0,0.0,0.0,0.0,0.0,0.0,0.0,0.0,0.0,0.0,0.0,0.0,0.0,0.0,0.0,0.0,0.0,0.0,0.0,0.0,0.0,0.0,0.0,0.0,0.0,0.0,0.0,0.0,0.0,0.0,0.0,0.0,0.0,0.0,0.0,0.0,0.0,0.0,0.0,0.0,0.0,0.0,0.0,0.0,0.0,0.0,0.0,0.0,0.0,0.0,0.0,0.0,0.0,0.0,0.0,0.0,0.0,0.0,0.0,0.0,0.0,0.0,0.0,0.0,0.0,0.0,0.0,0.0,0.0,0.0,0.0,0.0,0.0,0.0,0.0,0.0,0.0,0.0,0.0,0.0,0.0,0.0,0.0,0.0,0.0,0.0,0.0,0.0,0.0,0.0,2.2558,2.5161,2.6929,2.6728,2.7943,2.866,2.8255,2.85,2.8438,0.0,0.0,0.0,0.0,0.0,0.0,0.0,0.0,0.0,0.0,0.0,0.0,0.0,0.0,0.0,0.0,0.0,0.0,0.0,0.0,0.0,0.0,0.0,0.0,0.0,0.0,0.0,0.0,0.0,0.0,0.0,0.0,0.0,0.0,0.0,0.0,0.0,0.0,0.0,0.0,0.0,0.0,0.0,0.0,0.0,0.0,0.0,0.0,0.0,0.0,0.0,0.0,0.0,0.0,0.0,0.0,0.0,0.0,0.0,0.0,0.0,0.0,0.0,0.0,0.0,0.0,0.0,0.0,0.0,0.0,0.0,0.0,0.0,0.0,0.0,0.0,0.0,0.0,0.0,0.0,0.0,0.0,0.0,0.0,0.0,0.0,0.0,0.0,0.0,0.0,0.0,0.0,0.0,0.0,0.0,0.0,0.0,0.0,0.0,0.0,0.0,0.0,0.0,2.2868,2.4929,2.6469,2.6885,2.7732,2.8503,2.8993,2.9237,2.9131,2.8632,0.0,0.0,0.0,0.0,0.0,0.0,0.0,0.0,0.0,0.0,0.0,0.0,0.0,0.0,0.0,0.0,0.0,0.0,0.0,0.0,0.0,0.0,0.0,0.0,0.0,0.0,0.0,0.0,0.0,0.0,0.0,0.0,0.0,0.0,0.0,0.0,0.0,0.0,0.0,0.0,0.0,0.0,0.0,0.0,0.0,0.0,0.0,0.0,0.0,0.0,0.0,0.0,0.0,0.0,0.0,0.0,0.0,0.0,0.0,0.0,0.0,0.0,0.0,0.0,0.0,0.0,0.0,0.0,0.0,0.0,0.0,0.0,0.0,0.0,0.0,0.0,0.0,0.0,0.0,0.0,0.0,0.0,0.0,0.0,0.0,0.0,0.0,0.0,0.0,0.0,0.0,0.0,0.0,0.0,0.0,0.0,0.0,0.0,0.0,0.0,0.0,0.0,2.292,2.4798,2.6286,2.7056,2.7775,2.8422,2.9098,2.9193,2.9027,2.8566,0.0,0.0,0.0,0.0,0.0,0.0,0.0,0.0,0.0,0.0,0.0,0.0,0.0,0.0,0.0,0.0,0.0,0.0,0.0,0.0,0.0,0.0,0.0,0.0,0.0,0.0,0.0,0.0,0.0,0.0,0.0,0.0,0.0,0.0,0.0,0.0,0.0,0.0,0.0,0.0,0.0,0.0,0.0,0.0,0.0,0.0,0.0,0.0,0.0,0.0,0.0,0.0,0.0,0.0,0.0,0.0,0.0,0.0,0.0,0.0,0.0,0.0,0.0,0.0,0.0,0.0,0.0,0.0,0.0,0.0,0.0,0.0,0.0,0.0,0.0,0.0,0.0,0.0,0.0,0.0,0.0,0.0,0.0,0.0,0.0,0.0,0.0,0.0,0.0,0.0,0.0,0.0,0.0,0.0,0.0,0.0,0.0,0.0,0.0,0.0,0.0,0.0,2.2778,2.4712,2.6282,2.7343,2.7863,2.8348,2.888,2.8715,2.8389,2.7857,0.0,0.0,0.0,0.0,0.0,0.0,0.0,0.0,0.0,0.0,0.0,0.0,0.0,0.0,0.0,0.0,0.0,0.0,0.0,0.0,0.0,0.0,0.0,0.0,0.0,0.0,0.0,0.0,0.0,0.0,0.0,0.0,0.0,0.0,0.0,0.0,0.0,0.0,0.0,0.0,0.0,0.0,0.0,0.0,0.0,0.0,0.0,0.0,0.0,0.0,0.0,0.0,0.0,0.0,0.0,0.0,0.0,0.0,0.0,0.0,0.9261,0.8873,0.0,0.0,0.0,0.0,0.0,0.0,0.0,0.0,0.0,0.0,0.0,0.0,0.0,0.0,0.0,0.0,0.0,0.0,0.0,0.0,0.0,0.0,0.0,0.0,0.0,0.0,0.0,0.0,0.0,0.0,0.0,0.0,0.0,0.0,0.0,0.0,0.0,0.0,0.0,0.0,2.2698,2.4184,2.5862,2.7741,2.7616,2.8073,2.9761,2.9163,2.852,2.8191,2.678,0.0,0.0,0.0,0.0,0.0,0.0,0.0,0.0,0.0,0.0,0.0,0.0,0.0,0.0,0.0,0.0,0.0,0.0,0.0,0.0,0.0,0.0,0.0,0.0,0.0,0.0,0.0,0.0,0.0,0.0,0.0,0.0,0.0,0.0,0.0,0.0,0.0,0.0,0.0,0.0,0.0,0.0,0.0,0.0,0.0,0.0,0.0,0.0,0.0,0.0,0.0,0.0,0.0,0.0,0.0,0.0,0.0,0.0,0.0,1.0121,0.9561,0.0,0.0,0.0,0.0,0.0,0.0,0.0,0.0,0.0,0.0,0.0,0.0,0.0,0.0,0.0,0.0,0.0,0.0,0.0,0.0,0.0,0.0,0.0,0.0,0.0,0.0,0.0,0.0,0.0,0.0,0.0,0.0,0.0,0.0,0.0,0.0,0.0,0.0,0.0,0.0,2.3314,2.4469,2.5778,2.7385,2.7498,2.7943,2.9158,2.8863,2.855,2.8294,2.6629,0.0,0.0,0.0,0.0,0.0,0.0,0.0,0.0,0.0,0.0,0.0,0.0,0.0,0.0,0.0,0.0,0.0,0.0,0.0,0.0,0.0,0.0,0.0,0.0,0.0,0.0,0.0,0.0,0.0,0.0,0.0,0.0,0.0,0.0,0.0,0.0,0.0,0.0,0.0,0.0,0.0,0.0,0.0,0.0,0.0,0.0,0.0,0.0,0.0,0.0,0.0,0.0,0.0,1.0235,1.0711,1.0976,1.1207,1.1471,1.1684,1.1247,1.0608,0.9819,0.9411,0.0,0.0,0.0,0.0,0.0,0.0,0.0,0.0,0.0,0.0,0.0,0.0,0.0,0.0,0.0,0.0,0.0,0.0,0.0,0.0,0.0,0.0,0.9422,0.968,1.0343,1.0977,1.1151,0.0,0.0,0.0,0.0,0.0,0.0,0.0,0.0,0.0,0.0,0.0,2.3817,2.485,2.5851,2.7084,2.7467,2.7913,2.8542,2.8635,2.8517,2.8268,2.6544,2.5213,0.0,0.0,0.0,0.0,0.0,0.0,0.0,0.0,0.0,0.0,0.0,0.0,0.0,0.0,0.0,0.0,0.0,0.0,0.0,0.0,0.0,0.0,0.0,0.0,0.0,0.0,0.0,0.0,0.0,0.0,0.0,0.0,0.8346,0.8142,0.0,0.0,0.0,0.0,0.0,0.0,0.0,0.0,0.0,0.0,0.0,0.0,0.0,0.8276,0.8981,0.9388,0.9961,1.0777,1.1433,1.2067,1.2655,1.2716,1.2792,1.2952,1.291,0.0,1.0848,1.0469,0.0,0.0,0.0,0.0,0.0,0.0,0.0,0.0,0.0,0.0,0.0,0.0,0.0,0.0,0.0,0.0,0.0,0.0,0.0,0.0,0.0,0.0,1.0451,1.0942,1.1397,1.1891,1.2362,1.2095,1.1523,1.0898,1.2055,1.3335,0.0,0.0,0.0,0.0,0.0,0.0,2.3012,2.4417,2.6115,2.7935,2.7425,2.7831,3.0085,2.9422,2.8771,2.8471,2.719,2.6066,2.5272,2.3282,0.0,0.0,0.0,0.0,0.0,0.0,0.0,0.0,0.0,0.0,0.0,0.0,0.0,0.0,0.0,0.0,0.0,0.0,0.0,0.0,0.0,0.0,0.0,0.0,0.0,0.0,0.0,0.0,0.0,0.835,0.8644,0.8403,0.7981,0.7319,0.0,0.0,0.0,0.0,0.0,0.0,0.0,0.0,0.0,0.8433,0.9255,0.9901,1.0423,1.0974,1.1561,1.2125,1.2508,1.2993,1.3588,1.3588,1.3618,1.3644,1.3457,1.3,1.2376,1.1554,1.0546,0.9505,0.0,0.0,0.0,0.0,0.8182,0.8155,0.8315,0.8372,0.8347,0.797,0.0,0.0,0.0,0.0,0.0,0.0,0.0,0.9292,0.9204,1.0121,1.1036,1.0814,1.1308,1.1965,1.2186,1.2591,1.2725,1.2022,1.2775,1.3691,1.424,1.5576,0.0,0.0,0.0,2.2629,2.3673,2.4901,2.6045,2.6997,2.7595,2.8271,2.9048,2.9222,2.9009,2.8243,2.7199,2.6285,2.556,2.3744,2.2561,0.0,0.0,0.0,0.0,0.0,0.0,0.0,0.0,0.0,0.0,0.0,0.0,0.0,0.0,0.0,0.0,0.0,0.0,0.0,0.0,0.0,0.0,0.0,0.0,0.0,0.0,0.0,0.0,0.8928,0.9089,0.8847,0.8592,0.8067,0.0,0.0,0.0,0.0,0.0,0.0,0.7563,0.8567,0.9267,0.9639,1.0703,1.1522,1.1888,1.2263,1.276,1.3238,1.3322,1.364,1.4074,1.413,1.413,1.4134,1.3877,1.3687,1.3399,1.2348,1.1463,1.0743,1.0308,0.9841,0.9335,0.9174,0.9065,0.9041,0.8906,0.8977,0.9118,0.8678,0.8392,0.8137,0.7518,0.0,0.0,0.0,0.0,0.9918,1.0097,1.0628,1.1111,1.0754,1.1431,1.2233,1.2297,1.3108,1.3656,1.3085,1.3574,1.4276,1.4839,1.6143,0.0,0.0,0.0,2.2674,2.4133,2.5134,2.5804,2.6044,2.7506,2.8316,2.8031,2.8917,2.9059,2.8069,2.7259,2.6441,2.5567,2.4056,2.2902,2.209,0.0,0.0,0.0,0.0,0.0,0.0,0.0,0.0,0.0,0.0,0.0,0.0,0.0,0.0,0.0,0.0,0.0,0.0,0.0,0.0,0.0,0.0,0.0,0.0,0.0,0.0,0.0,0.0,0.0,1.0034,1.0035,0.0,0.0,0.0,0.0,0.8081,0.8502,0.8876,0.9261,1.0604,1.1323,1.1379,1.2063,1.2671,1.3214,1.2753,1.2944,1.3739,1.3567,1.3761,1.4267,1.4424,1.4483,1.4506,1.4602,1.4231,1.342,1.2625,1.2125,1.1737,1.0855,1.0319,1.0086,0.9356,0.9243,0.9411,0.9078,0.9201,0.9485,0.9434,0.8953,0.8275,0.7839,0.8495,0.0,0.0,0.9435,1.0426,0.9856,0.9985,1.0516,1.1493,1.2356,1.3058,1.3455,1.3871,1.4058,1.3717,1.471,1.5775,1.6294,0.0,1.9263,2.0388,2.1894,2.3124,2.3824,2.4563,2.5252,2.5741,2.673,2.7572,2.803,2.8748,2.8818,2.8133,2.7685,2.6834,2.5486,2.4283,2.3305,2.2571,2.1527,0.0,0.0,0.0,0.0,0.0,0.0,0.0,0.0,0.0,0.0,0.0,0.0,0.0,0.0,0.0,0.0,0.0,0.0,0.0,0.0,0.0,0.0,0.0,0.0,0.0,0.0,0.0,0.0,1.0312,1.045,0.0,0.8648,0.9036,0.9299,0.9118,1.0032,1.0573,1.0541,1.1595,1.2217,1.245,1.2885,1.3273,1.364,1.3402,1.3524,1.395,1.3885,1.401,1.4451,1.4506,1.4506,1.4451,1.4121,1.3812,1.3631,1.2901,1.2429,1.211,1.1801,1.1507,1.1145,1.0608,1.0482,1.0598,1.0295,1.0295,1.0509,1.0263,0.9931,0.9549,0.9385,0.976,1.0235,0.9996,1.0523,1.1019,1.0651,1.1015,1.1626,1.184,1.2451,1.3006,1.3326,1.3704,1.3998,1.4274,1.4966,1.5657,1.6173,1.7516,1.8827,1.9631,2.0802,2.2018,2.3198,2.4176,2.499,2.5699,2.7041,2.7476,2.6596,2.7295,2.715,2.5615,2.5069,2.4503,2.3766,2.2644,2.1998,2.189,2.1598,2.1118,0.0,0.0,0.0,0.0,0.0,0.0,0.0,0.0,0.0,0.0,0.0,0.0,0.0,0.0,0.0,0.0,0.0,0.0,0.0,0.0,0.0,0.0,0.0,0.0,0.0,0.0,1.0954,1.1011,1.116,1.0931,1.0104,1.0265,1.047,1.0564,1.1317,1.1814,1.1842,1.2538,1.3053,1.3292,1.3666,1.3872,1.4005,1.3945,1.4005,1.4185,1.413,1.4263,1.451,1.4561,1.4506,1.4391,1.3945,1.3696,1.364,1.3159,1.2797,1.249,1.249,1.2425,1.21,1.1555,1.1453,1.1511,1.1076,1.1027,1.1073,1.0759,1.0639,1.0508,1.0397,1.0594,1.0963,1.1061,1.1199,1.1279,1.1326,1.1752,1.21,1.2031,1.2587,1.3105,1.2994,1.3451,1.3987,1.442,1.5286,1.6017,1.6389,1.7818,1.9132,1.9707,2.0611,2.1453,2.2228,2.3166,2.3859,2.4156,2.5675,2.6315,2.5401,2.6202,2.6056,2.453,2.3695,2.3121,2.2737,2.1725,2.1267,2.151,2.1112,2.0811,2.061,0.0,0.0,0.0,0.0,0.0,0.0,0.0,0.0,0.0,0.0,0.0,0.0,0.0,0.0,0.0,0.0,0.0,0.0,0.0,0.0,0.0,0.0,0.0,0.943,1.1005,1.2177,1.2319,1.2296,1.2374,1.2534,1.1515,1.1266,1.2465,1.2279,1.2454,1.3072,1.3629,1.3905,1.3905,1.4272,1.4474,1.4474,1.4304,1.4304,1.4474,1.4378,1.4391,1.451,1.4661,1.4547,1.4272,1.4194,1.3881,1.3446,1.3329,1.3099,1.2805,1.2924,1.2985,1.2879,1.2107,1.1976,1.2086,1.1428,1.1164,1.1073,1.0956,1.1036,1.103,1.0715,1.0952,1.1412,1.1748,1.1416,1.1237,1.1939,1.1954,1.1885,1.21,1.287,1.3301,1.2609,1.3224,1.3964,1.407,1.5558,1.6914,1.7117,1.8794,2.0243,2.0536,2.1224,0.0,2.1039,2.1595,2.178,2.1114,2.2545,2.3846,2.4601,2.5374,2.5561,2.4965,2.3771,2.2869,2.2431,2.1607,2.1225,2.1383,2.0054,1.9541,1.9923,0.0,0.0,0.0,0.0,0.0,0.0,0.0,0.0,0.0,0.0,0.0,0.0,0.0,0.0,0.0,0.0,0.0,0.0,0.0,0.0,0.0,0.0,1.0826,1.1078,1.2022,1.2838,1.3341,1.382,1.393,1.3507,1.3378,1.3241,1.3104,1.3442,1.371,1.3656,1.4112,1.4341,1.4341,1.4195,1.4189,1.4323,1.4134,1.4134,1.4378,1.468,1.4625,1.4332,1.4602,1.4419,1.3894,1.364,1.3398,1.3103,1.292,1.274,1.2687,1.2683,1.2617,1.2417,1.1889,1.1548,1.1421,1.1294,1.1173,1.1174,1.1454,1.161,1.1591,1.1688,1.1897,1.2121,1.2105,1.2044,1.208,1.2358,1.2634,1.2881,1.3195,1.3446,1.3428,1.2963,1.3085,1.3366,1.3425,1.4863,1.6167,1.6668,1.7734,1.8426,1.8221,1.8945,1.9709,2.0214,2.073,2.1272,2.1696,2.2055,2.2094,2.1577,2.1785,2.1657,2.102,2.0247,1.9555,1.8859,1.8316,1.8423,1.923,1.8839,1.9256,0.0,0.0,0.0,0.0,0.0,0.0,0.0,0.0,0.0,0.0,0.0,0.0,0.0,0.0,0.0,0.0,0.0,0.0,0.0,0.0,0.0,0.0,1.0599,1.1771,1.238,1.3086,1.3795,1.4364,1.4679,1.4869,1.4749,1.4349,1.4007,1.3928,1.4068,1.4132,1.4135,1.4382,1.4506,1.4556,1.4364,1.4369,1.4561,1.4369,1.4364,1.4492,1.468,1.4561,1.4203,1.4369,1.4121,1.358,1.3281,1.3099,1.2928,1.2687,1.2625,1.2621,0.0,0.0,0.0,0.0,1.1596,1.1229,1.1348,1.1381,1.1435,1.1498,1.1531,1.1543,1.1718,1.1842,1.2064,1.2452,1.2505,1.2528,1.2976,1.3229,1.3336,1.3403,1.3421,1.3284,1.266,1.2838,1.3028,1.2941,1.3892,0.0,1.5409,1.6805,1.7681,1.713,1.7676,1.8333,1.8684,1.9101,1.9359,1.9262,2.0055,2.0341,1.9697,2.0316,0.0,0.0,0.0,1.7847,1.6827,1.7225,0.0,0.0,0.0,1.8724,1.9554,1.7346,0.0,0.0,1.5069,1.5262,0.0,0.0,0.0,0.0,0.0,0.0,0.0,0.0,0.0,0.0,0.0,0.0,0.0,0.0,0.0,0.0,1.1354,1.2294,1.3311,1.4014,1.4692,1.5252,1.5217,1.5491,1.6146,1.4898,1.4216,1.4777,1.4322,1.4174,1.4552,0.0,0.0,0.0,0.0,1.4779,1.4916,1.472,1.4656,1.4656,1.4556,1.4323,1.401,1.4005,1.37,1.3208,1.3042,1.2928,1.2744,1.2621,1.256,1.2498,1.2801,1.2801,1.2638,1.2254,1.1778,1.1305,1.1477,0.0,0.0,1.1267,1.1193,1.1193,1.126,1.1368,1.1628,1.2582,1.2728,1.2738,1.3541,1.3685,1.3498,1.3168,1.318,1.3059,1.2087,1.2352,1.275,1.2458,1.2742,1.3207,1.3541,1.5654,1.7097,1.6546,1.6727,1.6896,1.6674,1.6899,1.6695,1.5666,1.7115,0.0,1.8119,1.9406,1.9777,1.8649,1.7791,1.6767,1.5532,1.6538,1.7675,1.8887,1.7852,1.7343,1.7356,1.4022,1.1775,1.0843,1.5831,1.7011,0.0,0.0,0.0,0.0,0.0,0.0,0.0,0.0,0.0,0.0,0.0,0.0,0.0,0.0,0.0,1.1319,1.2268,1.3062,1.3663,1.4014,1.4474,1.5195,1.5965,1.6544,1.6826,1.5904,1.5369,1.5405,1.5007,1.4827,1.4911,1.5132,1.5132,1.497,1.4775,1.4666,1.4629,1.4446,1.4442,1.4565,1.4606,0.0,1.383,1.3945,1.3588,1.292,1.2867,1.2744,1.2625,1.2432,1.212,1.1813,1.2123,1.2182,1.1984,1.1796,1.1523,1.1337,1.1527,1.119,1.0819,1.142,1.1353,1.1138,1.1632,1.1752,0.0,1.1984,1.248,1.3026,1.3254,1.3833,1.4194,1.3728,1.3449,1.2905,1.1889,1.1691,1.1578,1.1204,1.1384,1.1487,1.1162,1.2777,1.414,1.428,1.3932,1.4042,1.4922,1.481,1.4944,1.5651,1.4566,1.3933,1.4397,1.4034,1.3873,1.3981,1.3493,1.3184,1.2988,1.0642,1.0229,1.213,1.1612,1.2377,1.463,1.2136,1.1266,1.1895,0.9937,0.9319,0.0,0.0,0.0,0.0,0.0,0.0,0.0,0.0,0.0,0.0,0.0,0.728,0.0,0.0,1.0548,1.138,1.2406,1.3152,1.3248,1.3823,1.4474,1.5247,1.5918,1.643,1.6668,1.6233,1.5889,1.5763,1.5376,1.5088,1.5074,1.5064,1.501,1.4843,1.467,1.4611,1.4611,1.4382,1.4327,1.4391,1.4373,1.4116,1.364,1.3528,1.3229,1.2683,1.2617,1.2334,1.198,1.163,1.1316,1.1017,1.1197,1.1393,1.1553,1.1494,1.1432,1.1432,1.1432,1.1244,1.1066,1.1108,1.0894,1.077,1.1069,1.1227,1.1403,1.1833,1.2343,1.2868,1.3081,1.3273,1.3298,1.3086,1.2505,1.1817,1.109,1.0751,1.0488,1.0104,1.01,1.0034,0.981,1.01,1.0693,1.1671,1.1579,1.1744,1.2731,1.2488,1.2414,1.3212,1.3148,1.3055,1.3033,1.2365,1.1472,1.0372,1.0446,1.0448,1.0138,0.8393,0.7967,0.9137,0.8966,0.9482,1.0668,1.019,0.9636,0.8928,0.572,0.3837,0.0,0.0,0.0,0.0,0.0,0.0,0.0,0.0,0.6532,0.7122,0.7392,0.7843,0.8797,0.9834,1.0775,1.1364,1.2325,1.2982,1.2813,1.3506,1.4295,1.5047,1.5542,1.6017,1.6327,1.6066,1.5874,1.57,1.525,1.5015,1.4991,1.4765,1.4652,1.4588,1.4419,1.4419,1.4533,1.4236,1.4127,1.4267,1.401,1.3721,1.3284,1.2995,1.2659,1.2292,1.2167,1.1827,1.1322,1.0877,1.0537,1.0315,1.0317,1.0706,1.1206,1.1149,1.1185,1.1312,1.1124,1.1127,1.1131,1.0625,1.0414,1.0321,1.0442,1.0658,1.0974,1.166,1.2102,1.235,1.2678,1.2452,1.2095,1.196,1.1316,1.061,1.0082,0.9656,0.9306,0.8955,0.8675,0.8437,0.823,0.7518,0.7686,0.9728,0.9588,0.969,1.0744,1.0075,0.9639,1.0069,1.1252,1.1635,1.0689,1.0643,0.9739,0.7659,0.7949,0.7986,0.7492,0.6665,0.6318,0.6615,0.6662,0.6622,0.645,0.7261,0.6777,0.506,0.2477,0.0267,1.0474,0.9325,0.8368,0.8244,0.7972,0.7898,0.0,0.0,0.7764,0.829,0.8584,0.8942,0.9783,1.0441,1.119,1.2199,1.2368,1.2559,1.3074,1.3095,1.3298,1.4008,1.5041,1.5806,1.613,1.5642,1.5235,1.5005,1.4579,1.4332,1.4328,1.4465,1.4465,1.4273,1.383,1.3772,1.4065,1.3592,1.3534,1.401,1.37,1.3284,1.2693,1.2331,1.1862,1.1272,1.1386,1.1306,1.11,1.0709,1.0351,1.0156,1.0142,1.0402,1.0788,1.0459,1.0414,1.0472,1.0247,1.0065,1.0065,1.0253,1.0177,1.014,1.0669,1.0882,1.0929,1.1031,1.1289,1.1568,1.1519,1.17,1.1789,1.112,1.062,1.0049,0.9306,0.8529,0.7794,0.7427,0.6701,0.592,0.5235,0.5168,0.6333,0.957,0.8437,0.7756,0.9401,0.7822,0.6863,0.7701,0.683,0.5433,0.3391,0.5069,0.6203,0.6112,0.571,0.5503,0.5701,0.2777,0.137,0.17,0.1409,0.1836,0.2934,0.2048,0.2059,0.2867,-0.0,-0.048,1.0071,0.9434,0.0,0.0,0.878,0.8889,0.9121,0.8875,0.878,0.9396,0.9682,1.0017,1.088,1.1269,1.1674,0.0,1.2328,1.2421,1.2754,1.2715,1.2879,1.3493,1.3918,1.4464,1.5079,1.4797,1.4605,1.4787,1.4451,1.4209,1.4209,1.4107,1.3992,1.3799,1.3536,1.3472,1.3575,1.3181,1.3065,1.3285,1.2823,1.2468,1.2275,1.1858,1.1644,1.1499,1.1189,1.1107,1.1033,1.0552,1.025,1.0149,1.0165,1.0106,1.0093,1.0265,1.0582,1.0843,1.0256,1.0074,1.0072,1.0162,1.0119,1.0111,1.0306,1.0249,1.0135,0.9972,0.9862,0.9751,0.9517,0.9385,0.9224,0.8814,0.8142,0.7505,0.6965,0.6237,0.5663,0.5421,0.4592,0.3842,0.3324,0.2584,0.2539,0.3975,0.4314,0.4553,0.5025,0.4226,0.3939,0.4762,0.4128,0.2285,-0.1154,-0.0057,0.0952,0.1402,0.0816,0.06,0.0916,-0.1511,-0.2821,-0.2776,-0.381,-0.3779,-0.2653,-0.2176,-0.2567,-0.374,-0.6337,-0.7729,0.9584,0.0,0.0,0.9245,0.9522,0.9842,0.9739,0.9569,0.9644,1.0348,1.0388,1.0527,1.1449,1.1673,1.1773,1.2126,1.2175,1.2175,1.2224,1.2328,1.2535,1.2725,1.2656,1.2925,1.3566,1.3727,1.3917,1.4083,1.3853,1.3679,1.3739,1.3515,1.3277,1.3147,1.2926,1.2918,1.3086,1.2696,1.2582,1.2679,1.2181,1.1892,1.1791,1.1282,1.1189,1.1336,1.0921,1.0764,1.0861,1.04,1.0143,0.9963,1.005,0.9783,0.9455,0.9778,1.0227,1.0584,0.9957,0.9876,1.0002,0.9788,0.972,0.9724,0.9429,0.9246,0.9087,0.8871,0.8559,0.8224,0.7967,0.762,0.7211,0.6916,0.619,0.5459,0.5046,0.4626,0.4241,0.4016,0.307,0.1913,0.0856,-0.0185,-0.105,-0.1533,-0.0428,0.0365,0.0,0.0233,0.0742,0.149,0.1489,-0.0057,-0.3686,-0.3151,-0.3198,-0.4581,-0.4175,-0.4201,-0.4967,-0.593,-0.6624,-0.693,-0.8139,-0.8514,-0.8062,-0.6764,-0.7199,-0.929,-1.1246,-1.3156,0.0,0.0,0.9778,0.9782,1.0302,1.0889,1.0986,1.0553,1.0299,1.1077,1.0565,1.023,1.1299,1.1322,1.1322,1.1828,1.1773,1.1673,1.1528,1.1977,1.2081,1.144,1.1431,1.1481,0.0,1.2435,1.2922,1.2701,1.2486,1.2428,1.2625,1.2309,1.2185,1.2301,1.185,1.1895,1.2544,1.2086,1.197,1.2301,1.2174,1.1752,1.1126,1.0457,1.0203,1.0322,1.0315,1.0311,1.0308,1.0297,0.995,0.9442,0.9623,0.9496,0.9066,0.8754,0.8809,0.9049,0.8887,0.9088,0.9333,0.8801,0.8844,0.8883,0.8019,0.7861,0.7935,0.7776,0.7605,0.7438,0.7507,0.7158,0.6677,0.6015,0.5396,0.4863,0.424,0.429,0.4248,0.3732,0.225,0.019,-0.2789,-0.3172,-0.3715,-0.547,-0.5239,-0.4889,-0.5073,-0.3901,-0.2808,-0.209,-0.1648,-0.2143,-0.4025,-0.3195,-0.5277,-1.148,-0.8504,-0.806,-1.155,-1.0346,-0.9951,-1.0819,-1.1192,-1.1735,-1.2509,-1.2176,-1.1948,-1.1808,-1.2873,-1.3992,0.8896,0.0,0.9475,1.0124,1.0338,1.0592,1.1116,1.0969,1.0814,1.0994,1.0717,1.049,1.0602,1.0743,1.0885,1.1107,1.1245,1.1326,1.1473,1.125,1.0986,1.0834,1.0529,0.0,0.0,0.0,0.0,1.1249,1.1488,1.1437,1.0909,1.0983,1.1104,1.1218,1.1141,1.1248,1.1598,1.1402,1.1327,1.1303,1.0969,1.0641,1.0295,1.013,1.0254,1.0489,1.0157,1.0006,0.9993,0.9743,0.9487,0.9233,0.9273,0.8969,0.8524,0.8528,0.8202,0.778,0.7993,0.809,0.8078,0.7806,0.7635,0.7551,0.7461,0.7226,0.7028,0.6903,0.6579,0.6137,0.5725,0.5217,0.4699,0.4112,0.337,0.2683,0.227,0.1818,0.1185,0.0126,-0.1388,-0.3099,-0.5106,-0.6495,-0.7659,-0.8649,-0.6802,-0.5516,-0.6032,-0.5616,-0.5267,-0.5173,-0.5626,-0.6048,-0.6387,-0.7103,-0.817,-0.9515,-0.987,-1.061,-1.1845,-1.2707,-1.3379,-1.3911,-1.5527,-1.6319,-1.6295,-1.6467,-1.7163,-1.8337,-1.8279,-1.9244,0.8833,0.9089,0.95,1.0212,1.0477,1.0588,1.085,1.086,1.0723,1.046,1.0213,1.0092,1.0104,1.0055,1.012,1.0446,1.0475,1.0448,1.0452,1.0289,1.0054,0.9732,0.9519,0.9117,0.0,0.0,0.0,0.9922,1.034,1.0408,1.0067,1.0189,1.0254,1.0247,1.0324,1.0429,1.0485,1.0447,1.036,1.0176,0.9742,0.9535,0.9418,0.9475,0.9637,0.98,0.9484,0.9342,0.9329,0.9098,0.8789,0.8519,0.8455,0.8071,0.7489,0.7583,0.7112,0.6598,0.7386,0.7464,0.7222,0.7001,0.6781,0.6539,0.6416,0.6217,0.5946,0.5406,0.4708,0.3891,0.3297,0.2692,0.2141,0.1558,0.1011,0.0449,-0.0,-0.0385,-0.1023,-0.2541,-0.3955,-0.5618,-0.7888,-0.9403,-1.044,-1.0904,-0.9267,-0.7897,-0.7776,-0.7642,-0.7544,-0.7565,-0.8241,-0.8579,-0.841,-0.9926,-1.085,-1.0853,-1.2411,-1.361,-1.4211,-1.538,-1.6443,-1.7295,-1.8745,-1.9681,-2.0073,-1.9912,-2.0715,-2.2365,-2.1817,-2.2506,0.9151,0.9536,0.9814,1.0115,1.0576,1.0783,1.0269,1.0168,1.0031,0.9584,0.9199,0.9107,0.0,0.0,0.9041,0.9735,0.9479,0.9036,0.8653,0.9177,0.9234,0.0,0.0,0.0,0.0,0.0,0.0,0.8659,0.0,0.9453,1.0036,0.9795,0.9616,0.9385,0.9398,0.935,0.9243,0.9256,0.9149,0.9038,0.8733,0.8554,0.8554,0.844,0.8384,0.8384,0.8313,0.8305,0.8305,0.829,0.7913,0.741,0.7233,0.6766,0.6154,0.6012,0.5677,0.5466,0.6936,0.7091,0.6632,0.6204,0.6107,0.5898,0.4927,0.4755,0.4685,0.3575,0.2176,0.0992,0.0641,-0.0,-0.0792,-0.1602,-0.166,-0.1728,-0.255,-0.2233,-0.2417,-0.4335,-0.5612,-0.7467,-1.1224,-1.1942,-1.207,-1.2332,-1.2581,-1.211,-1.0348,-0.9894,-0.9681,-0.9433,-0.9533,-0.9786,-1.0166,-1.1576,-1.331,-1.5349,-1.5978,-1.7003,-1.8536,-1.8334,-1.8985,-2.0604,-2.0714,-2.1685,-2.3547,-2.2539,-2.2646,-2.3852,-2.345,-2.3686,0.8765,0.8897,0.9089,0.9762,0.9271,0.8856,0.9603,0.9563,0.9349,0.9292,0.9188,0.8916,0.0,0.0,0.0,0.8213,0.866,0.0,0.8287,0.7959,0.0,0.7177,0.0,0.6245,0.5892,0.602,0.0,0.0,0.752,0.8175,0.7923,0.8032,0.809,0.8035,0.8332,0.8494,0.8494,0.8404,0.8387,0.8328,0.8153,0.8097,0.8097,0.7914,0.7852,0.7841,0.7428,0.7179,0.7167,0.6658,0.6392,0.6232,0.5896,0.5703,0.5517,0.5436,0.5005,0.4529,0.4962,0.52,0.5175,0.4849,0.4419,0.4062,0.3928,0.3826,0.3579,0.2865,0.1518,0.0133,-0.0459,-0.1117,-0.2043,-0.3576,-0.3589,-0.3731,-0.5187,-0.5074,-0.5341,-0.7384,-0.9315,-1.126,-1.327,-1.3589,-1.376,-1.4393,-1.4422,-1.3773,-1.2012,-1.176,-1.1796,-1.1895,-1.2199,-1.2478,-1.2816,-1.4017,-1.5239,-1.6306,-1.7141,-1.7934,-1.8663,-1.9308,-1.9751,-1.9935,-2.1193,-2.2168,-2.2856,-2.3471,-2.4062,-2.4629,-2.5211,-2.5339,0.8001,0.8187,0.8397,0.8672,0.8359,0.8036,0.84,0.8408,0.8235,0.8059,0.8037,0.0,0.0,0.0,0.0,0.0,0.0,0.0,0.6895,0.6558,0.6261,0.0,0.5453,0.0,0.4742,0.4795,0.4875,0.0,0.6187,0.695,0.6802,0.6864,0.6918,0.6918,0.7154,0.722,0.722,0.719,0.7195,0.725,0.7081,0.7086,0.7203,0.6912,0.691,0.7076,0.656,0.6451,0.6498,0.5934,0.5661,0.5561,0.5059,0.4891,0.4845,0.448,0.4191,0.3913,0.3703,0.374,0.3907,0.3744,0.3451,0.3232,0.3457,0.2955,0.2286,0.1956,-0.0327,-0.2675,-0.2602,-0.347,-0.4574,-0.5575,-0.5706,-0.5994,-0.7297,-0.7598,-0.8193,-1.0247,-1.2033,-1.3564,-1.4653,-1.4962,-1.5259,-1.5801,-1.6065,-1.57,-1.4275,-1.371,-1.335,-1.3125,-1.3511,-1.3971,-1.4413,-1.5525,-1.6507,-1.7344,-1.8226,-1.8986,-1.9554,-2.021,-2.0711,-2.1011,-2.2055,-2.284,-2.3307,-2.4126,-2.4581,-2.4706,-2.5371,-2.539,0.7237,0.7526,0.7765,0.7439,0.7582,0.7648,0.7089,0.7038,0.6987,0.6473,0.0,0.6561,0.6605,0.6144,0.5769,0.597,0.0,0.5252,0.5128,0.5196,0.5058,0.4487,0.4414,0.4318,0.4013,0.3978,0.4028,0.4171,0.5003,0.5714,0.6197,0.6095,0.6043,0.6152,0.5998,0.5948,0.5948,0.5948,0.5998,0.6102,0.5882,0.5939,0.6275,0.5784,0.5852,0.6318,0.5938,0.594,0.6163,0.5629,0.5373,0.5197,0.4507,0.4229,0.4125,0.3528,0.3411,0.3391,0.2871,0.27,0.2812,0.3022,0.2971,0.2885,0.3255,0.2218,0.099,0.0824,-0.2475,-0.5854,-0.515,-0.6092,-0.7356,-0.7653,-0.7966,-0.8446,-0.9349,-1.0085,-1.1044,-1.2788,-1.3998,-1.4897,-1.5553,-1.6138,-1.6579,-1.6756,-1.7443,-1.7577,-1.6576,-1.5522,-1.4625,-1.3862,-1.4223,-1.4795,-1.5469,-1.6515,-1.7565,-1.851,-1.939,-2.0162,-2.0838,-2.1054,-2.1581,-2.2427,-2.2818,-2.3315,-2.3981,-2.4413,-2.4571,-2.4447,-2.4863,-2.4802,0.7312,0.7139,0.6949,0.6996,0.6648,0.6271,0.6124,0.6119,0.0,0.0,0.0,0.6296,0.5805,0.6094,0.0,0.5563,0.0,0.0,0.0,0.0,0.3946,0.0,0.0,0.0,0.0,0.0,0.0,0.0,0.3913,0.4182,0.5115,0.5117,0.5336,0.5828,0.5727,0.5732,0.5848,0.5732,0.5675,0.5729,0.5502,0.5502,0.5732,0.562,0.5708,0.5914,0.5859,0.5916,0.6035,0.5011,0.471,0.4793,0.3929,0.3461,0.3285,0.3383,0.3154,0.2773,0.2529,0.2391,0.238,0.2819,0.2791,0.2569,0.2523,0.1561,0.0246,-0.0679,-0.315,-0.5571,-0.6203,-0.7302,-0.8633,-1.0036,-1.0294,-1.0692,-1.2482,-1.3365,-1.4028,-1.4641,-1.5084,-1.5588,-1.6271,-1.6835,-1.7268,-1.7705,-1.8317,-1.8361,-1.7348,-1.676,-1.612,-1.5297,-1.5404,-1.586,-1.6629,-1.7723,-1.8863,-1.9953,-2.1163,-2.177,-2.1711,-2.1888,-2.176,-2.123,-2.2031,-2.2573,-2.2891,-2.3839,-2.4416,-2.4678,-2.5446,-2.5424,0.6623,0.6506,0.6343,0.6398,0.6057,0.5694,0.5715,0.0,0.0,0.0,0.0,0.5436,0.5078,0.0,0.0,0.0,0.0,0.0,0.0,0.0,0.0,0.0,0.0,0.0,0.0,0.0,0.0,0.201,0.2145,0.2685,0.3674,0.4067,0.4345,0.4567,0.4682,0.4796,0.4853,0.4796,0.4849,0.5013,0.4847,0.4903,0.523,0.4959,0.5062,0.5426,0.523,0.5206,0.5208,0.4538,0.4134,0.3959,0.3311,0.2981,0.283,0.2726,0.2614,0.2453,0.2084,0.2003,0.205,0.1924,0.1869,0.1785,0.1401,0.0355,-0.0902,-0.1886,-0.398,-0.6076,-0.6863,-0.8134,-0.9425,-1.0524,-1.1402,-1.2422,-1.3996,-1.4762,-1.5262,-1.5648,-1.6148,-1.6663,-1.7108,-1.758,-1.8117,-1.8639,-1.8864,-1.8838,-1.8531,-1.8221,-1.7632,-1.6617,-1.6828,-1.7225,-1.7572,-1.8657,-1.9587,-2.029,-2.1466,-2.2163,-2.215,-2.2444,-2.2401,-2.1945,-2.2574,-2.3026,-2.3226,-2.3961,-2.439,-2.4551,-2.5153,-2.5183,0.5826,0.585,0.5811,0.5848,0.5583,0.5353,0.5251,0.4776,0.0,0.0,0.4641,0.4456,0.4403,0.0,0.0,0.0,0.0,0.0,0.0,0.0,0.0,0.0,0.0,0.0,0.0,0.0,0.0,-0.0168,0.0327,0.114,0.223,0.2957,0.335,0.3301,0.3634,0.3855,0.3967,0.3912,0.4022,0.4406,0.4189,0.4298,0.468,0.4501,0.4701,0.5133,0.5007,0.4774,0.4596,0.4196,0.3739,0.3285,0.2738,0.2501,0.2451,0.2246,0.2188,0.2189,0.1568,0.1369,0.13,0.0567,0.056,0.0731,0.0287,-0.0867,-0.2206,-0.2964,-0.4849,-0.6865,-0.7566,-0.8924,-1.0328,-1.1173,-1.2556,-1.3935,-1.4846,-1.5511,-1.6033,-1.6466,-1.7214,-1.7834,-1.7955,-1.8365,-1.8882,-1.9303,-1.9295,-1.9325,-1.9529,-1.9543,-1.9141,-1.8076,-1.8256,-1.8458,-1.8555,-1.9525,-2.0283,-2.0751,-2.1771,-2.249,-2.2724,-2.3016,-2.3124,-2.3062,-2.3428,-2.3684,-2.3868,-2.4273,-2.4491,-2.4561,-2.4826,-2.4907,0.5391,0.5341,0.5261,0.5285,0.5062,0.4756,0.4248,0.0,0.0,0.3451,0.366,0.3838,0.3694,0.0,0.0,0.0,0.0,0.2435,0.0,0.0,0.0,0.0,0.0,0.0,0.0,0.0,0.0,-0.1566,-0.1285,-0.0447,0.1005,0.2009,0.2679,0.3019,0.313,0.3408,0.391,0.3634,0.3635,0.4022,0.3796,0.3795,0.4081,0.4777,0.5151,0.5239,0.5769,0.5583,0.4892,0.4137,0.367,0.3325,0.2437,0.1957,0.1864,0.2335,0.222,0.1722,0.0751,0.0122,-0.0302,-0.1138,-0.1059,-0.0668,-0.0614,-0.2003,-0.3664,-0.4125,-0.5773,-0.767,-0.8682,-1.0105,-1.1724,-1.3464,-1.4514,-1.517,-1.5451,-1.6219,-1.7021,-1.7544,-1.8205,-1.8707,-1.8784,-1.9117,-1.9384,-1.9332,-1.9718,-1.9925,-1.9718,-2.0257,-2.0489,-2.0058,-1.9381,-1.9148,-1.9707,-2.0551,-2.1429,-2.2237,-2.3088,-2.3636,-2.383,-2.3777,-2.3657,-2.3531,-2.3819,-2.3993,-2.4072,-2.4485,-2.4801,-2.5038,-2.5128,-2.5167,0.5269,0.5193,0.5099,0.5226,0.4741,0.4269,0.4376,0.0,0.3325,0.3476,0.3456,0.339,0.3157,0.3086,0.0,0.0,0.0,0.0,0.0,0.0,0.0,0.0,0.0,0.0,0.0,0.0,-0.2058,-0.2341,-0.1786,-0.1563,-0.195,-0.0167,0.0893,0.106,0.1284,0.1675,0.2345,0.2347,0.2683,0.3351,0.3296,0.3408,0.3637,0.4079,0.4236,0.4188,0.4535,0.4482,0.4009,0.3491,0.296,0.2385,0.179,0.1297,0.0916,0.1164,0.1298,0.1172,-0.0249,-0.1031,-0.1598,-0.2882,-0.3894,-0.4388,-0.3105,-0.37,-0.5064,-0.6164,-0.7368,-0.8646,-1.0093,-1.18,-1.3363,-1.4392,-1.5175,-1.5844,-1.6256,-1.7021,-1.77,-1.7995,-1.8429,-1.886,-1.9035,-1.9317,-1.9709,-2.0227,-2.0371,-2.0499,-2.0821,-2.1023,-2.1133,-2.1077,-2.071,-2.0597,-2.095,-2.152,-2.217,-2.2882,-2.349,-2.3925,-2.4174,-2.4392,-2.4395,-2.4144,-2.4421,-2.4532,-2.4522,-2.4805,-2.5075,-2.5347,-2.5333,-2.5338,0.5183,0.5157,0.515,0.533,0.4726,0.4156,0.0,0.0,0.303,0.34,0.3188,0.2892,0.2663,0.2465,0.1859,0.0317,0.0,-0.077,0.0,0.0,0.0,0.0,0.0,0.0,0.0,0.0,-0.3503,-0.3613,-0.3003,-0.3118,-0.4189,-0.2396,-0.1171,-0.0782,-0.0335,0.0223,0.0894,0.1119,0.163,0.2552,0.2583,0.2769,0.3112,0.3251,0.341,0.3454,0.3628,0.3555,0.3392,0.2989,0.2418,0.1691,0.0967,0.0522,0.0261,0.0391,0.0454,0.0257,-0.1566,-0.2498,-0.3072,-0.4455,-0.5934,-0.6939,-0.5443,-0.5567,-0.6484,-0.7744,-0.8943,-1.0261,-1.1903,-1.3527,-1.4863,-1.5215,-1.5876,-1.6484,-1.6805,-1.7476,-1.8068,-1.8286,-1.8707,-1.9109,-1.9398,-1.9637,-1.9977,-2.0657,-2.0657,-2.0756,-2.1283,-2.1499,-2.1612,-2.1739,-2.1816,-2.1795,-2.1741,-2.2201,-2.2728,-2.3234,-2.3822,-2.429,-2.4565,-2.4825,-2.487,-2.4651,-2.4784,-2.4876,-2.486,-2.5082,-2.5301,-2.5527,-2.5498,-2.5493,0.5117,0.52,0.5343,0.555,0.5003,0.4413,0.0,0.0,0.3001,0.2938,0.2592,0.2333,0.2293,0.1982,0.1117,-0.0581,-0.2068,0.0,0.0,0.0,0.0,0.0,0.0,0.0,0.0,-0.4428,-0.544,-0.5857,-0.5466,0.0,-0.4976,-0.4462,-0.3512,-0.2126,-0.1174,-0.0447,0.0,0.0168,0.0741,0.1821,0.1591,0.1853,0.24,0.262,0.2982,0.3375,0.3375,0.3375,0.3324,0.2672,0.2062,0.1421,-0.0066,-0.0404,0.0067,0.0269,-0.0132,-0.1158,-0.3269,-0.4342,-0.501,-0.5843,-0.6692,-0.7378,-0.7307,-0.7551,-0.7972,-0.8376,-1.0424,-1.2753,-1.41,-1.5299,-1.6188,-1.6275,-1.6811,-1.7229,-1.7034,-1.7537,-1.8101,-1.8503,-1.9088,-1.9631,-2.003,-2.0273,-2.0368,-2.0216,-2.0379,-2.0589,-2.0786,-2.1515,-2.2019,-2.2096,-2.2563,-2.2581,-2.1845,-2.2539,-2.3115,-2.3382,-2.4262,-2.4917,-2.5178,-2.5003,-2.4933,-2.4985,-2.4867,-2.4863,-2.4998,-2.5264,-2.547,-2.56,-2.5667,-2.5634,0.4619,0.4441,0.4292,0.4151,0.3646,0.3242,0.3245,0.0,0.2464,0.2099,0.1573,0.1141,0.1047,0.0595,-0.0102,-0.1175,-0.2146,0.0,0.0,0.0,0.0,0.0,0.0,0.0,0.0,0.0,-0.6291,-0.6135,-0.5912,-0.5893,-0.6107,-0.5559,-0.4553,-0.3183,-0.2513,-0.1898,-0.1229,-0.0951,-0.0398,0.0528,0.0697,0.0946,0.1293,0.1584,0.1973,0.2346,0.2422,0.2489,0.2473,0.2245,0.1804,0.1162,0.0,-0.0538,-0.074,-0.0672,-0.0913,-0.156,-0.3353,-0.4743,-0.5864,-0.6459,-0.7506,-0.8551,-0.8577,-0.9016,-0.978,-1.123,-1.2801,-1.4188,-1.5033,-1.5776,-1.6331,-1.6576,-1.7041,-1.7503,-1.7821,-1.8319,-1.8767,-1.9011,-1.928,-1.9552,-1.9955,-2.0254,-2.0545,-2.0909,-2.1135,-2.1261,-2.1323,-2.156,-2.171,-2.1685,-2.1832,-2.2026,-2.2269,-2.2539,-2.2826,-2.3047,-2.3551,-2.4089,-2.4629,-2.4807,-2.4933,-2.4996,-2.5088,-2.5166,-2.5206,-2.5379,-2.5542,-2.5666,-2.5597,-2.5537,0.0,0.4257,0.402,0.3781,0.3337,0.0,0.0,0.0,0.1905,0.1162,0.0639,0.0139,-0.0325,-0.0957,-0.1674,0.0,0.0,0.0,0.0,0.0,0.0,0.0,0.0,0.0,0.0,-0.6609,-0.6539,-0.6769,-0.6604,-0.668,-0.7049,-0.666,-0.5908,-0.4616,-0.4044,-0.3412,-0.2665,-0.226,-0.1708,-0.0911,-0.0661,-0.0367,-0.0,0.0187,0.0626,0.1221,0.1061,0.1181,0.0,0.1217,0.0837,0.0322,-0.0929,-0.141,-0.1478,-0.1344,-0.1436,-0.1815,-0.3297,-0.4847,-0.6257,-0.7004,-0.8218,-0.9503,-1.0294,-1.0806,-1.1535,-1.3107,-1.4269,-1.5192,-1.5858,-1.6386,-1.6824,-1.7188,-1.7619,-1.8049,-1.8351,-1.8683,-1.8965,-1.9131,-1.928,-1.9552,-1.9947,-2.0254,-2.0579,-2.1047,-2.1222,-2.1309,-2.13,-2.1306,-2.1282,-2.1243,-2.1061,-2.11,-2.1516,-2.2136,-2.2583,-2.282,-2.3302,-2.3824,-2.4329,-2.4665,-2.49,-2.5068,-2.5192,-2.5303,-2.5381,-2.5428,-2.5544,-2.5689,-2.546,-2.5349,0.0,0.0,0.0,0.0,0.0,0.0,0.0,0.0,0.0,0.0,-0.0269,-0.0764,-0.1621,-0.254,-0.34,0.0,0.0,0.0,0.0,0.0,0.0,0.0,0.0,0.0,-0.7711,-0.6812,-0.6559,-0.7719,-0.7654,-0.7655,-0.798,-0.7859,-0.7325,-0.6347,-0.5644,-0.4914,-0.4169,-0.3681,-0.3117,-0.2376,-0.2254,-0.1975,-0.1544,-0.159,-0.1069,-0.0129,-0.0501,-0.0371,0.0124,-0.0383,-0.0645,-0.0839,-0.2525,-0.2753,-0.2147,-0.1814,-0.1783,-0.2058,-0.3442,-0.4884,-0.6335,-0.7756,-0.8997,-1.0346,-1.2238,-1.2805,-1.3009,-1.407,-1.4994,-1.5808,-1.6612,-1.7173,-1.7632,-1.8033,-1.8429,-1.8704,-1.8676,-1.8777,-1.8884,-1.8968,-1.9236,-1.9616,-2.0065,-2.0384,-2.0628,-2.0819,-2.0827,-2.0827,-2.0827,-2.078,-2.0765,-2.074,-2.0312,-2.0013,-2.0013,-2.1303,-2.2225,-2.2557,-2.3311,-2.3899,-2.4244,-2.4531,-2.4837,-2.5182,-2.5206,-2.532,-2.5517,-2.5439,-2.5505,-2.5677,-2.5287,-2.5141,0.3309,0.0,0.3173,0.2651,0.2463,0.0,0.0,0.0,0.0,0.0,0.0,-0.1408,-0.1734,-0.3142,-0.4056,0.0,0.0,0.0,0.0,0.0,0.0,0.0,0.0,-0.6655,-0.7876,-0.8347,-0.8617,-0.8791,-0.882,-0.8842,-0.8883,-0.8838,-0.8366,-0.7443,-0.7129,-0.6199,-0.4669,-0.4296,-0.3801,-0.3276,-0.3189,-0.2918,-0.2619,-0.265,-0.2509,-0.2187,-0.1582,-0.1512,-0.1907,-0.2658,-0.2463,-0.166,-0.2477,-0.2821,-0.2821,-0.3019,-0.3226,-0.3769,-0.533,-0.6438,-0.7628,-1.0133,-1.134,-1.2107,-1.3614,-1.3428,-1.3012,-1.4766,-1.5498,-1.5952,-1.6733,-1.7393,-1.7902,-1.8383,-1.8662,-1.8912,-1.9139,-1.9413,-1.9616,-1.9803,-2.0035,-2.0337,-2.0663,-2.0901,-2.1095,-2.1308,-2.1206,-2.1063,-2.0909,-2.0656,-2.0429,-2.0212,-2.0203,-2.0262,-2.0313,-2.0067,-2.0364,-2.134,-2.1862,-2.266,-2.3796,-2.4304,-2.47,-2.504,-2.5353,-2.5531,-2.5576,-2.5508,-2.5502,-2.5543,-2.5293,-2.5482,0.2455,0.2594,0.2587,0.2133,0.1808,0.1474,0.0,0.0,0.0,0.0,0.0,0.0,-0.2283,0.0,0.0,0.0,0.0,0.0,0.0,0.0,0.0,0.0,0.0,-0.7938,0.0,-0.8961,-0.9306,-0.9692,-0.9946,-0.9995,-0.9816,-0.959,-0.9114,-0.8316,-0.7906,-0.7107,-0.5752,-0.5429,-0.4954,-0.444,-0.4384,-0.4093,-0.3752,-0.3819,-0.3617,-0.3211,-0.2747,-0.2277,-0.1939,-0.3293,-0.3494,-0.3015,-0.342,-0.3624,-0.3757,-0.3822,-0.4047,-0.4558,-0.6024,-0.7592,-0.924,-1.1314,-1.2285,-1.2945,-1.4088,-1.4065,-1.3872,-1.5147,-1.5741,-1.6182,-1.6769,-1.7468,-1.8149,-1.8707,-1.9011,-1.9303,-1.9732,-1.9992,-2.0246,-2.046,-2.0692,-2.0967,-2.1285,-2.1513,-2.1691,-2.1984,-2.1699,-2.1411,-2.1279,-2.0814,-2.0455,-2.0334,-2.0056,-2.0003,-2.0289,-1.9767,-2.0048,-2.15,-2.2515,-2.3329,-2.3956,-2.4793,-2.5198,-2.5147,-2.5024,-2.5173,-2.5596,-2.5098,-2.5094,-2.554,-2.5245,-2.5317,0.184,0.1991,0.2055,0.1777,0.1203,0.0669,0.0,0.0,0.0,0.0,0.0,0.0,0.0,0.0,0.0,0.0,0.0,0.0,0.0,0.0,0.0,0.0,-0.9274,0.0,-1.0005,-0.9649,-0.9797,-1.0804,-1.1066,-1.1077,-1.0875,-1.0409,-0.985,-0.9172,-0.8654,-0.802,-0.719,-0.6736,-0.6201,-0.5725,-0.5681,-0.5416,-0.4875,-0.5011,-0.4677,-0.401,-0.3951,-0.3073,-0.1797,-0.3479,-0.4292,-0.4488,-0.4756,-0.4823,-0.4823,-0.4818,-0.4871,-0.5162,-0.6507,-0.8595,-1.0842,-1.1822,-1.2662,-1.3529,-1.4345,-1.479,-1.5055,-1.54,-1.5823,-1.631,-1.6683,-1.7402,-1.8238,-1.8889,-1.9273,-1.9652,-2.0177,-2.0516,-2.0814,-2.1137,-2.1502,-2.1816,-2.2075,-2.2348,-2.2548,-2.2711,-2.2314,-2.1922,-2.1776,-2.1176,-2.0757,-2.0781,-2.0202,-1.9986,-2.0429,-2.0308,-2.079,-2.2176,-2.3611,-2.4399,-2.4349,-2.5222,-2.5507,-2.5113,-2.4371,-2.4379,-2.5193,-2.4479,-2.4564,-2.5372,-2.5149,-2.5099,0.1584,0.1567,0.1112,0.0468,-0.026,-0.0884,0.0,0.0,0.0,0.0,0.0,0.0,0.0,0.0,0.0,0.0,0.0,0.0,0.0,0.0,0.0,0.0,0.0,-1.0498,-1.2087,-1.2154,-1.2245,-1.2586,-1.2234,-1.2188,-1.2518,-1.1572,-1.0936,-1.0815,-1.0441,-0.9663,-0.8548,-0.7402,-0.6967,-0.719,-0.6931,-0.6601,-0.6133,-0.6135,-0.6003,-0.5741,-0.5618,-0.5079,-0.4466,-0.4951,-0.5226,-0.5291,-0.5683,-0.5879,-0.5945,-0.673,-0.6825,-0.6845,-0.8129,-0.9826,-1.1572,-1.2429,-1.3468,-1.463,-1.541,-1.5685,-1.5752,-1.5785,-1.5883,-1.6081,-1.6522,-1.7073,-1.7702,-1.8488,-1.9117,-1.9652,-2.0177,-2.0821,-2.1436,-2.1922,-2.2963,-2.3624,-2.3231,-2.3858,-2.4154,-2.3464,-2.2994,-2.2591,-2.2192,-2.1773,-2.1467,-2.1241,-2.1444,-2.162,-2.1719,-2.215,-2.2323,-2.2138,-2.2478,-2.3247,-2.451,-2.4124,-2.3987,-2.4196,-2.3422,-2.3106,-2.332,-2.3961,-2.4292,-2.4354,-2.4968,-2.5561,0.0646,0.0597,0.0222,-0.0508,-0.121,-0.1775,0.0,0.0,0.0,0.0,0.0,0.0,0.0,0.0,0.0,0.0,0.0,0.0,0.0,0.0,-1.2095,0.0,0.0,-1.2192,-1.2884,-1.2974,-1.3068,-1.3217,-1.3102,-1.3018,-1.3059,-1.2591,-1.2193,-1.2097,-1.1571,-1.1256,-1.11,-1.0843,-0.9897,-0.8275,-0.8021,-0.7765,-0.7507,-0.717,-0.7046,-0.7129,-0.7075,-0.6876,-0.6603,-0.6824,-0.7086,-0.7398,-0.7502,-0.774,-0.8032,-0.8186,-0.857,-0.9041,-0.9033,-1.0119,-1.1601,-1.2573,-1.3521,-1.4442,-1.5442,-1.5763,-1.5887,-1.5971,-1.5954,-1.5909,-1.5934,-1.6574,-1.7327,-1.7767,-1.8521,-1.9332,-2.0016,-2.0601,-2.1204,-2.1856,-2.2593,-2.3136,-2.3182,-2.3552,-2.3764,-2.3583,-2.315,-2.282,-2.2754,-2.2344,-2.2046,-2.1965,-2.1997,-2.2082,-2.2169,-2.2229,-2.2664,-2.3597,-2.3088,-2.3518,-2.5229,-2.4592,-2.4338,-2.4586,-2.384,-2.3728,-2.4301,-2.4305,-2.4514,-2.4923,-2.5219,-2.5486,-0.0313,-0.0624,-0.1094,-0.1585,0.0,0.0,0.0,0.0,0.0,0.0,0.0,0.0,0.0,0.0,0.0,0.0,0.0,0.0,0.0,-1.3261,-1.3446,-1.3655,-1.371,-1.37,-1.3604,-1.358,-1.3667,-1.388,-1.3867,-1.3857,-1.3762,-1.3628,-1.3468,-1.3365,-1.2753,-1.2781,-1.3321,-1.3826,-1.2681,-0.9806,-0.943,-0.918,-0.8932,-0.8331,-0.8076,-0.8094,-0.8091,-0.8229,-0.8312,-0.8229,-0.8683,-0.9536,-0.9977,-1.0242,-1.0329,-0.982,-1.0169,-1.085,-0.9924,-1.04,-1.1573,-1.2733,-1.3575,-1.439,-1.5538,-1.5881,-1.5907,-1.5998,-1.596,-1.5875,-1.5642,-1.6109,-1.6773,-1.6985,-1.7787,-1.8762,-1.9753,-2.0231,-2.0733,-2.1719,-2.2214,-2.2535,-2.2835,-2.3205,-2.347,-2.3471,-2.3121,-2.2911,-2.2989,-2.2526,-2.2254,-2.2315,-2.2189,-2.2181,-2.2407,-2.2054,-2.2631,-2.4485,-2.3766,-2.3945,-2.5493,-2.4806,-2.4523,-2.4818,-2.4091,-2.4109,-2.491,-2.4524,-2.4662,-2.53,-2.5383,-2.5348,-0.101,-0.2113,-0.323,-0.3005,-0.3081,0.0,0.0,0.0,0.0,0.0,0.0,0.0,0.0,0.0,0.0,0.0,0.0,0.0,-1.2924,0.0,-1.3723,-1.3838,-1.4476,-1.4812,-1.4719,-1.4787,-1.4985,-1.523,-1.481,-1.4781,-1.5409,-1.4904,-1.4728,-1.4909,-1.4469,-1.4273,-1.4314,-1.4355,-1.3683,-1.2232,-1.1773,-1.1118,-1.0328,-0.9828,-0.9227,-0.8476,-0.8474,-0.8811,-0.9328,-0.8726,-0.9369,-1.0927,-1.3467,-1.3642,-1.2445,-1.2185,-1.1811,-1.1379,-1.0934,-1.1229,-1.1921,-1.3042,-1.4098,-1.5229,-1.6304,-1.6411,-1.6137,-1.5875,-1.587,-1.5895,-1.6031,-1.5784,-1.5723,-1.6486,-1.701,-1.7773,-1.9426,-1.9806,-2.0257,-2.1945,-2.2784,-2.3094,-2.2623,-2.3834,-2.4453,-2.3315,-2.3087,-2.2924,-2.2512,-2.2004,-2.167,-2.1744,-2.1943,-2.2271,-2.2729,-2.2449,-2.2593,-2.3364,-2.3635,-2.3985,-2.4486,-2.3677,-2.345,-2.3982,-2.3266,-2.2975,-2.3182,-2.4002,-2.4391,-2.441,-2.5154,-2.5426,-0.1005,-0.1783,-0.2502,-0.2568,0.0,0.0,0.0,0.0,0.0,0.0,0.0,0.0,0.0,0.0,0.0,0.0,0.0,-1.172,-1.2851,-1.3503,-1.4009,-1.4494,-1.5086,-1.5528,-1.573,-1.59,-1.609,-1.6363,-1.6223,-1.6202,-1.6436,-1.6353,-1.6337,-1.6518,-1.6172,-1.6185,-1.6509,-1.6075,-1.5817,-1.5633,-1.4272,-1.3032,-1.1965,-1.246,-1.2461,-1.2131,-1.171,-1.1341,-1.0879,-1.0523,-1.0809,-1.1801,-1.4547,-1.5312,-1.4839,-1.399,-1.3591,-1.3349,-1.2244,-1.2387,-1.3252,-1.4145,-1.4826,-1.5383,-1.6334,-1.6189,-1.5614,-1.5569,-1.5604,-1.5611,-1.5447,-1.5457,-1.5515,-1.5778,-1.6148,-1.6755,-1.7785,-1.806,-1.839,-1.9223,-1.9938,-2.0453,-2.0722,-2.1639,-2.2282,-2.2181,-2.1947,-2.1757,-2.1682,-2.1287,-2.1176,-2.1538,-2.2091,-2.2348,-2.2187,-2.2609,-2.286,-2.2862,-2.3111,-2.3594,-2.4366,-2.4155,-2.4228,-2.4639,-2.4454,-2.4147,-2.3751,-2.469,-2.4855,-2.4322,-2.5082,-2.5337,-0.1115,-0.1959,-0.2741,0.0,0.0,0.0,0.0,0.0,0.0,0.0,0.0,0.0,0.0,0.0,0.0,0.0,-1.1268,-1.1939,-1.2948,-1.3468,-1.4125,-1.5059,-1.5627,-1.6119,-1.6544,-1.6786,-1.7022,-1.7123,-1.7179,-1.7229,-1.7285,-1.7435,-1.754,-1.7661,-1.7556,-1.7662,-1.8057,-1.7705,-1.7788,-1.8341,-1.7098,-1.5605,-1.3987,-1.472,-1.4983,-1.4959,-1.4437,-1.3981,-1.3679,-1.3604,-1.3722,-1.4107,-1.5944,-1.6724,-1.6746,-1.5958,-1.5531,-1.5193,-1.4248,-1.4213,-1.4778,-1.5658,-1.5873,-1.5995,-1.6752,-1.635,-1.5596,-1.555,-1.564,-1.569,-1.5294,-1.529,-1.5363,-1.5349,-1.5502,-1.5926,-1.6711,-1.6878,-1.7093,-1.8,-1.8591,-1.9164,-1.9884,-2.0756,-2.1311,-2.1232,-2.1,-2.0775,-2.0631,-2.0427,-2.0555,-2.1256,-2.2022,-2.2347,-2.1935,-2.2735,-2.314,-2.2869,-2.3186,-2.3693,-2.4409,-2.4301,-2.4535,-2.5184,-2.5033,-2.4738,-2.4261,-2.4632,-2.4629,-2.4308,-2.4801,-2.5051,-0.1447,-0.2914,0.0,0.0,0.0,0.0,0.0,0.0,0.0,0.0,0.0,0.0,0.0,0.0,0.0,-1.2226,-1.1336,-1.1146,-1.323,-1.3495,-1.4007,-1.5359,-1.6165,-1.674,-1.719,-1.7484,-1.7651,-1.7529,-1.7623,-1.7776,-1.7903,-1.805,-1.8153,-1.8333,-1.85,-1.8619,-1.8625,-1.8955,-1.9372,-1.9924,-2.0263,-1.9066,-1.6517,-1.6478,-1.6335,-1.6239,-1.6016,-1.6621,-1.7728,-1.7997,-1.8142,-1.8102,-1.8115,-1.8052,-1.7946,-1.8244,-1.7613,-1.668,-1.707,-1.6848,-1.6472,-1.7445,-1.74,-1.7119,-1.7638,-1.7054,-1.6144,-1.5888,-1.605,-1.6205,-1.5804,-1.5462,-1.5209,-1.5221,-1.5094,-1.5347,-1.6583,-1.6408,-1.6711,-1.9022,-1.9615,-1.9901,-2.0593,-2.1787,-2.2166,-2.062,-2.0457,-2.0231,-1.9486,-1.9411,-1.9816,-2.0894,-2.1786,-2.2251,-2.2124,-2.2889,-2.3392,-2.3392,-2.401,-2.4418,-2.4496,-2.3806,-2.404,-2.5354,-2.4609,-2.4268,-2.4398,-2.3543,-2.3532,-2.4294,-2.4241,-2.453,-0.2378,-0.3284,0.0,0.0,0.0,0.0,0.0,0.0,0.0,0.0,0.0,0.0,-0.9584,0.0,0.0,-1.2211,-1.2572,-1.2921,-1.3629,-1.4186,-1.4744,-1.524,-1.6053,-1.6797,-1.7357,-1.775,-1.809,-1.841,-1.856,-1.8655,-1.881,-1.8922,-1.9081,-1.9186,-1.9297,-1.9664,-2.0416,-2.0202,-2.0633,-2.1644,-2.1494,-2.0771,-1.961,-1.9108,-1.8789,-1.8552,-1.8357,-1.8386,-1.8627,-1.8886,-1.9359,-1.985,-1.9809,-1.9656,-1.9572,-1.9864,-1.9914,-1.9686,-1.9099,-1.9038,-1.9258,-1.9137,-1.8841,-1.8487,-1.853,-1.7798,-1.6856,-1.6582,-1.6643,-1.6717,-1.6386,-1.6236,-1.6087,-1.5678,-1.5349,-1.529,-1.5718,-1.621,-1.6732,-1.7537,-1.8686,-1.9732,-2.0548,-2.0834,-2.0974,-2.1091,-1.9774,-1.8719,-1.8649,-1.9471,-2.0392,-2.1213,-2.2027,-2.257,-2.273,-2.3182,-2.3531,-2.3671,-2.347,-2.3503,-2.3855,-2.4252,-2.4486,-2.4549,-2.4924,-2.4881,-2.4398,-2.4714,-2.4667,-2.4311,-2.4815,-2.5043,-0.294,0.0,0.0,0.0,0.0,0.0,0.0,0.0,0.0,0.0,0.0,-0.9748,-1.0279,-1.1087,0.0,-1.252,-1.3103,-1.3589,-1.3824,-1.4562,-1.5149,-1.5464,-1.6327,-1.719,-1.7695,-1.8078,-1.8464,-1.8744,-1.8952,-1.9152,-1.9344,-1.9506,-1.9662,-1.9817,-2.0186,-2.0729,-2.1457,-2.1559,-2.1837,-2.2454,-2.2502,-2.2303,-2.1944,-2.1377,-2.1037,-2.0794,-2.036,-1.9964,-1.9537,-1.9626,-2.0059,-2.0699,-2.1022,-2.1023,-2.087,-2.1288,-2.1417,-2.1272,-2.0886,-2.0886,-2.1044,-2.0785,-2.0415,-2.0,-1.9591,-1.8854,-1.8051,-1.7563,-1.7509,-1.7517,-1.7107,-1.6915,-1.6735,-1.6079,-1.5693,-1.5613,-1.6007,-1.6425,-1.7109,-1.8087,-1.9562,-2.0729,-2.1035,-2.1204,-2.1129,-2.0482,-1.9045,-1.8204,-1.8651,-1.9687,-2.0589,-2.1032,-2.1942,-2.2485,-2.2459,-2.2797,-2.3115,-2.3313,-2.2804,-2.252,-2.2524,-2.3723,-2.4293,-2.4078,-2.4646,-2.4592,-2.3878,-2.4372,-2.4505,-2.4305,-2.4732,-2.4965,0.0,0.0,0.0,0.0,0.0,0.0,0.0,0.0,0.0,0.0,0.0,-1.032,-1.1372,-1.1937,-1.2427,-1.3076,-1.3241,-1.3533,-1.4105,-1.479,-1.5461,-1.5948,-1.6901,-1.7689,-1.8084,-1.8404,-1.8679,-1.8851,-1.9064,-1.9374,-1.9617,-1.9805,-2.001,-2.0226,-2.1094,-2.1653,-2.1854,-2.2763,-2.3019,-2.2717,-2.3421,-2.3746,-2.3785,-2.3173,-2.2815,-2.2671,-2.1981,-2.1279,-2.0646,-2.0395,-2.0594,-2.1104,-2.1884,-2.2101,-2.2018,-2.2534,-2.2405,-2.2018,-2.2352,-2.2335,-2.2107,-2.2122,-2.188,-2.1413,-2.0607,-2.003,-1.9458,-1.8655,-1.8492,-1.8421,-1.7868,-1.7555,-1.7207,-1.6584,-1.6177,-1.6198,-1.6964,-1.7064,-1.7684,-1.9921,-2.1426,-2.2211,-2.1661,-2.2235,-2.1837,-1.9232,-1.8497,-1.8503,-1.914,-1.9944,-2.048,-2.0512,-2.1569,-2.2069,-2.1555,-2.1916,-2.2269,-2.2459,-2.2081,-2.1606,-2.1022,-2.2613,-2.3552,-2.3678,-2.3887,-2.3702,-2.3096,-2.3104,-2.3505,-2.4306,-2.4228,-2.4527,0.0,0.0,0.0,0.0,0.0,0.0,0.0,0.0,0.0,0.0,0.0,-1.0823,-1.1867,-1.2402,-1.2869,-1.3459,-1.4293,-1.5027,-1.5276,-1.5971,-1.653,-1.6738,-1.739,-1.7909,-1.8084,-1.8524,-1.8839,-1.9087,-1.9356,-1.9617,-1.9888,-2.022,-2.0503,-2.066,-2.1189,-2.1774,-2.2408,-2.2812,-2.3392,-2.4152,-2.4655,-2.5075,-2.5306,-2.3743,-2.2978,-2.2776,-2.2919,-2.2762,-2.2426,-2.2176,-2.2289,-2.2711,-2.2904,-2.3334,-2.3876,-2.3793,-2.3903,-2.388,-2.2753,-2.2666,-2.2942,-2.1963,-2.1901,-2.2009,-2.0999,-2.0296,-1.9758,-1.9406,-1.9183,-1.8991,-1.8817,-1.8448,-1.8023,-1.7696,-1.7048,-1.6694,-1.7466,-1.7818,-1.8412,-1.9787,-2.0716,-2.1288,-2.1471,-2.1081,-2.0133,-1.8453,-1.8907,-1.9284,-1.8802,-1.998,-2.0627,-2.0057,-2.0763,-2.1163,-2.0763,-2.107,-2.1334,-2.1489,-2.156,-2.1631,-2.1677,-2.2363,-2.2511,-2.2032,-2.2771,-2.3139,-2.3103,-2.3105,-2.3505,-2.4296,-2.4235,-2.4584,0.0,0.0,0.0,0.0,0.0,0.0,0.0,0.0,0.0,0.0,0.0,-1.1847,-1.2783,-1.3131,-1.3507,-1.4078,-1.4921,-1.5594,-1.5956,-1.6637,-1.719,-1.734,-1.7897,-1.829,-1.8416,-1.8845,-1.9158,-1.9396,-1.9714,-2.0016,-2.0372,-2.0723,-2.1013,-2.1251,-2.2021,-2.2657,-2.3194,-2.3822,-2.4298,-2.4644,-2.5123,-2.5409,-2.5514,-2.5221,-2.4704,-2.4055,-2.4618,-2.4424,-2.3651,-2.3536,-2.3728,-2.4024,-2.4133,-2.4449,-2.4863,-2.4799,-2.4776,-2.468,-2.3799,-2.3479,-2.3426,-2.2986,-2.2724,-2.2415,-2.1719,-2.1221,-2.074,-2.017,-1.9911,-1.979,-1.9623,-1.912,-1.8624,-1.8562,-1.7776,-1.7275,-1.8243,-1.8326,-1.8634,-2.0064,-2.0813,-2.1128,-2.09,-2.0345,-1.9644,-1.8819,-1.9481,-1.9983,-1.9641,-2.0543,-2.0917,-2.0257,-2.0684,-2.0795,-2.0261,-2.027,-2.0413,-2.0566,-2.0472,-2.0499,-2.0739,-2.1089,-2.1296,-2.1403,-2.2354,-2.2736,-2.2481,-2.2899,-2.3306,-2.3678,-2.3634,-2.3995,0.0,0.0,0.0,0.0,0.0,0.0,0.0,0.0,0.0,0.0,-1.3118,-1.2953,-1.3746,-1.3941,-1.4121,-1.4656,-1.5298,-1.5826,-1.6343,-1.7072,-1.7683,-1.7892,-1.8435,-1.8827,-1.8999,-1.9362,-1.9617,-1.9811,-2.0169,-2.056,-2.095,-2.1257,-2.1602,-2.1983,-2.3001,-2.3594,-2.3805,-2.4789,-2.5168,-2.4931,-2.5485,-2.5745,-2.5729,-2.6949,-2.676,-2.5545,-2.6299,-2.593,-2.4791,-2.4853,-2.4984,-2.5215,-2.5349,-2.5464,-2.5587,-2.5542,-2.536,-2.5152,-2.5144,-2.4511,-2.3755,-2.3989,-2.337,-2.2539,-2.2281,-2.204,-2.1692,-2.0834,-2.0634,-2.0571,-2.0324,-1.979,-1.931,-1.9273,-1.8584,-1.816,-1.8961,-1.8668,-1.8718,-2.0236,-2.0904,-2.1012,-2.0253,-1.9957,-1.9794,-1.9645,-2.0139,-2.0586,-2.0655,-2.1117,-2.1207,-2.0561,-2.0797,-2.0666,-1.9841,-1.9662,-1.9609,-1.9687,-1.9353,-1.9248,-1.9466,-1.9717,-2.0218,-2.104,-2.1936,-2.2114,-2.1562,-2.2295,-2.2698,-2.2792,-2.2784,-2.312,0.0,0.0,0.0,0.0,0.0,0.0,0.0,0.0,0.0,0.0,-1.3663,-1.3633,-1.4309,-1.4396,-1.4538,-1.4907,-1.5536,-1.6223,-1.6662,-1.749,-1.8164,-1.8625,-1.9146,-1.9546,-1.9792,-2.0112,-2.0365,-2.0603,-2.1035,-2.1382,-2.165,-2.2196,-2.2565,-2.2754,-2.329,-2.3678,-2.388,-2.4498,-2.5156,-2.5839,-2.6788,-2.7348,-2.7542,-2.8081,-2.7449,-2.5953,-2.6746,-2.68,-2.6301,-2.631,-2.6336,-2.6344,-2.6267,-2.6429,-2.6614,-2.5849,-2.5866,-2.6291,-2.6421,-2.5464,-2.4097,-2.3326,-2.2651,-2.2083,-2.19,-2.1804,-2.1679,-2.1489,-2.1309,-2.1135,-2.0926,-2.073,-2.0478,-2.0126,-1.9808,-1.9537,-1.9408,-1.91,-1.9054,-1.9651,-1.9795,-1.9919,-2.0063,-2.008,-2.0142,-2.0387,-2.0812,-2.0996,-2.0643,-2.1231,-2.1255,-2.0201,-2.0577,-2.0464,-1.9397,-1.9368,-1.9251,-1.8883,-1.8905,-1.9087,-1.9405,-1.9499,-1.9726,-2.008,-2.0504,-2.0682,-2.0592,-2.0758,-2.1226,-2.1961,-2.1901,-2.2287,0.0,0.0,0.0,0.0,0.0,0.0,0.0,0.0,0.0,-1.2293,-1.3329,-1.4333,-1.5059,-1.498,-1.4827,-1.506,-1.5624,-1.6132,-1.6347,-1.7396,-1.8322,-1.8845,-1.9667,-2.0308,-2.064,-2.0993,-2.1292,-2.1513,-2.1894,-2.2228,-2.2459,-2.292,-2.3275,-2.3442,-2.3921,-2.4297,-2.455,-2.5182,-2.5885,-2.6678,-2.7088,-2.7433,-2.77,-2.7911,-2.7632,-2.7031,-2.7657,-2.7654,-2.7215,-2.718,-2.7173,-2.7204,-2.7161,-2.7296,-2.7461,-2.7047,-2.6903,-2.6855,-2.6738,-2.5728,-2.4364,-2.3809,-2.2942,-2.2095,-2.1991,-2.1928,-2.1869,-2.1822,-2.1694,-2.1501,-2.1235,-2.0997,-2.0823,-2.0679,-2.0694,-2.0691,-2.051,-1.9791,-1.9289,-1.9698,-1.9908,-2.0178,-2.055,-2.0746,-2.1007,-2.1283,-2.1554,-2.1711,-2.1585,-2.1836,-2.1797,-2.1183,-2.1187,-2.0807,-1.9736,-1.9611,-1.9304,-1.8676,-1.8779,-1.9019,-1.9375,-1.9457,-1.9625,-1.9891,-2.0159,-2.0311,-2.0344,-2.045,-2.0701,-2.1067,-2.1036,-2.1435,0.0,0.0,0.0,0.0,0.0,0.0,0.0,0.0,-1.1022,0.0,-1.2866,-1.4208,-1.5151,-1.5272,-1.5207,-1.5194,-1.5614,-1.6043,-1.6328,-1.747,-1.853,-1.9047,-1.9939,-2.0677,-2.1096,-2.1488,-2.177,-2.2012,-2.233,-2.2709,-2.3117,-2.3495,-2.3872,-2.4266,-2.4688,-2.509,-2.5397,-2.6043,-2.6724,-2.736,-2.733,-2.7426,-2.7698,-2.7791,-2.7883,-2.7989,-2.8247,-2.8167,-2.7798,-2.7765,-2.7791,-2.7832,-2.7912,-2.8017,-2.8131,-2.809,-2.7815,-2.7418,-2.7113,-2.6105,-2.4876,-2.4502,-2.3426,-2.224,-2.222,-2.2147,-2.2081,-2.2065,-2.1999,-2.1869,-2.1601,-2.1396,-2.1245,-2.1305,-2.1458,-2.1554,-2.1406,-2.0408,-1.972,-2.0141,-2.0448,-2.0725,-2.115,-2.1454,-2.1667,-2.1911,-2.2081,-2.2212,-2.2302,-2.2338,-2.2313,-2.2186,-2.1815,-2.1203,-2.0268,-1.9913,-1.9423,-1.8714,-1.8788,-1.901,-1.9366,-1.9462,-1.9617,-1.984,-2.005,-2.0204,-2.0305,-2.042,-2.0484,-2.0497,-2.0503,-2.0789,0.0,0.0,0.0,0.0,0.0,0.0,0.0,0.0,0.0,-1.2655,-1.2529,-1.2724,-1.4131,-1.5201,-1.5679,-1.518,-1.5461,-1.6048,-1.6987,-1.7993,-1.8779,-1.9378,-1.9954,-2.0522,-2.0963,-2.1218,-2.1469,-2.1781,-2.1954,-2.2469,-2.3437,-2.3747,-2.4362,-2.5395,-2.5631,-2.5892,-2.6232,-2.6839,-2.736,-2.776,-2.782,-2.8,-2.8264,-2.8388,-2.8415,-2.8363,-2.8115,-2.8041,-2.8081,-2.8156,-2.8183,-2.8192,-2.8434,-2.8568,-2.855,-2.8497,-2.8318,-2.8128,-2.7921,-2.6991,-2.581,-2.5171,-2.3749,-2.2326,-2.253,-2.2447,-2.2274,-2.2274,-2.2282,-2.2245,-2.2155,-2.2192,-2.2212,-2.2164,-2.2155,-2.2036,-2.158,-2.0876,-2.0503,-2.103,-2.1164,-2.1305,-2.1786,-2.1861,-2.194,-2.2068,-2.2096,-2.2178,-2.2377,-2.246,-2.2515,-2.2552,-2.2089,-2.1479,-2.0722,-2.0135,-1.9535,-1.8923,-1.8957,-1.9076,-1.9299,-1.9427,-1.9569,-1.9704,-1.9904,-2.0107,-2.0301,-2.037,-2.0437,-2.0502,-2.0497,-2.0489,0.0,0.0,0.0,0.0,0.0,0.0,0.0,0.0,-1.3337,-1.3346,-1.3485,-1.3721,-1.4319,-1.4865,-1.5227,-1.5126,-1.5667,-1.6238,-1.6729,-1.7892,-1.8922,-1.969,-2.043,-2.1101,-2.1661,-2.1809,-2.208,-2.2603,-2.3204,-2.381,-2.4441,-2.5116,-2.57,-2.6187,-2.6307,-2.6615,-2.7144,-2.7404,-2.778,-2.8246,-2.8255,-2.8457,-2.8761,-2.8712,-2.8705,-2.8717,-2.8467,-2.8353,-2.8282,-2.8246,-2.8308,-2.8466,-2.8546,-2.8598,-2.8578,-2.8518,-2.8468,-2.8318,-2.7379,-2.6419,-2.5393,-2.3972,-2.3065,-2.2499,-2.2473,-2.2445,-2.2413,-2.2394,-2.2358,-2.2366,-2.2336,-2.2428,-2.2603,-2.2808,-2.2773,-2.2651,-2.2424,-2.1924,-2.1609,-2.1953,-2.2019,-2.2093,-2.226,-2.224,-2.2268,-2.239,-2.2417,-2.248,-2.2632,-2.2685,-2.2548,-2.2198,-2.2071,-2.1484,-2.0235,-2.0083,-1.975,-1.9063,-1.9051,-1.9148,-1.9365,-1.9456,-1.9564,-1.9703,-1.9858,-1.9992,-2.0113,-2.0305,-2.0413,-2.0441,-2.0478,-2.0488,0.0,0.0,0.0,0.0,0.0,0.0,0.0,0.0,-1.3615,-1.3455,-1.3962,-1.4448,-1.4333,-1.4884,-1.5441,-1.5483,-1.6216,-1.6879,-1.7031,-1.8023,-1.8978,-1.966,-2.0395,-2.1084,-2.1641,-2.1845,-2.2183,-2.2761,-2.3367,-2.3967,-2.4641,-2.5211,-2.5777,-2.6213,-2.6349,-2.658,-2.6996,-2.7033,-2.7272,-2.7698,-2.7969,-2.8215,-2.8443,-2.8741,-2.8727,-2.847,-2.8579,-2.8533,-2.8362,-2.8246,-2.8334,-2.8562,-2.8562,-2.8585,-2.8599,-2.8558,-2.8554,-2.8432,-2.7564,-2.6533,-2.5271,-2.3389,-2.2782,-2.2746,-2.2616,-2.2581,-2.256,-2.246,-2.2432,-2.2413,-2.2381,-2.2521,-2.2764,-2.2995,-2.3063,-2.3089,-2.2996,-2.2553,-2.2243,-2.2424,-2.2424,-2.2405,-2.2432,-2.2386,-2.2413,-2.2587,-2.2614,-2.2659,-2.2833,-2.2684,-2.2426,-2.2051,-2.168,-2.1168,-2.0396,-2.0092,-1.9842,-1.9621,-1.9385,-1.9329,-1.9462,-1.9532,-1.9601,-1.9665,-1.9835,-1.9919,-1.9902,-2.0212,-2.0381,-2.0401,-2.0469,-2.0662,0.0,0.0,0.0,0.0,0.0,0.0,-1.094,0.0,-1.2329,-1.2959,-1.4027,-1.4647,-1.4079,-1.5297,-1.6382,-1.6328,-1.7177,-1.7839,-1.7982,-1.8507,-1.8981,-1.9376,-1.9909,-2.0413,-2.0893,-2.13,-2.171,-2.2192,-2.2311,-2.2854,-2.3964,-2.3998,-2.4445,-2.5482,-2.5691,-2.5802,-2.58,-2.58,-2.59,-2.611,-2.692,-2.7307,-2.733,-2.8489,-2.8492,-2.7619,-2.832,-2.8476,-2.8254,-2.8236,-2.8333,-2.8501,-2.8501,-2.8552,-2.8587,-2.8587,-2.8562,-2.851,-2.853,-2.7385,-2.5594,-2.3563,-2.2998,-2.3066,-2.2936,-2.2816,-2.2659,-2.2533,-2.2515,-2.246,-2.2338,-2.2499,-2.2704,-2.2695,-2.2995,-2.326,-2.3099,-2.272,-2.2377,-2.2369,-2.2285,-2.22,-2.2274,-2.2282,-2.2358,-2.256,-2.2579,-2.2685,-2.2961,-2.25,-2.2153,-2.2176,-2.1023,-2.0535,-2.1268,-2.0144,-1.9737,-2.0519,-1.9952,-1.9601,-1.9614,-1.9675,-1.9671,-1.9606,-1.9875,-1.9904,-1.9713,-2.0111,-2.0332,-2.04,-2.0485,-2.1016,-0.747,0.0,0.0,0.0,0.0,0.0,0.0,0.0,-1.3539,-1.3424,-1.4258,-1.5221,-1.5958,-1.6163,-1.6467,-1.7064,-1.7699,-1.8201,-1.8479,-1.9065,-1.9667,-2.0189,-2.0581,-2.1023,-2.1628,-2.1936,-2.2277,-2.2738,-2.3421,-2.4044,-2.462,-2.5219,-2.5631,-2.579,-2.5884,-2.5927,-2.5859,-2.5859,-2.6006,-2.6241,-2.6845,-2.7262,-2.7479,-2.8686,-2.8433,-2.7089,-2.679,-2.6991,-2.7553,-2.8158,-2.8448,-2.8492,-2.8552,-2.8587,-2.8587,-2.8587,-2.8589,-2.8474,-2.7759,-2.7099,-2.6202,-2.397,-2.3169,-2.303,-2.297,-2.2885,-2.2729,-2.256,-2.2515,-2.2487,-2.2377,-2.2532,-2.2711,-2.2703,-2.2868,-2.2946,-2.2729,-2.2497,-2.2254,-2.2012,-2.1943,-2.1966,-2.213,-2.213,-2.2121,-2.2273,-2.2417,-2.2615,-2.2841,-2.2891,-2.2565,-2.1718,-2.1245,-2.0671,-1.9871,-1.9565,-1.9514,-1.9789,-1.9713,-1.9694,-1.9738,-1.9811,-1.9802,-1.9744,-1.9965,-2.0029,-1.9915,-2.0171,-2.0312,-2.0348,-2.1088,-2.2223,0.0,0.0,0.0,0.0,0.0,0.0,-1.1655,-1.3115,-1.4127,0.0,-1.4252,-1.5277,-1.5513,-1.588,-1.6279,-1.6689,-1.7492,-1.8254,-1.8738,-1.9178,-1.9646,-2.0092,-2.0727,-2.1262,-2.1563,-2.2105,-2.2652,-2.3056,-2.3723,-2.4253,-2.4593,-2.5096,-2.529,-2.5145,-2.5163,-2.5127,-2.5012,-2.5012,-2.5095,-2.5265,-2.5952,-2.6219,-2.6156,-2.7377,-2.7594,-2.6952,-2.6178,-2.6274,-2.7022,-2.7789,-2.8304,-2.8552,-2.8552,-2.8569,-2.8601,-2.8603,-2.8605,-2.8509,-2.7936,-2.7587,-2.7015,-2.4823,-2.3659,-2.3111,-2.3086,-2.2986,-2.2833,-2.2632,-2.2506,-2.2396,-2.2281,-2.2362,-2.2516,-2.2432,-2.2616,-2.2729,-2.2459,-2.2262,-2.209,-2.1947,-2.1906,-2.192,-2.2047,-2.199,-2.199,-2.2144,-2.2254,-2.2463,-2.2849,-2.2801,-2.2402,-2.1491,-2.1143,-2.0661,-1.9891,-1.9619,-1.9657,-2.0062,-1.9891,-1.98,-1.9842,-1.9904,-1.9902,-1.9804,-1.9966,-2.0069,-2.0079,-2.02,-2.0476,-2.09,-2.151,-2.2496,0.0,0.0,0.0,0.0,0.0,0.0,-1.1721,-1.3194,-1.4163,0.0,-1.4075,-1.4956,-1.3991,-1.5008,-1.5921,-1.5727,-1.6782,-1.7904,-1.8665,-1.9021,-1.9294,-1.9484,-2.0498,-2.1134,-2.0997,-2.1928,-2.2678,-2.2999,-2.3399,-2.3812,-2.4219,-2.4238,-2.4201,-2.4142,-2.4045,-2.3944,-2.3816,-2.3798,-2.3801,-2.3795,-2.4623,-2.4716,-2.4243,-2.5326,-2.62,-2.6767,-2.6088,-2.5996,-2.6415,-2.7172,-2.7927,-2.8621,-2.8562,-2.8567,-2.8597,-2.861,-2.8621,-2.8596,-2.8491,-2.8209,-2.7576,-2.5667,-2.4264,-2.3289,-2.3241,-2.3119,-2.2961,-2.2764,-2.2533,-2.2276,-2.2113,-2.2194,-2.2267,-2.2107,-2.2381,-2.26,-2.2357,-2.2059,-2.1879,-2.2102,-2.2047,-2.199,-2.1998,-2.194,-2.1907,-2.1958,-2.2006,-2.2201,-2.2737,-2.24,-2.1934,-2.1426,-2.0933,-2.0609,-2.0548,-1.9957,-1.9936,-2.0722,-2.0228,-1.9915,-1.9918,-1.9978,-1.9946,-1.9811,-1.9924,-2.0049,-2.0174,-2.0186,-2.0692,-2.1683,-2.1748,-2.2206,0.0,0.0,0.0,0.0,0.0,0.0,-1.2219,-1.2781,-1.3241,0.0,-1.4,-1.447,-1.4561,-1.4931,-1.5321,-1.5643,-1.5908,-1.6525,-1.7891,-1.8816,-1.9434,-1.9567,-2.0108,-2.0608,-2.0891,-2.1329,-2.166,-2.1905,-2.2731,-2.361,-2.4478,-2.4464,-2.442,-2.4349,-2.4171,-2.4025,-2.3885,-2.3824,-2.3767,-2.3723,-2.4162,-2.4308,-2.4209,-2.4606,-2.4875,-2.5028,-2.5449,-2.5327,-2.4924,-2.6252,-2.7574,-2.8761,-2.8746,-2.8691,-2.8621,-2.8651,-2.8656,-2.85,-2.7789,-2.677,-2.5687,-2.5055,-2.4198,-2.3369,-2.3289,-2.3193,-2.3036,-2.2842,-2.2667,-2.2525,-2.2426,-2.24,-2.2375,-2.2411,-2.2463,-2.2508,-2.2402,-2.1872,-2.1607,-2.2233,-2.2061,-2.1861,-2.1969,-2.199,-2.1797,-2.1211,-2.1267,-2.1445,-2.167,-2.1993,-2.1968,-2.138,-2.1416,-2.0961,-1.9675,-1.9545,-1.9638,-1.992,-1.9967,-1.9981,-1.9978,-2.004,-2.0039,-1.9962,-1.9934,-1.9957,-2.0039,-2.0041,-2.0554,-2.1546,-2.1613,-2.2072,0.0,0.0,0.0,-1.0746,0.0,0.0,0.0,-1.2753,-1.3261,-1.3018,-1.3397,-1.3884,-1.4192,-1.4253,-1.4424,-1.4923,-1.5227,-1.5697,-1.6533,-1.7814,-1.8823,-1.9259,-2.0035,-2.0512,-2.0454,-2.0997,-2.1424,-2.1589,-2.1913,-2.2436,-2.3198,-2.3635,-2.3817,-2.3739,-2.4035,-2.4143,-2.4045,-2.3983,-2.3945,-2.395,-2.4125,-2.4137,-2.4008,-2.4284,-2.443,-2.4518,-2.4892,-2.4829,-2.4569,-2.6031,-2.7344,-2.8434,-2.8726,-2.8821,-2.879,-2.8722,-2.8718,-2.8612,-2.7519,-2.6522,-2.5595,-2.4986,-2.4256,-2.357,-2.3401,-2.3289,-2.316,-2.301,-2.2841,-2.273,-2.2632,-2.277,-2.2925,-2.2811,-2.2795,-2.2753,-2.2641,-2.2367,-2.2142,-2.21,-2.1961,-2.1949,-2.2258,-2.2298,-2.2017,-2.1182,-2.1136,-2.1122,-2.0889,-2.1197,-2.1249,-2.0756,-2.0916,-2.0615,-1.9538,-1.9518,-1.9615,-1.9788,-1.9932,-2.0017,-2.0048,-2.0087,-2.0065,-2.0008,-1.9875,-1.9849,-1.9946,-2.0191,-2.0658,-2.134,-2.101,-2.1284,0.0,0.0,0.0,0.0,0.0,-1.271,0.0,0.0,0.0,-1.2438,-1.2803,-1.3367,-1.3793,-1.3735,-1.3786,-1.428,0.0,0.0,0.0,-1.6655,0.0,-1.8473,-1.9442,-1.9896,-1.9471,-2.0145,-2.083,-2.142,-2.1064,-2.1145,-2.194,-2.2609,-2.2947,-2.2915,-2.3656,-2.4128,-2.4256,-2.4182,-2.4172,-2.4218,-2.4266,-2.4137,-2.3888,-2.4208,-2.4417,-2.4518,-2.453,-2.4523,-2.4626,-2.6031,-2.6984,-2.7645,-2.859,-2.8984,-2.9002,-2.8817,-2.8721,-2.8507,-2.7422,-2.6606,-2.5897,-2.4932,-2.4235,-2.3755,-2.3539,-2.3412,-2.3357,-2.3203,-2.3074,-2.2925,-2.279,-2.3085,-2.3302,-2.2929,-2.2868,-2.2831,-2.2502,-2.2427,-2.2255,-2.1715,-2.1552,-2.1654,-2.2143,-2.2246,-2.1928,-2.102,-2.09,-2.0744,-2.0222,-2.0392,-2.0447,-2.0107,-2.0272,-2.0175,-1.9648,-1.9595,-1.9692,-1.9903,-1.9966,-2.002,-2.0058,-2.0052,-2.0013,-1.9939,-1.9795,-1.9757,-1.9837,-2.0168,-2.0546,-2.0926,-2.0475,-2.0534,0.0,0.0,0.0,0.0,-1.124,0.0,0.0,0.0,-1.186,-1.2511,0.0,-1.3056,-1.4269,0.0,0.0,0.0,0.0,0.0,-1.559,-1.5984,-1.6402,-1.6896,-1.7189,-1.7367,-1.7413,-1.7588,-1.8593,-2.0807,-2.0238,-2.0508,-2.2163,-2.2172,-2.2151,-2.2207,-2.2876,-2.3628,-2.4466,-2.4339,-2.4284,-2.4293,-2.4469,-2.4413,-2.4164,-2.444,-2.4576,-2.46,-2.459,-2.4597,-2.4673,-2.5789,-2.6144,-2.6173,-2.8322,-2.9134,-2.9089,-2.9007,-2.8489,-2.7757,-2.7319,-2.644,-2.5321,-2.426,-2.3871,-2.3792,-2.368,-2.3658,-2.3615,-2.3412,-2.3304,-2.3214,-2.3033,-2.3011,-2.2863,-2.206,-2.2042,-2.2009,-2.1264,-2.065,-2.0371,-2.0824,-2.0437,-2.0234,-2.0807,-2.097,-2.0722,-1.9821,-1.9782,-1.9799,-1.9608,-1.9882,-2.0036,-1.9938,-2.021,-2.0175,-1.9654,-1.9601,-1.9704,-1.996,-2.0006,-1.9979,-1.9926,-1.987,-1.9798,-1.9735,-1.9774,-1.9744,-1.9623,-1.9448,-1.9577,-1.9973,-2.0536,-2.0515,0.0,0.0,0.0,0.0,0.0,0.0,-1.1962,0.0,-1.1722,0.0,0.0,0.0,0.0,0.0,0.0,0.0,-1.4748,-1.486,0.0,0.0,-1.5772,-1.6709,-1.7039,-1.7226,-1.7319,-1.7321,-1.7756,-1.8789,-1.8576,-1.8878,-2.0031,-2.0463,-2.0858,-2.1259,-2.1757,-2.2564,-2.3733,-2.3575,-2.3799,-2.4421,-2.4535,-2.4535,-2.443,-2.4461,-2.4541,-2.4662,-2.4622,-2.4594,-2.4679,-2.5759,-2.5726,-2.5153,-2.6772,-2.7568,-2.7918,-2.8749,-2.8231,-2.7135,-2.7184,-2.6489,-2.5417,-2.4406,-2.3953,-2.3816,-2.3946,-2.3917,-2.3795,-2.3664,-2.3526,-2.337,-2.312,-2.2546,-2.1931,-2.16,-2.1572,-2.1628,-2.1545,-2.1097,-2.0693,-2.0588,-2.0241,-2.0062,-2.0309,-2.0672,-2.0647,-1.9841,-1.9776,-1.9608,-1.9005,-1.908,-1.9205,-1.9252,-1.9982,-2.0214,-1.9586,-1.9604,-1.9723,-1.987,-1.9877,-1.9822,-1.9673,-1.975,-1.972,-1.9536,-1.9592,-1.9601,-1.9537,-1.9611,-1.9594,-1.9455,-1.9813,-1.988,-1.4564,0.0,0.0,0.0,0.0,0.0,0.0,0.0,0.0,0.0,0.0,0.0,0.0,0.0,-1.4286,-1.4688,0.0,-1.4785,0.0,-1.4683,0.0,-1.5915,-1.629,-1.6648,-1.7129,-1.6957,-1.6996,-1.7419,-1.7307,-1.7512,-1.8222,-1.8958,-1.9588,-2.0043,-2.0726,-2.1553,-2.2511,-2.2861,-2.3433,-2.4199,-2.4507,-2.4654,-2.4631,-2.4526,-2.456,-2.4692,-2.4669,-2.4634,-2.4659,-2.5441,-2.5261,-2.4616,-2.5876,-2.6321,-2.6395,-2.7883,-2.7994,-2.7333,-2.6946,-2.6164,-2.5198,-2.4525,-2.4127,-2.3903,-2.3877,-2.3775,-2.3582,-2.3256,-2.3216,-2.3265,-2.3246,-2.2443,-2.1477,-2.0909,-2.0949,-2.1139,-2.1205,-2.0987,-2.0625,-2.0165,-2.011,-2.0155,-2.0145,-2.0487,-2.0648,-2.033,-2.0118,-1.9741,-1.9042,-1.8812,-1.8743,-1.8869,-1.9893,-2.0268,-1.9559,-1.984,-1.9979,-1.9785,-1.9754,-1.9668,-1.9504,-1.9597,-1.9564,-1.938,-1.9381,-1.9414,-1.9446,-1.9702,-1.957,-1.9069,-1.9401,-1.951,0.0,-1.479,0.0,-1.4621,0.0,0.0,0.0,0.0,-1.1629,0.0,0.0,-1.2858,-1.4401,-1.4627,-1.4587,-1.46,-1.4877,0.0,0.0,0.0,0.0,-1.3816,-1.3981,0.0,-1.6185,-1.5752,-1.599,-1.7475,-1.6872,-1.6779,-1.7586,-1.8203,-1.851,-1.8481,-2.0001,-2.0793,-2.0787,-2.2508,-2.34,-2.3456,-2.4353,-2.4759,-2.4692,-2.4693,-2.4693,-2.4692,-2.4773,-2.4717,-2.4599,-2.4636,-2.4586,-2.4667,-2.6403,-2.6014,-2.4662,-2.6215,-2.776,-2.881,-2.6602,-2.5185,-2.4339,-2.4317,-2.4254,-2.4035,-2.3262,-2.3033,-2.2841,-2.1853,-2.2133,-2.2852,-2.3433,-2.3032,-2.1911,-1.9696,-1.9921,-2.0371,-1.9485,-1.9321,-1.933,-1.9248,-1.9806,-2.0299,-2.0291,-2.0192,-2.0388,-2.1134,-2.065,-2.0182,-2.0155,-1.947,-1.901,-1.9087,-2.0051,-2.0378,-1.9568,-2.04,-2.0605,-1.976,-1.9636,-1.9578,-1.9499,-1.9377,-1.931,-1.9305,-1.9179,-1.9182,-1.9316,-1.9382,-1.9183,-1.8743,-1.9714,-1.9721,-1.7519,-1.7913,-1.7765,-1.6593,-1.5867,-1.5162,-1.393,0.0,0.0,0.0,0.0,0.0,0.0,-1.4952,-1.4855,-1.4631,-1.4738,-1.483,0.0,-1.3728,-1.2982,0.0,0.0,0.0,0.0,-1.4823,-1.5343,-1.5284,-1.5566,-1.6068,-1.683,-1.7526,-1.808,-1.845,-1.951,-2.0299,-2.0756,-2.1993,-2.2908,-2.3476,-2.4364,-2.4794,-2.4779,-2.4774,-2.4778,-2.4757,-2.4739,-2.4682,-2.4599,-2.4601,-2.4552,-2.4558,-2.5149,-2.5011,-2.4597,-2.5751,-2.6048,-2.5782,-2.5003,-2.456,-2.4302,-2.4349,-2.3952,-2.3434,-2.32,-2.2722,-2.2302,-2.2507,-2.2088,-2.1806,-2.2767,-2.1734,-2.0279,-1.9594,-1.9598,-1.9655,-1.9323,-1.9357,-1.9723,-2.0728,-2.0223,-2.0121,-2.1634,-2.1452,-2.1179,-2.1403,-2.077,-2.0264,-2.0264,-1.9558,-1.9067,-1.9096,-2.0533,-2.1167,-2.037,-2.0728,-2.0839,-2.0453,-1.9871,-1.9484,-1.9374,-1.924,-1.9193,-1.9223,-1.9005,-1.8995,-1.9166,-1.8976,-1.8887,-1.8914,-1.9695,-1.9642,-1.9456,-1.9699,-1.9395,-1.8236,-1.7555,-1.6861,-1.572,-1.4842,-1.4473,0.0,0.0,0.0,0.0,-1.5076,-1.4983,-1.476,-1.4659,-1.4464,0.0,-1.2823,-1.1972,0.0,0.0,0.0,0.0,0.0,0.0,-1.4565,-1.48,0.0,-1.6072,-1.7025,-1.773,-1.8104,-1.9129,-2.0037,-2.0829,-2.1793,-2.2689,-2.3554,-2.4473,-2.4903,-2.4912,-2.4908,-2.4889,-2.4865,-2.476,-2.4663,-2.4599,-2.4558,-2.45,-2.4467,-2.443,-2.4412,-2.4478,-2.5124,-2.4893,-2.4247,-2.4238,-2.4284,-2.434,-2.4385,-2.4041,-2.3484,-2.2936,-2.2388,-2.1976,-2.2201,-2.1607,-2.103,-2.1474,-2.0749,-1.985,-1.9644,-1.9485,-1.9377,-1.9393,-1.9454,-1.9792,-2.0814,-2.042,-2.0446,-2.2072,-2.2255,-2.2218,-2.2361,-2.148,-2.0798,-2.0806,-1.9857,-1.9173,-1.9193,-2.0578,-2.1281,-2.081,-2.0607,-2.0471,-2.0382,-1.978,-1.9396,-1.9347,-1.918,-1.9108,-1.9084,-1.9011,-1.9102,-1.9351,-1.8959,-1.894,-1.929,-1.9533,-1.9507]}]]